[[{"header":{"parameterUnit":"m.s-1","parameterCategory":1,"la1":30.6,"la2":29.2853,"lo1":-89.7004,"lo2":-87.6739,"dy":0.0162,"dx":0.0183,"nx":112,"ny":82,"refTime":"2023-05-13T12:00:00:Z","depth":0,"parameterNumber":2,"parameterNumberName":"U-component_of_WINDS"},"data":[0.0,0.0,0.0,0.0,0.0,0.0,0.0,0.0,0.0,0.0,0.0,0.0,0.0,0.0,0.0,0.0,0.0,0.0,0.0,0.0,0.0,0.0,0.0,0.0,0.0,0.0,0.0,0.0,0.0,0.0,0.0,0.0,0.0,0.0,0.0,0.0,0.0,0.0,0.0,0.0,0.0,0.0,0.0,0.0,0.0,0.0,0.0,0.0,0.0,0.0,0.0,0.0,0.0,0.0,0.0,0.0,0.0,0.0,0.0,0.0,0.0,0.0,0.0,0.0,0.0,0.0,0.0,0.0,0.0,0.0,0.0,0.0,0.0,0.0,0.0,0.0,0.0,0.0,0.0,0.0,0.0,0.0,0.0,0.0,0.0,0.0,0.0,0.0,0.0,0.0,0.0,-1.3841,-1.4561,-1.5313,-1.5826,-1.5623,-1.5629,-1.6052,0.0,0.0,0.0,0.0,0.0,0.0,0.0,0.0,0.0,0.0,0.0,0.0,0.0,0.0,0.0,0.0,0.0,0.0,0.0,0.0,0.0,0.0,0.0,0.0,0.0,0.0,0.0,0.0,0.0,0.0,0.0,0.0,0.0,0.0,0.0,0.0,0.0,0.0,0.0,0.0,0.0,0.0,0.0,0.0,0.0,0.0,0.0,0.0,0.0,0.0,0.0,0.0,0.0,0.0,0.0,0.0,0.0,0.0,0.0,0.0,0.0,0.0,0.0,0.0,0.0,0.0,0.0,0.0,0.0,0.0,0.0,0.0,0.0,0.0,0.0,0.0,0.0,0.0,0.0,0.0,0.0,0.0,0.0,0.0,0.0,0.0,0.0,0.0,0.0,0.0,0.0,0.0,0.0,0.0,0.0,0.0,0.0,0.0,0.0,0.0,0.0,0.0,0.0,0.0,-1.4897,-1.5096,-1.537,-1.5614,-1.573,-1.5662,-1.5736,-1.5931,0.0,0.0,0.0,0.0,0.0,0.0,0.0,0.0,0.0,0.0,0.0,0.0,0.0,0.0,0.0,0.0,0.0,0.0,0.0,0.0,0.0,0.0,0.0,0.0,0.0,0.0,0.0,0.0,0.0,0.0,0.0,0.0,0.0,0.0,0.0,0.0,0.0,0.0,0.0,0.0,0.0,0.0,0.0,0.0,0.0,0.0,0.0,0.0,0.0,0.0,0.0,0.0,0.0,0.0,0.0,0.0,0.0,0.0,0.0,0.0,0.0,0.0,0.0,0.0,0.0,0.0,0.0,0.0,0.0,0.0,0.0,0.0,0.0,0.0,0.0,0.0,0.0,0.0,0.0,0.0,0.0,0.0,0.0,0.0,0.0,0.0,0.0,0.0,0.0,0.0,0.0,0.0,0.0,0.0,0.0,0.0,0.0,0.0,0.0,0.0,0.0,0.0,0.0,-1.4216,-1.4467,-1.5293,-1.5604,-1.573,-1.5894,-1.5999,-1.605,-1.6103,-1.6188,0.0,0.0,0.0,0.0,0.0,0.0,0.0,0.0,0.0,0.0,0.0,0.0,0.0,0.0,0.0,0.0,0.0,0.0,0.0,0.0,0.0,0.0,0.0,0.0,0.0,0.0,0.0,0.0,0.0,0.0,0.0,0.0,0.0,0.0,0.0,0.0,0.0,0.0,0.0,0.0,0.0,0.0,0.0,0.0,0.0,0.0,0.0,0.0,0.0,0.0,0.0,0.0,0.0,0.0,0.0,0.0,0.0,0.0,0.0,0.0,0.0,0.0,0.0,0.0,0.0,0.0,0.0,0.0,0.0,0.0,0.0,0.0,0.0,0.0,0.0,0.0,0.0,0.0,0.0,0.0,0.0,0.0,0.0,0.0,0.0,0.0,0.0,0.0,0.0,0.0,0.0,0.0,0.0,0.0,0.0,0.0,0.0,0.0,0.0,0.0,0.0,0.0,-1.412,-1.4336,-1.5312,-1.5604,-1.5788,-1.6009,-1.6104,-1.6195,-1.6233,-1.6177,0.0,0.0,0.0,0.0,0.0,0.0,0.0,0.0,0.0,0.0,0.0,0.0,0.0,0.0,0.0,0.0,0.0,0.0,0.0,0.0,0.0,0.0,0.0,0.0,0.0,0.0,0.0,0.0,0.0,0.0,0.0,0.0,0.0,0.0,0.0,0.0,0.0,0.0,0.0,0.0,0.0,0.0,0.0,0.0,0.0,0.0,0.0,0.0,0.0,0.0,0.0,0.0,0.0,0.0,0.0,0.0,0.0,0.0,0.0,0.0,0.0,0.0,0.0,0.0,0.0,0.0,0.0,0.0,0.0,0.0,0.0,0.0,0.0,0.0,0.0,0.0,0.0,0.0,0.0,0.0,0.0,0.0,0.0,0.0,0.0,0.0,0.0,0.0,0.0,0.0,0.0,0.0,0.0,0.0,0.0,0.0,0.0,0.0,0.0,0.0,0.0,0.0,-1.4785,-1.5312,-1.54,-1.5604,-1.574,-1.5914,-1.5788,-1.5848,-1.6103,-1.5822,0.0,0.0,0.0,0.0,0.0,0.0,0.0,0.0,0.0,0.0,0.0,0.0,0.0,0.0,0.0,0.0,0.0,0.0,0.0,0.0,0.0,0.0,0.0,0.0,0.0,0.0,0.0,0.0,0.0,0.0,0.0,0.0,0.0,0.0,0.0,0.0,0.0,0.0,0.0,0.0,0.0,0.0,0.0,0.0,0.0,0.0,0.0,0.0,0.0,0.0,0.0,0.0,0.0,0.0,0.0,0.0,0.0,0.0,0.0,0.0,0.0,0.0,0.0,0.0,0.0,0.0,0.0,0.0,0.0,0.0,0.0,0.0,0.0,0.0,0.0,0.0,0.0,0.0,0.0,0.0,0.0,0.0,0.0,0.0,0.0,0.0,0.0,0.0,0.0,0.0,0.0,0.0,0.0,0.0,0.0,0.0,0.0,0.0,0.0,0.0,0.0,0.0,-1.5107,-1.5518,0.0,-1.6004,-1.6046,-1.5923,-1.5728,-1.582,-1.633,0.0,0.0,0.0,0.0,0.0,0.0,0.0,0.0,0.0,0.0,0.0,0.0,0.0,0.0,0.0,0.0,0.0,0.0,0.0,0.0,0.0,0.0,0.0,0.0,0.0,0.0,0.0,0.0,0.0,0.0,0.0,0.0,0.0,0.0,0.0,0.0,0.0,0.0,0.0,0.0,0.0,0.0,0.0,0.0,0.0,0.0,0.0,0.0,0.0,0.0,0.0,0.0,0.0,0.0,0.0,0.0,0.0,0.0,0.0,0.0,0.0,0.0,0.0,0.0,0.0,0.0,0.0,0.0,0.0,0.0,0.0,0.0,0.0,0.0,0.0,0.0,0.0,0.0,0.0,0.0,0.0,0.0,0.0,0.0,0.0,0.0,0.0,0.0,0.0,0.0,0.0,0.0,0.0,0.0,0.0,0.0,0.0,0.0,0.0,0.0,0.0,0.0,-1.5188,-1.5581,-1.5947,0.0,-1.6408,-1.6456,-1.6265,-1.6064,-1.6185,-1.674,0.0,0.0,0.0,0.0,0.0,0.0,0.0,0.0,0.0,0.0,0.0,0.0,0.0,0.0,0.0,0.0,0.0,0.0,0.0,0.0,0.0,0.0,0.0,0.0,0.0,0.0,0.0,0.0,0.0,0.0,0.0,0.0,0.0,0.0,0.0,0.0,0.0,0.0,0.0,0.0,0.0,0.0,0.0,0.0,0.0,0.0,0.0,0.0,0.0,0.0,0.0,0.0,0.0,0.0,0.0,0.0,0.0,0.0,0.0,0.0,0.0,0.0,0.0,0.0,0.0,0.0,0.0,0.0,0.0,0.0,0.0,0.0,0.0,0.0,0.0,0.0,0.0,0.0,0.0,0.0,0.0,0.0,0.0,0.0,0.0,0.0,0.0,0.0,0.0,0.0,0.0,0.0,0.0,0.0,0.0,0.0,0.0,0.0,0.0,0.0,0.0,0.0,-1.5409,-1.6191,-1.6738,-1.6738,-1.6675,-1.6811,-1.6991,-1.6801,-1.6849,0.0,0.0,0.0,0.0,0.0,0.0,0.0,0.0,0.0,0.0,0.0,0.0,0.0,0.0,0.0,0.0,0.0,0.0,0.0,0.0,0.0,0.0,0.0,0.0,0.0,0.0,0.0,0.0,0.0,0.0,0.0,0.0,0.0,0.0,0.0,0.0,0.0,0.0,0.0,0.0,0.0,0.0,0.0,0.0,0.0,0.0,0.0,0.0,0.0,0.0,0.0,0.0,0.0,0.0,0.0,0.0,0.0,0.0,0.0,0.0,0.0,0.0,0.0,0.0,0.0,0.0,0.0,0.0,0.0,0.0,0.0,0.0,0.0,0.0,0.0,0.0,0.0,0.0,0.0,0.0,0.0,0.0,0.0,0.0,0.0,0.0,0.0,0.0,0.0,0.0,0.0,0.0,0.0,0.0,0.0,0.0,0.0,0.0,0.0,0.0,0.0,0.0,0.0,-1.5449,-1.6455,-1.7197,-1.7197,-1.6988,-1.6957,-1.7302,-1.6551,-1.6449,-1.7265,0.0,0.0,0.0,0.0,0.0,0.0,0.0,0.0,0.0,0.0,0.0,0.0,0.0,0.0,0.0,0.0,0.0,0.0,0.0,0.0,0.0,0.0,0.0,0.0,0.0,0.0,0.0,0.0,0.0,0.0,0.0,0.0,0.0,0.0,0.0,0.0,0.0,0.0,0.0,0.0,0.0,0.0,0.0,0.0,0.0,0.0,0.0,0.0,0.0,0.0,0.0,0.0,0.0,0.0,0.0,0.0,0.0,0.0,0.0,0.0,0.0,0.0,0.0,0.0,0.0,0.0,0.0,0.0,0.0,0.0,0.0,0.0,0.0,0.0,0.0,0.0,0.0,0.0,0.0,0.0,0.0,0.0,0.0,0.0,0.0,0.0,0.0,0.0,0.0,0.0,0.0,0.0,0.0,0.0,0.0,0.0,0.0,0.0,0.0,0.0,0.0,0.0,-1.6088,-1.7052,-1.776,-1.776,-1.7513,-1.7461,-1.7676,-1.7047,-1.6955,-1.7693,0.0,0.0,0.0,0.0,0.0,0.0,0.0,0.0,0.0,0.0,0.0,0.0,0.0,0.0,0.0,0.0,0.0,0.0,0.0,0.0,0.0,0.0,0.0,0.0,0.0,0.0,0.0,0.0,0.0,0.0,0.0,0.0,0.0,0.0,0.0,0.0,0.0,0.0,0.0,0.0,0.0,0.0,0.0,0.0,0.0,0.0,0.0,0.0,0.0,0.0,0.0,0.0,0.0,0.0,0.0,0.0,0.0,0.0,0.0,0.0,0.0,0.0,0.0,0.0,0.0,0.0,0.0,0.0,0.0,0.0,0.0,0.0,0.0,0.0,0.0,0.0,0.0,0.0,0.0,0.0,0.0,0.0,0.0,0.0,0.0,0.0,0.0,0.0,0.0,0.0,0.0,0.0,0.0,0.0,0.0,0.0,0.0,0.0,0.0,0.0,0.0,0.0,-1.6911,-1.7734,-1.8269,-1.8269,-1.8076,-1.794,-1.8008,-1.7872,-1.7957,-1.8165,0.0,0.0,0.0,0.0,0.0,0.0,0.0,0.0,0.0,0.0,0.0,0.0,0.0,0.0,0.0,0.0,0.0,0.0,0.0,0.0,0.0,0.0,0.0,0.0,0.0,0.0,0.0,0.0,0.0,0.0,0.0,0.0,0.0,0.0,0.0,0.0,0.0,0.0,0.0,0.0,0.0,0.0,0.0,0.0,0.0,0.0,0.0,0.0,0.0,0.0,0.0,0.0,0.0,0.0,0.0,0.0,0.0,0.0,0.0,0.0,-1.3714,0.0,0.0,0.0,0.0,0.0,0.0,0.0,0.0,0.0,0.0,0.0,0.0,0.0,0.0,0.0,0.0,0.0,0.0,0.0,0.0,0.0,0.0,0.0,0.0,0.0,0.0,0.0,0.0,0.0,0.0,0.0,0.0,0.0,0.0,0.0,0.0,0.0,0.0,0.0,0.0,0.0,-1.6974,-1.7461,-1.792,-1.8269,-1.7588,-1.7392,-1.794,-1.7176,-1.693,-1.7534,-1.7656,0.0,0.0,0.0,0.0,0.0,0.0,0.0,0.0,0.0,0.0,0.0,0.0,0.0,0.0,0.0,0.0,0.0,0.0,0.0,0.0,0.0,0.0,0.0,0.0,0.0,0.0,0.0,0.0,0.0,0.0,0.0,0.0,0.0,0.0,0.0,0.0,0.0,0.0,0.0,0.0,0.0,0.0,0.0,0.0,0.0,0.0,0.0,0.0,0.0,0.0,0.0,0.0,0.0,0.0,0.0,0.0,0.0,0.0,0.0,0.0,-1.3402,0.0,0.0,0.0,0.0,0.0,0.0,0.0,0.0,0.0,0.0,0.0,0.0,0.0,0.0,0.0,0.0,0.0,0.0,0.0,0.0,0.0,0.0,0.0,0.0,0.0,0.0,0.0,0.0,0.0,0.0,0.0,0.0,0.0,0.0,0.0,0.0,0.0,0.0,0.0,0.0,-1.7129,-1.7658,-1.8134,-1.8269,-1.7803,-1.7598,-1.794,-1.7461,-1.7298,-1.7628,-1.7612,0.0,0.0,0.0,0.0,0.0,0.0,0.0,0.0,0.0,0.0,0.0,0.0,0.0,0.0,0.0,0.0,0.0,0.0,0.0,0.0,0.0,0.0,0.0,0.0,0.0,0.0,0.0,0.0,0.0,0.0,0.0,0.0,0.0,0.0,0.0,0.0,0.0,0.0,0.0,0.0,0.0,0.0,0.0,0.0,0.0,0.0,0.0,0.0,0.0,0.0,0.0,0.0,0.0,-1.3857,-1.3682,-1.3597,-1.4075,-1.4336,-1.4277,-1.3279,-1.3098,-1.3464,0.0,0.0,0.0,0.0,0.0,0.0,0.0,0.0,0.0,0.0,0.0,0.0,0.0,0.0,0.0,0.0,0.0,0.0,0.0,0.0,0.0,0.0,0.0,0.0,0.0,-1.5312,-1.5152,0.0,0.0,0.0,0.0,0.0,0.0,0.0,0.0,0.0,0.0,0.0,0.0,-1.7506,-1.8105,-1.8576,-1.8507,-1.8291,-1.8163,-1.8232,-1.8095,-1.8047,-1.8115,-1.7725,-1.7714,0.0,0.0,0.0,0.0,0.0,0.0,0.0,0.0,0.0,0.0,0.0,0.0,0.0,0.0,0.0,0.0,0.0,0.0,0.0,0.0,0.0,0.0,0.0,0.0,0.0,0.0,0.0,0.0,0.0,0.0,0.0,0.0,-1.1312,-1.144,0.0,0.0,0.0,0.0,0.0,0.0,0.0,0.0,0.0,0.0,0.0,0.0,0.0,-1.3938,-1.3759,-1.4022,-1.4342,-1.4693,-1.4605,-1.4722,-1.5005,-1.5116,-1.5166,-1.5138,-1.4988,0.0,-1.378,-1.3537,0.0,0.0,0.0,0.0,0.0,0.0,0.0,0.0,0.0,0.0,0.0,0.0,0.0,0.0,0.0,0.0,0.0,0.0,0.0,0.0,0.0,0.0,-1.5036,-1.5794,-1.6177,-1.6392,0.0,-1.5538,-1.4779,-1.5225,-1.5556,0.0,0.0,0.0,0.0,0.0,0.0,0.0,-1.8268,-1.8664,-1.9058,-1.9357,-1.8976,-1.8749,-1.9121,-1.8485,-1.8203,-1.8484,-1.8154,-1.7831,-1.7524,-1.79,0.0,0.0,0.0,0.0,0.0,0.0,0.0,0.0,0.0,0.0,0.0,0.0,0.0,0.0,0.0,0.0,0.0,0.0,0.0,0.0,0.0,0.0,0.0,0.0,0.0,0.0,0.0,0.0,0.0,-1.1158,-1.0777,-1.0461,-1.1193,-1.1721,0.0,0.0,0.0,0.0,0.0,0.0,0.0,0.0,0.0,-1.3613,-1.4534,-1.5077,-1.5054,-1.5472,-1.5762,-1.6005,-1.5944,-1.6041,-1.6201,-1.6201,-1.6201,-1.6201,-1.6201,-1.5995,-1.5547,-1.4812,-1.4423,-1.4351,0.0,0.0,0.0,0.0,-1.5172,-1.4763,-1.4846,-1.4921,0.0,-1.4768,0.0,0.0,0.0,0.0,0.0,0.0,0.0,0.0,0.0,0.0,-1.7357,-1.7922,-1.7948,-1.7783,-1.789,-1.7088,-1.652,0.0,-1.6699,-1.665,-1.699,0.0,0.0,0.0,0.0,0.0,-1.9076,-1.9414,-1.9571,-1.9403,-1.9285,-1.918,-1.9078,-1.8893,-1.886,-1.9004,-1.8828,-1.8643,-1.8467,-1.825,-1.8122,0.0,0.0,0.0,0.0,0.0,0.0,0.0,0.0,0.0,0.0,0.0,0.0,0.0,0.0,0.0,0.0,0.0,0.0,0.0,0.0,0.0,0.0,0.0,0.0,0.0,0.0,0.0,0.0,-1.0724,-1.0333,-0.9903,-1.0795,-1.1412,0.0,0.0,0.0,0.0,0.0,0.0,-1.2701,-1.3324,-1.386,-1.4421,-1.5488,-1.6186,-1.647,-1.6834,-1.7158,-1.7346,-1.7346,-1.7398,-1.7501,-1.7501,-1.7501,-1.7501,-1.7501,-1.7501,-1.7398,-1.6237,-1.5869,-1.604,-1.6149,-1.6224,-1.6354,-1.6069,-1.5787,-1.5506,-1.5391,-1.5331,-1.5322,-1.5532,0.0,-1.556,-1.5847,0.0,0.0,0.0,0.0,-1.7224,-1.7719,-1.8414,-1.9019,-1.9199,-1.9195,-1.9049,-1.8756,-1.8396,-1.8108,0.0,-1.7802,-1.759,-1.774,0.0,0.0,0.0,0.0,-2.0104,-1.9818,-1.9991,-2.0,-1.9585,-1.9593,-1.9511,-1.9173,-1.9246,-1.937,-1.937,-1.936,-1.9287,-1.9287,-1.8682,-1.8478,-1.8836,0.0,0.0,0.0,0.0,0.0,0.0,0.0,0.0,0.0,0.0,0.0,0.0,0.0,0.0,0.0,0.0,0.0,0.0,0.0,0.0,0.0,0.0,0.0,0.0,0.0,0.0,0.0,0.0,0.0,-1.0544,-1.0925,0.0,0.0,0.0,0.0,-1.2368,-1.3243,-1.4055,-1.4703,-1.5707,-1.6388,-1.6715,-1.6841,-1.7038,-1.7406,-1.7432,-1.78,-1.8502,-1.8502,-1.8699,-1.9059,-1.9059,-1.9059,-1.9059,-1.9059,-1.9059,-1.8948,-1.7449,-1.6413,-1.5842,-1.5956,-1.5701,-1.5251,-1.579,-1.6062,-1.6237,-1.6681,-1.7278,-1.7798,-1.7144,-1.6776,-1.6664,-1.6999,-1.6581,0.0,0.0,-1.6893,-1.6461,-1.7121,-1.8092,-1.8845,-1.8323,-1.934,-2.0124,-1.8976,-1.8677,-1.8585,0.0,-1.8552,-1.86,-1.8402,0.0,-1.9014,-1.8815,-1.9292,-1.9833,-2.041,-2.0267,-2.0277,-2.0396,-2.0036,-1.9785,-1.9765,-1.966,-1.9608,-1.9608,-1.9442,-1.9287,-1.9287,-1.9248,-1.9023,-1.8613,-1.8555,0.0,0.0,0.0,0.0,0.0,0.0,0.0,0.0,0.0,0.0,0.0,0.0,0.0,0.0,0.0,0.0,0.0,0.0,0.0,0.0,0.0,0.0,0.0,0.0,0.0,0.0,0.0,0.0,-1.0912,-1.1116,0.0,0.0,-1.1852,-1.1873,-1.2157,-1.245,-1.3097,-1.3981,-1.5355,-1.6451,-1.7163,-1.7983,-1.8434,-1.8562,-1.8562,-1.8699,-1.8965,-1.8965,-1.9033,-1.917,-1.917,-1.917,-1.917,-1.917,-1.9341,-1.963,-1.9076,-1.8528,-1.7971,-1.8052,-1.7959,-1.7796,-1.7996,-1.8083,-1.8126,-1.7973,-1.8114,-1.827,-1.7591,-1.7146,-1.6911,-1.7347,-1.7707,-1.8087,-1.8766,-1.926,-1.9785,-2.0263,-2.0849,-2.1243,-2.0937,-2.1184,-2.141,-2.1547,-2.1036,-2.0664,-2.137,-2.0266,-1.9175,-1.9298,-1.9889,-2.0226,-1.9573,-2.0112,-2.0707,-2.0943,-2.0897,-2.0787,-2.0497,-2.0502,-2.0397,-2.0108,-2.0187,-2.0269,-2.0269,-2.0193,-2.0117,-2.0117,-1.9844,-1.9619,-1.9463,-1.9189,-1.8711,0.0,0.0,0.0,0.0,0.0,0.0,0.0,0.0,0.0,0.0,0.0,0.0,0.0,0.0,0.0,0.0,0.0,0.0,0.0,0.0,0.0,0.0,0.0,0.0,0.0,0.0,-1.1229,-1.1276,-1.1333,-1.1519,-1.2084,-1.205,-1.2117,-1.2334,-1.3004,-1.3704,-1.4371,-1.6122,-1.7312,-1.7839,-1.8777,-1.9299,-1.9459,-1.9555,-1.9684,-1.9924,-1.9924,-1.9924,-1.9924,-1.9924,-1.9924,-1.9924,-1.9924,-2.0102,-2.0448,-2.0448,-2.0182,-1.9881,-1.9618,-1.9504,-1.9392,-1.9234,-1.9138,-1.9143,-1.8959,-1.894,-1.8886,-1.8635,-1.8389,-1.8145,-1.831,-1.9054,-1.9928,-2.025,-2.089,-2.1724,-2.2391,-2.2493,-2.2503,-2.2503,-2.2431,-2.2441,-2.3062,-2.2646,-2.2401,-2.3454,-2.1791,-2.0328,-2.0536,-2.1101,-2.1251,-2.0426,-2.1021,-2.144,-2.1291,-2.1271,-2.1238,-2.0938,-2.0961,-2.0854,-2.0566,-2.0641,-2.0644,-2.0644,-2.0644,-2.0566,-2.0566,-2.0146,-1.9912,-1.9912,-1.9639,-1.9219,-1.8652,0.0,0.0,0.0,0.0,0.0,0.0,0.0,0.0,0.0,0.0,0.0,0.0,0.0,0.0,0.0,0.0,0.0,0.0,0.0,0.0,0.0,0.0,0.0,-1.1213,-1.1145,-1.1372,-1.1641,-1.1677,-1.1836,-1.2338,-1.2587,-1.2843,-1.3115,-1.5035,-1.6257,-1.6345,-1.8159,-1.9066,-1.8902,-1.9161,-1.9502,-1.9962,-2.0144,-2.0686,-2.1413,-2.1413,-2.1413,-2.1413,-2.1413,-2.1413,-2.1413,-2.1413,-2.1413,-2.1405,-2.15,-2.15,-2.1354,-2.057,-2.0153,-1.9906,-1.9402,-1.9127,-1.8929,-1.9701,-1.9862,-1.9853,-2.0437,-2.0521,-2.0437,-2.009,-2.0661,-2.1384,-2.1549,-2.1642,-2.1961,-2.308,-2.2869,-2.2503,-2.2666,-2.293,-2.3194,-2.3265,-2.3265,-2.3577,-2.4443,-2.3184,-2.2079,-2.2215,-2.2205,-2.1984,-2.1318,-2.1774,0.0,-2.154,-2.1481,-2.156,-2.1779,-2.1379,-2.1128,-2.1128,-2.0896,-2.0829,-2.0839,-2.0673,-2.0586,-2.0586,-2.0166,-1.9932,-1.9932,-1.9922,-1.9912,-1.9912,0.0,0.0,0.0,0.0,0.0,0.0,0.0,0.0,0.0,0.0,0.0,0.0,0.0,0.0,0.0,0.0,0.0,0.0,0.0,0.0,0.0,0.0,-1.3564,-1.2579,-1.2019,-1.1938,-1.2567,-1.2471,-1.2523,-1.2829,-1.2803,-1.3046,-1.3656,-1.4093,-1.5371,-1.7667,-1.8239,-1.9083,-2.0331,-2.0424,-2.0431,-2.0442,-2.0442,-2.0637,-2.0837,-2.0837,-2.0837,-2.0837,-2.0837,-2.1029,-2.1413,-2.1413,-2.1787,-2.2537,-2.2735,-2.2933,-2.2905,-2.1605,-2.1159,-2.1217,-2.0763,-2.0491,-2.0434,-2.1627,-2.109,-2.0174,-2.1981,-2.1403,-2.0259,-2.1089,-2.1958,-2.2537,-2.1882,-2.268,-2.3757,-2.4095,-2.4021,-2.4105,-2.4764,-2.5024,-2.5283,-2.5939,-2.5601,-2.5354,-2.6265,-2.5519,-2.4324,-2.3104,-2.291,-2.2625,-2.1801,-2.1889,0.0,-2.1801,-2.1781,-2.1663,-2.142,-2.1282,-2.1214,-2.1214,-2.1134,-2.1271,-2.1585,-2.123,-2.1055,-2.1055,-2.0625,-2.0391,-2.0391,-2.0078,-1.9912,0.0,0.0,0.0,0.0,0.0,0.0,0.0,0.0,0.0,0.0,0.0,0.0,0.0,0.0,0.0,0.0,0.0,0.0,0.0,0.0,0.0,0.0,-1.4934,-1.4803,-1.3787,-1.2838,-1.2445,-1.2982,-1.2867,-1.307,-1.4056,-1.374,-1.3924,-1.4993,-1.5319,-1.6179,-1.7992,-1.885,-1.965,-2.0644,-2.074,-2.0815,-2.0671,-2.0875,-2.1047,-2.1197,-2.1394,-2.15,-2.159,-2.159,-2.1884,0.0,-2.2275,-2.2567,-2.3139,-2.3235,-2.3437,0.0,0.0,0.0,0.0,0.0,-2.1547,-2.1599,-2.2583,-2.2069,-2.1335,-2.3398,-2.313,-2.2186,-2.3483,-2.4255,-2.4557,-2.4557,-2.5013,-2.5743,-2.6601,-2.6259,-2.5915,-2.6845,-2.676,-2.6675,-2.7626,-2.7363,-2.7279,-2.8232,-2.7626,0.0,-2.5688,-2.4532,-2.3484,-2.2815,-2.2537,-2.2344,-2.2168,-2.2305,-2.2314,-2.206,-2.2031,-2.2031,-2.2031,-2.1875,0.0,0.0,0.0,-2.1426,-2.124,-2.0986,0.0,0.0,0.0,-2.0033,-1.988,0.0,0.0,0.0,-1.9399,-1.9126,0.0,0.0,0.0,0.0,0.0,0.0,0.0,0.0,0.0,0.0,0.0,0.0,0.0,0.0,0.0,0.0,-1.6823,-1.6369,-1.5218,-1.3881,-1.3136,-1.3271,-1.3232,-1.3704,-1.5376,-1.5051,-1.535,-1.674,-1.7519,-1.8038,-1.8229,0.0,0.0,0.0,0.0,-2.0827,-2.094,-2.1362,-2.172,-2.2021,-2.2333,-2.2644,-2.2846,-2.2846,-2.3046,-2.3347,-2.3347,-2.3347,-2.3447,-2.3546,-2.3546,-2.3574,-2.3918,-2.3692,-2.2988,-2.2627,-2.2497,-2.2537,-2.3017,0.0,0.0,-2.4733,-2.5088,-2.5078,-2.6341,-2.6686,-2.6941,-2.7939,-2.7678,-2.7502,-2.9459,-2.8752,-2.7787,-2.8654,-2.8309,-2.7951,-2.8654,-2.8826,-2.9095,-2.9905,-2.9374,-2.8752,-2.8838,-2.6551,-2.4509,-2.4095,-2.3624,-2.3144,-2.2773,-2.3008,-2.3193,-2.3144,0.0,0.0,-2.3066,-2.2734,-2.2539,-2.2578,-2.2187,-2.1758,-2.1328,-2.1309,-2.1043,-2.0418,-2.0409,-2.033,-2.0084,-1.9855,-1.9855,-1.9986,-1.9165,-1.8864,0.0,0.0,0.0,0.0,0.0,0.0,0.0,0.0,0.0,0.0,0.0,0.0,0.0,0.0,0.0,-1.6496,-1.6688,-1.6999,-1.7477,-1.6536,-1.5305,-1.4224,-1.4703,-1.5013,-1.489,-1.6308,-1.7344,-1.7364,-1.7902,-1.8952,-2.0464,-2.0543,0.0,-2.1418,-2.1418,-2.1451,-2.1517,-2.1626,-2.1558,-2.142,0.0,0.0,-2.1928,-2.1928,-2.2426,-2.3329,-2.2828,-2.3238,-2.4053,-2.4242,-2.443,-2.4618,-2.4254,-2.3897,-2.3716,-2.3821,-2.3692,-2.3579,-2.4414,-2.4137,-2.3765,-2.5673,-2.5743,-2.527,-2.6283,-2.725,0.0,-2.725,-2.7689,-2.8396,-2.8689,-2.8603,-2.8763,-2.964,-2.9725,-2.964,-2.9809,-2.9821,-2.9905,-3.0086,-2.9905,-2.9821,-2.9821,-2.7457,-2.5554,-2.5451,-2.4726,-2.4141,-2.4062,-2.3828,-2.3525,-2.3174,-2.2832,-2.2637,-2.2637,-2.2559,-2.2656,-2.2998,-2.2627,-2.2207,-2.1777,-2.1758,-2.1637,-2.1293,-2.1293,-2.1129,-2.0974,-2.0707,-2.0605,-2.0587,-1.9608,-1.946,0.0,0.0,0.0,0.0,0.0,0.0,0.0,0.0,0.0,0.0,0.0,-1.7533,0.0,0.0,-1.8011,-1.7983,-1.8226,-1.8265,-1.813,-1.8225,-1.7743,-1.6316,-1.633,-1.6603,-1.7157,-1.8003,-1.887,-1.9328,-1.94,-1.9811,-2.0639,-2.0805,-2.1003,-2.1318,-2.1326,-2.1326,-2.1326,-2.142,-2.142,-2.1326,-2.1725,-2.2021,-2.2325,-2.2325,-2.2828,-2.3746,-2.3438,-2.3646,-2.4251,-2.435,-2.4538,-2.4627,-2.443,-2.4408,-2.4629,-2.4629,-2.4957,-2.5501,-2.5969,-2.6062,-2.6228,-2.78,-2.7971,-2.7688,-2.8791,-2.9158,-2.9147,-2.9147,-2.9247,-2.9324,-2.9887,-3.0161,-3.0336,-3.0781,-3.0879,-3.0879,-3.0879,-3.0879,-3.0879,-3.0879,-3.0509,-3.0324,-3.0781,-2.888,-2.7265,-2.7315,-2.654,-2.5924,-2.5924,-2.5726,-2.5498,-2.5269,-2.5041,-2.4812,-2.4594,-2.4281,-2.425,-2.4467,-2.3866,-2.3313,-2.2998,-2.2595,-2.2072,-2.1504,-2.1504,-2.1325,-2.0866,-2.0689,-2.068,-2.0671,-2.0099,-2.0017,0.0,0.0,0.0,0.0,0.0,0.0,0.0,0.0,-1.6836,-1.7803,-1.8613,-1.8976,-1.8694,-1.9412,-1.9955,-1.9772,-2.0022,-1.9962,-1.8969,-1.9814,-1.9997,-1.8897,-1.8166,-1.8275,-1.9419,-1.9651,-2.0163,-2.1159,-2.0987,-2.0798,-2.0388,-2.1011,-2.1224,-2.1027,-2.1121,-2.1121,-2.1224,-2.1428,-2.1522,-2.142,-2.1827,-2.2224,-2.2828,-2.2929,-2.3438,-2.4152,-2.4152,-2.4152,-2.4152,-2.4152,-2.435,-2.444,-2.444,-2.4735,-2.5137,-2.4932,-2.5781,-2.7094,-2.7094,-2.7474,-2.8132,-2.9429,-2.9704,-2.9715,-3.1015,-3.0824,-3.0362,-3.1383,-3.0925,-3.0362,-3.1383,-3.1661,-3.1661,-3.1661,-3.1661,-3.1661,-3.1661,-3.1661,-3.1661,-3.1661,-3.1015,-3.0722,-3.156,-3.0362,-2.924,-2.898,-2.8231,-2.7623,-2.7623,-2.7624,-2.7569,-2.7569,-2.7481,-2.7272,-2.679,-2.6321,-2.6059,-2.5961,-2.5296,-2.4742,-2.4392,-2.3724,-2.2882,-2.1921,-2.1921,-2.1579,-2.0996,-2.0996,-2.1081,-2.125,-2.125,-2.1043,-1.3017,-1.3848,0.0,-1.5723,-1.6221,-1.6982,0.0,0.0,-1.8701,-1.9951,-2.0596,-2.0994,-2.1351,-2.1156,-2.077,-2.0121,-2.0963,-2.1751,-2.1599,-2.1833,-2.188,-2.1385,-2.0556,-1.9814,-1.8948,-2.0625,-2.1566,-2.0979,-2.1818,-2.2131,-2.1514,-2.1623,-2.1522,-2.1224,-2.1725,-2.2123,-2.2325,-2.2325,-2.2224,-2.2021,-2.2526,-2.2728,-2.2526,-2.3029,-2.3637,-2.4152,-2.4152,-2.4152,-2.4152,-2.4152,-2.4251,-2.4251,-2.4251,-2.4341,-2.4627,-2.4833,-2.5596,-2.6542,-2.6542,-2.6638,-2.6924,-2.8132,-2.8505,-2.8691,-2.9977,-3.0913,-3.1472,-3.1395,-3.1395,-3.1472,-3.1395,-3.1484,-3.1661,-3.1661,-3.1661,-3.1661,-3.1661,-3.1661,-3.1661,-3.1661,-3.1572,-3.1572,-3.1661,-3.1472,-3.1057,-3.0201,-2.917,-2.8517,-2.8517,-2.8247,-2.7984,-2.7984,-2.7689,-2.7404,-2.7349,-2.7294,-2.6998,-2.6571,-2.6452,-2.6097,-2.5337,-2.5242,-2.4617,-2.3298,-2.3298,-2.3095,-2.2776,-2.2776,-2.3219,-2.4088,-2.4088,-2.2926,-1.5484,0.0,0.0,0.0,-1.7715,-1.8408,-1.9121,-1.9531,-2.0059,-2.1113,-2.168,-2.1864,-2.1523,-2.1101,-2.094,0.0,-2.1728,-2.2144,-2.2558,-2.341,-2.352,-2.2055,-2.2146,-2.182,-2.0349,-2.2106,-2.322,-2.3011,-2.3129,-2.3029,-2.2627,-2.2526,-2.2325,-2.203,-2.2224,-2.2224,-2.2021,-2.2021,-2.1928,-2.1623,-2.2021,-2.2426,-2.2728,-2.3129,-2.3637,-2.4152,-2.4152,-2.4152,-2.4152,-2.4152,-2.4152,-2.4152,-2.4152,-2.4251,-2.4341,-2.4538,-2.5392,-2.6532,-2.7084,-2.7746,-2.8402,-2.9543,-2.984,-2.9932,-3.0487,-3.1038,-3.1484,-3.1306,-3.1484,-3.1661,-3.1572,-3.1661,-3.1661,-3.1661,-3.1661,-3.1661,-3.1661,-3.1661,-3.1661,-3.1661,-3.1661,-3.1661,-3.1661,-3.1661,-3.1572,-3.1104,-3.0734,-3.0453,-3.0453,-3.0267,-3.0229,-3.0229,-2.9764,-2.9462,-2.9462,-2.8653,-2.8046,-2.7757,-2.678,-2.5904,-2.544,-2.4921,-2.4307,-2.3596,-2.3265,-2.322,-2.3644,-2.3722,-2.425,-2.512,-2.5567,-2.5228,-1.6817,0.0,0.0,-1.8203,-1.9102,-1.9853,-1.9971,-2.0488,-2.1143,-2.1904,-2.2305,-2.2407,-2.1936,-2.1717,0.0,-2.2399,-2.2727,-2.2938,-2.3055,-2.4333,-2.452,-2.2593,-2.322,-2.332,-2.1988,-2.3111,-2.4035,-2.4332,-2.3926,-2.3429,-2.3129,-2.2728,-2.2526,-2.2325,-2.2426,-2.2426,-2.2123,-2.2232,-2.218,-2.1984,-2.2392,-2.2843,-2.3353,-2.3758,-2.407,-2.4491,-2.4491,-2.4427,-2.4326,-2.4326,-2.4262,-2.4152,-2.4152,-2.444,-2.4716,-2.4529,-2.5382,-2.6713,-2.7558,-2.8484,-2.9521,-3.0679,-3.0871,-3.0691,-3.1062,-3.1229,-3.1306,-3.1395,-3.1484,-3.1572,-3.1661,-3.1661,-3.1661,-3.1661,-3.1661,-3.1661,-3.1661,-3.1661,-3.1661,-3.1661,-3.1661,-3.1661,-3.1661,-3.1661,-3.1661,-3.1661,-3.1661,-3.1661,-3.1661,-3.1661,-3.1661,-3.1661,-3.1324,-3.1096,-3.1096,-3.0107,-2.9381,-2.9155,-2.79,-2.7036,-2.654,-2.5934,-2.5391,-2.4935,-2.4445,-2.4546,-2.5238,-2.5238,-2.5756,-2.6639,-2.7162,-2.7404,0.0,0.0,-1.7686,-1.8936,-2.0225,-2.1289,-2.1709,-2.1826,-2.1973,-2.2402,-2.25,-2.2764,-2.3594,-2.368,-2.3587,-2.3144,-2.4164,-2.4631,-2.3457,-2.4223,-2.4421,-2.2994,-2.3628,-2.3935,0.0,-2.3311,-2.3529,-2.4026,-2.3628,-2.3129,-2.2526,-2.2021,-2.1725,-2.1725,-2.2224,-2.2728,-2.3229,-2.3618,-2.3821,-2.3821,-2.4304,-2.4491,-2.4595,-2.5118,-2.5335,-2.5335,-2.5335,-2.5115,-2.4757,-2.4757,-2.4519,-2.4152,-2.4152,-2.4903,-2.5838,-2.4903,-2.5674,-2.7189,-2.7484,-2.8236,-2.936,-3.0836,-3.0656,-3.0091,-3.1294,-3.1484,-3.1395,-3.1572,-3.1484,-3.1395,-3.1661,-3.1661,-3.1661,-3.1661,-3.1661,-3.1661,-3.1661,-3.1661,-3.1661,-3.1661,-3.1661,-3.1661,-3.1661,-3.1661,-3.1661,-3.1661,-3.1661,-3.1661,-3.1661,-3.1661,-3.1661,-3.1661,-3.1649,-3.1637,-3.1637,-3.1625,-3.1309,-3.0533,-3.0671,-3.026,-2.9324,-2.9494,-2.9067,-2.7984,-2.7973,-2.7962,-2.7962,-2.7962,-2.8407,-2.9277,-2.9289,-2.93,0.0,0.0,-1.9307,-2.0322,-2.1133,-2.1777,-2.2207,-2.2305,-2.2422,-2.2842,-2.2705,-2.2598,-2.2891,-2.2856,-2.295,-2.3509,-2.406,-2.445,-2.4609,-2.4735,-2.4627,-2.4016,-2.4134,0.0,0.0,0.0,0.0,-2.4833,-2.4529,-2.4233,-2.3836,-2.3538,-2.3471,-2.3737,-2.3949,-2.4074,-2.4118,-2.426,-2.4331,-2.4122,-2.4673,-2.4945,-2.5163,-2.5372,-2.5372,-2.5372,-2.5372,-2.5402,-2.5488,-2.5488,-2.5498,-2.5552,-2.5552,-2.5746,-2.6131,-2.6624,-2.7306,-2.8063,-2.7852,-2.8495,-2.9521,-3.0679,-3.0871,-3.0679,-3.1151,-3.1229,-3.1306,-3.1395,-3.1484,-3.1572,-3.1661,-3.1661,-3.1661,-3.1661,-3.1661,-3.1661,-3.1661,-3.1661,-3.1661,-3.1661,-3.1661,-3.1661,-3.1661,-3.1661,-3.1661,-3.1661,-3.1661,-3.1661,-3.1661,-3.1661,-3.1661,-3.1661,-3.1661,-3.1661,-3.1661,-3.0453,-2.9625,-2.9285,-2.8174,-2.7285,-2.6952,-2.7045,-2.722,-2.7477,-2.6915,-2.704,-2.7763,-2.7651,-2.7831,-2.8221,-2.9171,-2.9765,-1.8943,-1.9639,-2.0205,-2.1396,-2.1904,-2.2217,-2.2637,-2.2734,-2.2812,-2.3086,-2.2685,-2.2383,-2.26,-2.2558,-2.274,-2.3198,-2.3739,-2.4169,-2.4496,-2.439,-2.43,-2.4402,-2.4251,0.0,0.0,0.0,0.0,-2.5137,-2.4833,-2.4529,-2.4233,-2.4081,-2.4088,-2.4461,-2.4606,-2.492,-2.5311,-2.5503,-2.5619,-2.566,-2.5581,-2.5697,-2.5803,-2.5803,-2.5803,-2.5803,-2.5908,-2.6036,-2.6011,-2.6115,-2.6418,-2.6768,-2.6768,-2.7359,-2.8145,-2.8445,-2.9342,-3.017,-2.9189,-2.9379,-3.017,-3.0949,-3.1241,-3.1241,-3.1241,-3.1229,-3.1306,-3.1395,-3.1484,-3.1572,-3.1661,-3.1661,-3.1661,-3.1661,-3.1661,-3.1661,-3.1661,-3.1661,-3.1661,-3.1661,-3.1661,-3.1749,-3.1937,-3.2101,-3.2101,-3.1937,-3.1937,-3.1937,-3.1749,-3.1661,-3.1661,-3.1661,-3.1661,-3.1661,-3.1661,-3.0543,-2.9704,-2.9612,-2.8505,-2.7778,-2.7683,-2.7778,-2.8143,-2.8773,-2.8294,-2.8335,-2.9071,-2.8959,-2.8959,-2.9083,-3.0032,-3.0554,-1.9609,-1.999,-2.0449,-2.21,-2.2529,-2.2646,-2.296,-2.3047,-2.3125,-2.3086,-2.2422,-2.1997,0.0,0.0,-2.295,-2.2492,-2.3343,-2.3944,-2.3495,-2.3373,-2.3558,0.0,0.0,0.0,0.0,0.0,0.0,-2.4833,0.0,-2.4044,-2.3764,-2.3626,-2.365,-2.3994,-2.4462,-2.5385,-2.6665,-2.7412,-2.7832,-2.8223,-2.7206,-2.6691,-2.6691,-2.6691,-2.6691,-2.6691,-2.6999,-2.6873,-2.6527,-2.6748,-2.7318,-2.8026,-2.8026,-2.9402,-3.1275,-3.0394,-3.1467,-3.305,-3.1379,-3.1065,-3.1478,-3.1656,-3.1745,-3.1745,-3.1745,-3.1555,-3.1431,-3.1709,-3.1508,-3.1395,-3.1661,-3.1661,-3.1661,-3.1661,-3.1661,-3.1661,-3.1661,-3.1749,-3.1749,-3.1749,-3.1749,-3.1925,-3.2388,-3.2711,-3.2871,-3.2475,-3.2388,-3.2213,-3.1749,-3.1661,-3.1661,-3.1661,-3.1661,-3.1661,-3.1661,-3.1661,-3.1484,-3.1294,-3.1383,-3.1383,-3.1205,-3.1383,-3.1572,-3.1661,-3.1572,-3.1572,-3.1661,-3.1572,-3.1572,-3.1572,-3.1572,-3.1572,-2.0301,-2.1113,-2.187,-2.2242,-2.2582,-2.2921,-2.2862,-2.2969,-2.2959,-2.2334,-2.1685,-2.1009,0.0,0.0,0.0,-2.2303,-2.3823,0.0,-2.4522,-2.4319,0.0,0.0,0.0,-2.4251,-2.4251,-2.4251,0.0,0.0,-2.444,-2.447,-2.45,-2.4508,-2.4733,-2.5418,-2.636,-2.7112,-2.7829,-2.879,-2.8961,-2.8223,-2.7912,-2.7814,-2.7814,-2.7814,-2.7814,-2.7814,-2.8764,-2.8406,-2.727,-2.8096,-2.885,-2.9363,-2.9363,-3.0289,-3.1606,-3.2205,-3.2483,-3.2645,-3.2995,-3.3005,-3.2783,-3.2875,-3.2875,-3.2875,-3.2875,-3.2599,-3.2196,-3.2286,-3.1985,-3.1572,-3.1661,-3.1661,-3.1661,-3.1661,-3.1661,-3.1661,-3.1661,-3.1937,-3.2213,-3.2213,-3.245,-3.2698,-3.2785,-3.2957,-3.2957,-3.2871,-3.2871,-3.2525,-3.1837,-3.1661,-3.1661,-3.1661,-3.1661,-3.1661,-3.1661,-3.1003,-3.0543,-3.0453,-2.9795,-2.9418,-2.9338,-2.9429,-2.9795,-3.0543,-3.0362,-3.0362,-3.0543,-3.0362,-2.9988,-2.951,-2.9988,-3.0362,-2.1056,-2.1734,-2.2388,-2.2572,-2.2795,-2.2872,-2.2504,-2.2502,-2.2418,-2.1403,-2.0801,0.0,0.0,0.0,0.0,0.0,0.0,0.0,-2.42,-2.4007,-2.3943,0.0,-2.4152,0.0,-2.4152,-2.4152,-2.4152,0.0,-2.4341,-2.4526,-2.4757,-2.495,-2.5524,-2.6654,-2.7468,-2.84,-2.9692,-3.0232,-3.0232,-2.9692,-2.9177,-2.8966,-2.8966,-2.8966,-2.8966,-2.8966,0.0,-2.9597,-2.887,-2.9713,-3.0546,-3.1359,-3.1359,-3.2072,-3.3101,-3.3709,-3.3632,-3.3387,-3.409,-3.4102,-3.3696,-3.344,-3.3284,-3.3284,-3.3284,-3.308,-3.2851,-3.2851,-3.2623,-3.2322,-3.2094,-3.2034,-3.1973,-3.1721,-3.1849,-3.2025,-3.2025,-3.2376,-3.2636,-3.2636,-3.2871,-3.3031,-3.3031,-3.3031,-3.2957,-3.2797,-3.2871,-3.2698,-3.1837,-3.2001,-3.2264,-3.2264,-3.2101,-3.2025,-3.2025,-3.1282,-3.0824,-3.0824,-3.0351,-2.9977,-2.9977,-2.9977,-3.026,-3.0824,-3.0734,-3.0734,-3.0824,-3.0734,-3.0453,-2.9988,-3.0453,-3.0734,-2.1588,-2.1984,-2.2351,-2.2872,-2.2882,-2.2669,-2.1997,-2.203,-2.1735,-2.0528,0.0,-1.9584,-1.9107,0.0,-2.1197,-2.0517,0.0,-2.328,-2.3466,-2.3211,-2.3373,-2.407,-2.4152,-2.4152,-2.4152,-2.4152,-2.4152,-2.4152,-2.4396,-2.4709,-2.5025,-2.5432,-2.6437,-2.8083,-2.845,-2.9692,-3.179,-3.1573,-3.1562,-3.1575,-3.065,-3.013,-3.013,-3.013,-3.013,-3.013,-3.0535,0.0,-3.071,-3.1165,-3.2095,-3.3201,-3.3201,-3.3819,-3.4823,-3.4823,-3.4628,-3.4531,-3.4726,-3.4628,-3.4388,-3.3695,-3.3501,-3.3501,-3.3501,-3.344,-3.3392,-3.3392,-3.3344,-3.3188,-3.2719,-3.2551,-3.2382,-3.1889,-3.2086,-3.23,-3.23,-3.2624,-3.2957,-3.2945,-3.3031,-3.3031,-3.3031,-3.3031,-3.2871,-3.2649,-3.2797,-3.2772,-3.2089,-3.2525,-3.2871,-3.2859,-3.255,-3.2388,-3.23,-3.2025,-3.1749,-3.1661,-3.1661,-3.1661,-3.1661,-3.1661,-3.1661,-3.1661,-3.1661,-3.1661,-3.1661,-3.1661,-3.1661,-3.1661,-3.1661,-3.1661,-2.132,-2.1836,-2.2347,-2.2511,-2.2618,-2.2669,-2.1977,-2.1938,0.0,0.0,0.0,-1.937,-1.8586,-1.9331,0.0,-2.111,0.0,0.0,0.0,0.0,-2.3996,0.0,0.0,0.0,0.0,0.0,0.0,0.0,0.0,-2.6187,-2.6604,-2.705,-2.8405,-3.0809,-3.1008,-3.1688,-3.2958,-3.2978,-3.2454,-3.1575,-3.137,-3.1268,-3.1268,-3.1268,-3.1268,-3.137,-3.2331,0.0,-3.0824,-3.1779,-3.2611,-3.3201,-3.3201,-3.3819,-3.4823,-3.4823,-3.4726,-3.4738,-3.4823,-3.4726,-3.4702,-3.4619,-3.4559,-3.4559,-3.4559,-3.4258,-3.3909,-3.3909,-3.3609,-3.3272,-3.3176,-3.2827,-3.2478,-3.2382,-3.2087,-3.1837,-3.1837,-3.2201,-3.2636,-3.2957,-3.3031,-3.3031,-3.3031,-3.3031,-3.3116,-3.3471,-3.3202,-3.3129,-3.3288,-3.2884,-3.2376,-3.2013,-3.2201,-3.2213,-3.1849,-3.2113,-3.2113,-3.1749,-3.1661,-3.1661,-3.1661,-3.1661,-3.1661,-3.1661,-3.1661,-3.1661,-3.1661,-3.1661,-3.1661,-3.1661,-3.1661,-3.1661,-2.1265,-2.1712,-2.2264,-2.253,-2.2618,-2.2457,-2.1718,0.0,0.0,0.0,0.0,-1.9142,-1.8002,0.0,0.0,0.0,0.0,0.0,0.0,0.0,0.0,0.0,0.0,0.0,0.0,0.0,0.0,0.0,0.0,-2.7432,-2.7016,-2.8686,-3.0303,-3.1575,-3.2218,-3.2757,-3.3281,-3.3281,-3.3069,-3.2432,-3.2432,-3.2432,-3.2432,-3.2432,-3.2432,-3.2533,-3.317,0.0,-3.2488,-3.3212,-3.3621,-3.4017,-3.4017,-3.4323,-3.4823,-3.4823,-3.4726,-3.4628,-3.4628,-3.4543,-3.4445,-3.4543,-3.4628,-3.4628,-3.4726,-3.4558,-3.4258,-3.4354,-3.427,-3.403,-3.3753,-3.3489,-3.3236,-3.2971,-3.2828,-3.2783,-3.276,-3.3129,-3.3484,-3.3713,-3.3543,-3.3373,-3.3373,-3.2957,-3.2797,-3.297,-3.2797,-3.2711,-3.2698,-3.255,-3.2376,-3.2351,-3.2376,-3.23,-3.2113,-3.2025,-3.1937,-3.1749,-3.1661,-3.1661,-3.1661,-3.1661,-3.1661,-3.1661,-3.1661,-3.1661,-3.1661,-3.1661,-3.1661,-3.1661,-3.1661,-3.1661,-2.1051,-2.1646,-2.2406,-2.2931,-2.2872,-2.2475,-2.1902,-2.1987,0.0,0.0,0.0,-1.891,0.0,0.0,0.0,0.0,0.0,0.0,0.0,0.0,0.0,0.0,0.0,0.0,0.0,0.0,0.0,0.0,0.0,0.0,-2.8015,-3.0542,-3.2004,-3.2004,-3.2846,-3.3281,-3.3281,-3.3281,-3.3281,-3.3281,-3.3281,-3.3281,-3.3281,-3.3281,-3.3281,-3.3281,-3.3481,0.0,0.0,-3.415,-3.4445,-3.464,-3.464,-3.464,-3.464,-3.464,-3.4543,-3.4347,-3.4433,-3.4347,-3.4162,-3.4445,-3.4433,-3.4433,-3.4726,-3.4628,-3.4531,-3.4726,-3.4823,-3.4727,-3.4318,-3.4126,-3.3909,-3.3579,-3.3658,-3.3821,-3.3725,-3.3972,-3.4063,-3.4063,-3.3797,-3.3543,-3.3543,-3.297,-3.255,-3.2636,-3.2562,-3.23,-3.2013,-3.2113,-3.2376,-3.2698,-3.255,-3.2388,-3.23,-3.2025,-3.1849,-3.1673,-3.1661,-3.1661,-3.1661,-3.1661,-3.1661,-3.1661,-3.1661,-3.1661,-3.1661,-3.1661,-3.1661,-3.1661,-3.1661,-3.1661,-2.0716,-2.1644,-2.2983,-2.3821,-2.3694,-2.3301,-2.2963,0.0,0.0,-1.9098,-1.8599,-1.8599,-1.8477,0.0,0.0,0.0,0.0,0.0,0.0,0.0,0.0,0.0,0.0,0.0,0.0,0.0,0.0,0.0,0.0,0.0,-3.1207,-3.2387,-3.317,-3.317,-3.3281,-3.3281,-3.3281,-3.3281,-3.3281,-3.3281,-3.3281,-3.3281,-3.3281,-3.3281,-3.3281,-3.3281,-3.3281,0.0,0.0,-3.3779,-3.3878,-3.4162,-3.4162,-3.4162,-3.4162,-3.4162,-3.4174,-3.4162,-3.4347,-3.4433,-3.4433,-3.4628,-3.4628,-3.4433,-3.4726,-3.4823,-3.4726,-3.4823,-3.4823,-3.4823,-3.4763,-3.4402,-3.3992,-3.3912,-3.3903,-3.3922,-3.3872,-3.3469,-3.3116,-3.3116,-3.3116,-3.3031,-3.3031,-3.3043,-3.3129,-3.3556,-3.2896,-3.2562,-3.2871,-3.2264,-3.1749,-3.1837,-3.2213,-3.2213,-3.1761,-3.2125,-3.2125,-3.1749,-3.1661,-3.1661,-3.1661,-3.1661,-3.1661,-3.1661,-3.1661,-3.1661,-3.1661,-3.1661,-3.1661,-3.1661,-3.1661,-3.1661,-2.1948,-2.2372,-2.299,-2.3856,-2.3042,-2.2229,-2.268,0.0,0.0,-1.9166,-1.884,-1.8744,-1.8755,0.0,0.0,0.0,0.0,0.0,0.0,0.0,0.0,0.0,0.0,0.0,0.0,0.0,0.0,0.0,0.0,0.0,-3.2633,-3.3069,-3.3281,-3.3281,-3.3281,-3.3281,-3.3281,-3.3281,-3.3281,-3.3281,-3.3281,-3.3281,-3.3281,-3.3281,-3.3281,-3.3281,-3.3481,0.0,0.0,-3.3878,-3.3977,-3.4075,-3.4075,-3.4075,-3.4075,-3.4075,-3.4075,-3.4075,-3.4162,-3.4261,-3.4261,-3.4445,-3.4531,-3.4433,-3.4726,-3.4726,-3.4628,-3.4726,-3.503,-3.532,-3.532,-3.5341,-3.5318,-3.5052,-3.5105,-3.5111,-3.445,-3.4318,-3.4319,-3.3874,-3.3797,-3.3797,-3.3797,-3.3628,-3.3458,-3.3628,-3.3056,-3.2636,-3.2797,-3.2276,-3.1849,-3.1849,-3.1937,-3.1937,-3.1749,-3.1849,-3.1937,-3.1749,-3.1661,-3.1661,-3.1661,-3.1661,-3.1661,-3.1661,-3.1661,-3.1661,-3.1661,-3.1661,-3.1661,-3.1661,-3.1661,-3.1661,-2.256,-2.2846,-2.3339,-2.4126,-2.3061,-2.1996,0.0,0.0,-2.0351,-1.9465,-1.9229,-1.9097,-1.889,-1.9344,0.0,0.0,0.0,-2.2325,0.0,0.0,0.0,0.0,0.0,0.0,0.0,0.0,0.0,0.0,0.0,0.0,0.0,-3.3281,-3.3281,-3.3281,-3.3281,-3.3281,-3.3281,-3.3281,-3.3281,-3.3281,-3.3281,-3.3281,-3.3281,-3.3281,-3.3281,-3.3281,-3.3481,0.0,0.0,-3.3779,-3.3878,-3.3878,-3.3878,-3.3878,-3.3878,-3.3878,-3.3878,-3.3878,-3.4075,-3.4075,-3.4174,-3.4445,-3.4531,-3.4531,-3.4726,-3.4628,-3.4628,-3.4932,-3.5416,-3.58,-3.58,-3.6181,-3.6539,-3.6147,-3.6286,-3.6161,-3.5221,-3.5146,-3.5116,-3.4515,-3.4397,-3.4397,-3.4397,-3.4147,-3.3882,-3.3882,-3.33,-3.297,-3.297,-3.2537,-3.2201,-3.2125,-3.2025,-3.1849,-3.1749,-3.1661,-3.1661,-3.1661,-3.1661,-3.1661,-3.1661,-3.1661,-3.1661,-3.1661,-3.1661,-3.1661,-3.1661,-3.1661,-3.1661,-3.1661,-3.1661,-3.1661,-2.2221,-2.3113,-2.4214,-2.4803,-2.4102,-2.3329,0.0,0.0,-2.1946,-2.0173,-1.978,-1.9612,-1.9095,-1.9618,-2.0192,-2.0459,-2.133,0.0,0.0,0.0,0.0,0.0,0.0,0.0,0.0,0.0,0.0,0.0,0.0,0.0,0.0,-3.3281,-3.3281,-3.3281,-3.3281,-3.3281,-3.3281,-3.3281,-3.3281,-3.3281,-3.3281,-3.3281,-3.3281,-3.3281,-3.3281,0.0,0.0,0.0,0.0,-3.3281,-3.3281,-3.3281,-3.3281,-3.3281,-3.3281,-3.3281,-3.3281,-3.3381,-3.3878,-3.4075,-3.4174,-3.464,-3.4823,-3.4823,-3.4823,-3.4823,-3.4932,-3.5416,-3.5991,-3.6358,-3.6358,-3.6734,-3.7108,-3.7108,-3.7052,-3.6841,-3.6227,-3.5678,-3.5116,-3.4515,-3.4397,-3.4397,-3.4397,-3.4397,-3.4397,-3.4397,-3.381,-3.3471,-3.3628,-3.3129,-3.2636,-3.2388,-3.2388,-3.2213,-3.1749,-3.1661,-3.1661,-3.1661,-3.1661,-3.1661,-3.1661,-3.1661,-3.1661,-3.1661,-3.1661,-3.1661,-3.1661,-3.1661,-3.1661,-3.1661,-3.1661,-3.1661,-2.2073,-2.2578,-2.3155,-2.3606,-2.257,-2.1809,-2.3136,0.0,-2.0063,-2.0244,-2.0033,-1.9897,-2.0106,-2.0484,-2.0798,-2.0996,-2.2138,0.0,0.0,0.0,0.0,0.0,0.0,0.0,0.0,0.0,0.0,0.0,0.0,0.0,0.0,-3.3281,-3.3281,-3.3281,-3.3281,-3.3281,-3.3281,-3.3281,-3.3281,-3.3281,-3.3281,-3.3281,-3.3281,-3.3281,-3.3281,0.0,0.0,0.0,0.0,-3.3281,-3.3281,-3.3281,-3.3281,-3.3281,-3.3281,-3.3281,-3.3381,-3.358,-3.3977,-3.4162,-3.4347,-3.4738,-3.4823,-3.4835,-3.5223,-3.532,-3.5512,-3.6358,-3.6734,-3.6934,-3.732,-3.7518,-3.7611,-3.7611,-3.7652,-3.7456,-3.6854,-3.6253,-3.5678,-3.5116,-3.4672,-3.4397,-3.4397,-3.4397,-3.4397,-3.4397,-3.4063,-3.3907,-3.3992,-3.3484,-3.3142,-3.3068,-3.2636,-3.2213,-3.1749,-3.1661,-3.1661,-3.1661,-3.1661,-3.1661,-3.1661,-3.1661,-3.1661,-3.1661,-3.1661,-3.1661,-3.1661,-3.1661,-3.1661,-3.1661,-3.1661,-3.1661,0.0,-2.2483,-2.2752,-2.3273,-2.236,0.0,0.0,0.0,-2.0282,-2.0989,-2.0613,-2.0292,-2.0649,-2.0697,-2.0754,-2.1045,-2.2268,0.0,0.0,0.0,0.0,0.0,0.0,0.0,0.0,0.0,0.0,0.0,0.0,0.0,0.0,-3.3281,-3.3281,-3.3281,-3.3281,-3.3281,-3.3281,-3.3281,-3.3281,-3.3281,-3.3281,-3.3281,-3.3281,-3.3281,-3.3281,0.0,0.0,0.0,0.0,-3.3281,-3.3281,-3.3281,-3.3281,-3.3281,-3.3281,-3.3381,-3.358,-3.3779,-3.4064,-3.4347,-3.4433,-3.4932,-3.5126,-3.5126,-3.5524,-3.5895,-3.6275,-3.6734,-3.7121,-3.7505,-3.7808,-3.79,-3.79,-3.79,-3.79,-3.7743,-3.7129,-3.6528,-3.594,-3.5404,-3.4816,-3.4397,-3.4397,-3.4397,-3.4397,-3.4397,-3.4243,-3.416,-3.4243,-3.3907,-3.3654,-3.3556,-3.297,-3.2463,-3.2025,-3.1761,-3.1661,-3.1661,-3.1661,-3.1661,-3.1661,-3.1661,-3.1661,-3.1661,-3.1661,-3.1661,-3.1661,-3.1661,-3.1661,-3.1661,-3.1661,-3.1661,0.0,0.0,0.0,0.0,0.0,0.0,0.0,0.0,0.0,-2.2089,-2.1436,-2.0852,-2.0876,-2.0497,-2.0393,-2.0862,-2.1985,0.0,0.0,0.0,0.0,0.0,0.0,0.0,0.0,0.0,0.0,0.0,0.0,0.0,0.0,-3.3281,-3.3281,-3.3281,-3.3281,-3.3281,-3.3281,-3.3281,-3.3281,-3.3281,-3.3281,-3.3281,-3.3281,-3.3281,-3.3281,0.0,0.0,0.0,0.0,-3.3281,-3.3281,-3.3281,-3.3281,-3.3281,-3.3381,-3.3679,-3.3767,-3.3878,-3.4335,-3.4531,-3.4628,-3.532,-3.562,-3.562,-3.5512,-3.6263,-3.7015,-3.6546,-3.7134,-3.79,-3.79,-3.79,-3.79,-3.79,-3.79,-3.7756,-3.7194,-3.6567,-3.5953,-3.5443,-3.4842,-3.4397,-3.4397,-3.4397,-3.4397,-3.4397,-3.4243,-3.416,-3.4397,-3.4243,-3.3979,-3.3725,-3.3288,-3.2871,-3.2388,-3.1937,-3.1661,-3.1661,-3.1661,-3.1661,-3.1661,-3.1661,-3.1661,-3.1661,-3.1661,-3.1661,-3.1661,-3.1661,-3.1661,-3.1661,-3.1661,-3.1661,-2.1206,0.0,-2.1906,-2.2272,-2.233,0.0,0.0,0.0,0.0,0.0,0.0,-2.1423,-2.1435,-2.1476,-2.1673,-2.2194,0.0,0.0,0.0,0.0,0.0,0.0,0.0,0.0,0.0,0.0,0.0,0.0,0.0,0.0,0.0,-3.3281,-3.3281,-3.3281,-3.3281,-3.3281,-3.3281,-3.3281,-3.3281,-3.3281,-3.3281,-3.3281,-3.3281,-3.3281,-3.3281,0.0,0.0,0.0,-3.3281,-3.3281,-3.3281,-3.3281,-3.3281,-3.3281,-3.3381,-3.4028,-3.4323,-3.464,-3.5391,-3.55,-3.532,-3.503,-3.5223,-3.5524,-3.5126,-3.5692,-3.664,-3.6828,-3.7413,-3.79,-3.79,-3.79,-3.79,-3.79,-3.79,-3.7861,-3.773,-3.6854,-3.607,-3.594,-3.509,-3.4397,-3.4397,-3.4397,-3.4397,-3.4397,-3.4397,-3.4314,-3.4397,-3.4397,-3.4147,-3.3713,-3.3288,-3.2871,-3.2388,-3.1937,-3.1661,-3.1661,-3.1661,-3.1661,-3.1661,-3.1661,-3.1661,-3.1661,-3.1661,-3.1661,-3.1661,-3.1661,-3.1661,-3.1661,-3.1661,-3.1661,-2.1104,-2.1493,-2.1562,-2.1998,-2.2193,-2.2326,0.0,0.0,0.0,0.0,0.0,0.0,-2.2065,0.0,0.0,0.0,0.0,0.0,0.0,0.0,0.0,0.0,0.0,0.0,0.0,0.0,0.0,0.0,0.0,0.0,0.0,-3.3281,-3.3281,-3.3281,-3.3281,-3.3281,-3.3281,-3.3281,-3.3281,-3.3281,-3.3281,-3.3281,-3.3281,-3.3281,-3.3281,0.0,0.0,0.0,-3.3281,-3.3281,-3.3281,-3.3281,-3.3281,-3.3381,-3.3568,-3.4323,-3.4714,-3.503,-3.5596,-3.5704,-3.5524,-3.5223,-3.5512,-3.5895,-3.5596,-3.6073,-3.664,-3.6465,-3.6934,-3.7505,-3.7505,-3.7703,-3.79,-3.79,-3.79,-3.79,-3.79,-3.6959,-3.6109,-3.6109,-3.5182,-3.4397,-3.4397,-3.4397,-3.4397,-3.4397,-3.4397,-3.4397,-3.4397,-3.4397,-3.423,-3.3713,-3.3288,-3.2871,-3.2388,-3.1937,-3.1661,-3.1661,-3.1661,-3.1661,-3.1661,-3.1661,-3.1661,-3.1661,-3.1661,-3.1661,-3.1661,-3.1661,-3.1661,-3.1661,-3.1661,-3.1661,-2.1249,-2.1625,-2.1788,-2.2322,-2.2314,-2.2218,0.0,0.0,0.0,0.0,0.0,0.0,0.0,0.0,0.0,0.0,0.0,0.0,0.0,0.0,0.0,0.0,0.0,0.0,0.0,0.0,0.0,0.0,0.0,0.0,0.0,-3.3281,-3.3281,-3.3281,-3.3281,-3.3281,-3.3281,-3.3281,-3.3281,-3.3281,-3.3281,-3.3281,-3.3281,-3.3281,-3.3281,-3.3281,0.0,0.0,-3.3281,-3.3281,-3.3281,-3.3281,-3.3392,-3.3481,-3.3767,-3.464,-3.5114,-3.5223,-3.5608,-3.5704,-3.5704,-3.5704,-3.5991,-3.6263,-3.6358,-3.664,-3.6828,-3.5991,-3.6465,-3.7214,-3.7214,-3.7611,-3.79,-3.79,-3.79,-3.79,-3.79,-3.6959,-3.6109,-3.6109,-3.5182,-3.4397,-3.4397,-3.4397,-3.4397,-3.4397,-3.4397,-3.4397,-3.4314,-3.4314,-3.4063,-3.3556,-3.3129,-3.2711,-3.23,-3.1937,-3.1661,-3.1661,-3.1661,-3.1661,-3.1661,-3.1661,-3.1661,-3.1661,-3.1661,-3.1661,-3.1661,-3.1661,-3.1661,-3.1661,-3.1661,-3.1661,-2.1539,-2.211,-2.254,-2.2867,-2.2365,-2.1918,0.0,0.0,0.0,0.0,0.0,0.0,0.0,0.0,0.0,0.0,0.0,0.0,0.0,0.0,0.0,0.0,0.0,0.0,0.0,0.0,0.0,0.0,0.0,0.0,0.0,-3.3281,-3.3281,-3.3281,-3.3281,-3.3281,-3.3281,-3.3281,-3.3281,-3.3281,-3.3281,-3.3281,-3.3281,-3.3281,-3.3281,-3.3281,0.0,-3.3281,-3.3281,-3.3281,-3.3281,-3.3281,-3.358,-3.3679,-3.3866,-3.5295,-3.5596,-3.532,-3.5991,-3.6275,-3.6275,-3.6275,-3.5991,-3.58,-3.6263,-3.6452,-3.6465,-3.6358,-3.7028,-3.7808,-3.7808,-3.7808,-3.79,-3.79,-3.79,-3.79,-3.79,-3.6959,-3.6109,-3.6109,-3.5182,-3.4397,-3.4397,-3.4397,-3.4397,-3.4397,-3.4397,-3.423,-3.3882,-3.3797,-3.3471,-3.2736,-3.2562,-3.23,-3.1849,-3.1749,-3.1661,-3.1661,-3.1661,-3.1661,-3.1661,-3.1661,-3.1661,-3.1661,-3.1661,-3.1661,-3.1661,-3.1661,-3.1661,-3.1661,-3.1661,-3.1661,-2.1765,-2.1967,-2.2298,-2.3166,-2.3077,0.0,0.0,0.0,0.0,0.0,0.0,0.0,0.0,0.0,0.0,0.0,0.0,0.0,0.0,0.0,0.0,0.0,0.0,0.0,0.0,0.0,0.0,0.0,0.0,0.0,0.0,0.0,-3.3281,-3.3281,-3.3281,-3.3281,-3.3281,-3.3281,-3.3281,-3.3281,-3.3281,-3.3281,-3.3281,-3.3281,-3.3281,-3.3281,0.0,-3.3481,-3.3481,-3.3679,-3.3866,-3.4052,-3.3977,-3.4162,-3.464,-3.5787,-3.6263,-3.6263,-3.664,-3.664,-3.6452,-3.6734,-3.664,-3.6559,-3.7041,-3.7227,-3.7227,-3.7227,-3.732,-3.7505,-3.7505,-3.7703,-3.79,-3.79,-3.79,-3.79,-3.79,-3.6959,-3.6109,-3.6109,-3.5182,-3.4397,-3.4397,-3.4397,-3.4397,-3.4397,-3.4397,-3.423,-3.3797,-3.3713,-3.3386,-3.2475,-3.24,-3.2213,-3.1749,-3.1661,-3.1661,-3.1661,-3.1661,-3.1661,-3.1661,-3.1661,-3.1661,-3.1661,-3.1661,-3.1661,-3.1661,-3.1661,-3.1661,-3.1661,-3.1661,-3.1661,-2.2061,-2.1957,-2.2188,-2.3334,0.0,0.0,0.0,0.0,0.0,0.0,0.0,0.0,0.0,0.0,0.0,0.0,0.0,0.0,0.0,0.0,0.0,0.0,0.0,0.0,0.0,0.0,0.0,0.0,0.0,0.0,0.0,0.0,-3.3281,-3.3281,-3.3281,-3.3281,-3.3281,-3.3281,-3.3281,-3.3281,-3.3281,-3.3281,-3.3281,-3.3281,-3.3281,-3.3381,-3.358,-3.3779,-3.3779,-3.4162,-3.4457,-3.464,-3.4543,-3.503,-3.5692,-3.6073,-3.6653,-3.7307,-3.7108,-3.6828,-3.664,-3.7121,-3.7201,-3.7201,-3.7703,-3.79,-3.79,-3.79,-3.7598,-3.7307,-3.7307,-3.7598,-3.79,-3.79,-3.7808,-3.7808,-3.79,-3.6869,-3.6035,-3.6022,-3.5182,-3.4397,-3.423,-3.423,-3.4147,-3.4147,-3.4063,-3.3894,-3.3471,-3.3386,-3.3142,-3.23,-3.2213,-3.2113,-3.1749,-3.1661,-3.1661,-3.1661,-3.1661,-3.1661,-3.1661,-3.1661,-3.1661,-3.1661,-3.1661,-3.1661,-3.1661,-3.1661,-3.1661,-3.1661,-3.1661,-3.1661,-2.2481,-2.2611,-2.2733,-2.3117,0.0,0.0,0.0,0.0,0.0,0.0,0.0,0.0,0.0,0.0,0.0,0.0,0.0,0.0,0.0,0.0,0.0,0.0,0.0,0.0,0.0,0.0,0.0,0.0,0.0,0.0,0.0,0.0,0.0,-3.3281,-3.3281,-3.3281,-3.3281,-3.3281,-3.3281,-3.3281,-3.3281,-3.3281,-3.3281,-3.3281,-3.3481,-3.3679,-3.3679,-3.3878,-3.4075,-3.4543,-3.4543,-3.4261,-3.5391,-3.6345,-3.6828,-3.5991,-3.6559,-3.7808,-3.7307,-3.7108,-3.7121,-3.7703,-3.7505,-3.7201,-3.7703,-3.79,-3.79,-3.79,-3.79,-3.7808,-3.7808,-3.79,-3.79,-3.79,-3.7703,-3.7611,-3.7808,-3.6805,-3.5797,-3.5859,-3.5011,-3.423,-3.3797,-3.3556,-3.3484,-3.3484,-3.3142,-3.2723,-3.2562,-3.2475,-3.2288,-3.1837,-3.1749,-3.1749,-3.1661,-3.1661,-3.1661,-3.1661,-3.1661,-3.1661,-3.1661,-3.1661,-3.1661,-3.1661,-3.1661,-3.1661,-3.1661,-3.1661,-3.1661,-3.1661,-3.1661,-3.1661,-2.2433,-2.2696,-2.303,-2.328,0.0,0.0,0.0,0.0,0.0,0.0,0.0,0.0,0.0,0.0,0.0,0.0,0.0,0.0,0.0,0.0,0.0,0.0,0.0,0.0,0.0,0.0,0.0,0.0,0.0,0.0,0.0,0.0,0.0,-3.3281,-3.3281,-3.3281,-3.3281,-3.3281,-3.3281,-3.3281,-3.3281,-3.3281,-3.3292,-3.3481,-3.358,-3.3679,-3.3965,-3.415,-3.4347,-3.503,-3.5223,-3.5126,-3.5883,-3.6452,-3.664,-3.6546,-3.6934,-3.7413,-3.7505,-3.7611,-3.7611,-3.7808,-3.7611,-3.7413,-3.7598,-3.7505,-3.74,-3.74,-3.74,-3.7505,-3.7808,-3.7808,-3.7611,-3.7611,-3.7413,-3.7307,-3.7413,-3.6418,-3.5531,-3.5519,-3.468,-3.3797,-3.3373,-3.3215,-3.3031,-3.276,-3.2587,-3.2339,-3.1913,-3.2089,-3.2013,-3.1484,-3.1572,-3.1661,-3.1661,-3.1661,-3.1661,-3.1661,-3.1661,-3.1661,-3.1661,-3.1661,-3.1661,-3.1661,-3.1661,-3.1661,-3.1661,-3.1661,-3.1661,-3.1661,-3.1661,-3.1661,-2.2676,-2.2811,-2.3197,0.0,0.0,0.0,0.0,0.0,0.0,0.0,0.0,0.0,0.0,0.0,0.0,0.0,0.0,0.0,0.0,0.0,0.0,0.0,0.0,0.0,0.0,0.0,0.0,0.0,0.0,0.0,0.0,0.0,0.0,-3.3281,-3.3281,-3.3281,-3.3281,-3.3281,-3.3281,-3.3281,-3.3281,-3.3381,-3.3481,-3.3679,-3.3878,-3.3965,-3.4249,-3.4433,-3.4628,-3.532,-3.5704,-3.5895,-3.6086,-3.6358,-3.664,-3.7015,-3.7214,-3.7413,-3.7808,-3.79,-3.79,-3.79,-3.7808,-3.7611,-3.7505,-3.7413,-3.7214,-3.7108,-3.7108,-3.7214,-3.7505,-3.7505,-3.74,-3.74,-3.7214,-3.7015,-3.7108,-3.6146,-3.5264,-3.5264,-3.442,-3.3543,-3.2871,-3.2785,-3.25,-3.2064,-3.1877,-3.1713,-3.1472,-3.156,-3.1572,-3.1306,-3.1572,-3.1661,-3.1661,-3.1661,-3.1661,-3.1661,-3.1661,-3.1661,-3.1661,-3.1661,-3.1661,-3.1661,-3.1661,-3.1661,-3.1661,-3.1661,-3.1661,-3.1661,-3.1661,-3.1661,-2.3313,-2.3132,0.0,0.0,0.0,0.0,0.0,0.0,0.0,0.0,0.0,0.0,0.0,0.0,0.0,0.0,0.0,0.0,0.0,0.0,0.0,0.0,0.0,0.0,0.0,0.0,0.0,0.0,0.0,0.0,0.0,0.0,-3.3281,-3.3281,-3.3281,-3.3281,-3.3281,-3.3281,-3.3281,-3.3281,-3.3281,-3.3481,-3.3679,-3.3977,-3.4261,-3.4433,-3.4433,-3.4531,-3.4823,-3.5416,-3.5895,-3.6358,-3.58,-3.6181,-3.7108,-3.7121,-3.7413,-3.79,-3.79,-3.79,-3.79,-3.79,-3.79,-3.7808,-3.7611,-3.7505,-3.7413,-3.7214,-3.7108,-3.7108,-3.7108,-3.7108,-3.7108,-3.7108,-3.6909,-3.6815,-3.7015,-3.6055,-3.5098,-3.5098,-3.4334,-3.3386,-3.2562,-3.2189,-3.1813,-3.1395,-3.0847,-3.0668,-3.0972,-3.0984,-3.1062,-3.1306,-3.1572,-3.1661,-3.1661,-3.1661,-3.1661,-3.1661,-3.1661,-3.1661,-3.1661,-3.1661,-3.1661,-3.1661,-3.1661,-3.1661,-3.1661,-3.1661,-3.1661,-3.1661,-3.1661,-3.1661,-2.2663,-2.3275,0.0,0.0,0.0,0.0,0.0,0.0,0.0,0.0,0.0,0.0,0.0,0.0,0.0,0.0,0.0,0.0,0.0,0.0,0.0,0.0,0.0,0.0,0.0,0.0,0.0,0.0,0.0,0.0,0.0,-3.273,-3.2891,-3.3269,-3.3281,-3.3281,-3.3281,-3.3481,-3.358,-3.358,-3.3965,-3.3953,-3.3679,-3.3977,-3.4261,-3.4433,-3.503,-3.532,-3.5416,-3.5991,-3.6452,-3.6922,-3.6734,-3.6828,-3.7121,-3.7505,-3.7505,-3.74,-3.7808,-3.79,-3.79,-3.79,-3.7611,-3.7307,-3.7214,-3.7028,-3.6747,-3.664,-3.664,-3.664,-3.664,-3.664,-3.664,-3.6815,-3.6628,-3.6546,-3.6546,-3.5688,-3.4726,-3.4429,-3.3721,-3.2884,-3.1572,-3.1572,-3.1472,-3.0668,-3.0397,-3.0397,-3.0679,-3.0679,-3.0859,-3.1306,-3.1395,-3.1484,-3.1661,-3.1661,-3.1661,-3.1661,-3.1661,-3.1661,-3.1661,-3.1661,-3.1661,-3.1661,-3.1661,-3.1661,-3.1661,-3.1661,-3.1661,-3.1661,-3.1661,-3.1661,-2.2874,0.0,0.0,0.0,0.0,0.0,0.0,0.0,0.0,0.0,0.0,0.0,0.0,0.0,0.0,0.0,0.0,0.0,0.0,0.0,0.0,0.0,0.0,0.0,0.0,0.0,0.0,0.0,0.0,0.0,0.0,-3.2202,-3.2351,-3.2673,-3.2684,-3.2776,-3.296,-3.3354,-3.3656,-3.3866,-3.4433,-3.4628,-3.4433,-3.4652,-3.475,-3.4932,-3.5608,-3.5895,-3.5895,-3.6275,-3.6546,-3.6828,-3.7015,-3.7108,-3.7201,-3.7703,-3.7703,-3.7413,-3.7703,-3.7703,-3.7703,-3.7611,-3.74,-3.7108,-3.7002,-3.6722,-3.6546,-3.6452,-3.6358,-3.6358,-3.6358,-3.6358,-3.6452,-3.6534,-3.6452,-3.6358,-3.6358,-3.5399,-3.4338,-3.4053,-3.319,-3.2189,-3.1116,-3.1128,-3.1116,-3.0306,-3.0216,-3.0216,-3.0397,-3.0578,-3.0758,-3.1139,-3.1217,-3.1395,-3.1661,-3.1661,-3.1661,-3.1661,-3.1661,-3.1661,-3.1661,-3.1661,-3.1661,-3.1661,-3.1661,-3.1661,-3.1661,-3.1661,-3.1661,-3.1661,-3.1661,-3.1661,0.0,0.0,0.0,0.0,0.0,0.0,0.0,0.0,0.0,0.0,0.0,0.0,0.0,0.0,0.0,0.0,0.0,0.0,0.0,0.0,0.0,0.0,0.0,0.0,0.0,0.0,0.0,0.0,0.0,0.0,0.0,-3.1792,-3.1803,-3.1849,-3.1861,-3.2164,-3.2603,-3.3086,-3.3526,-3.3997,-3.4752,-3.5257,-3.5593,-3.5571,-3.5704,-3.58,-3.6263,-3.6452,-3.6452,-3.6559,-3.6546,-3.6546,-3.7015,-3.7214,-3.7214,-3.7703,-3.79,-3.7808,-3.7611,-3.7505,-3.7413,-3.7214,-3.7108,-3.7015,-3.6803,-3.6722,-3.6628,-3.6452,-3.6358,-3.6358,-3.6358,-3.6358,-3.6358,-3.6358,-3.6358,-3.6345,-3.6295,-3.5071,-3.3937,-3.3808,-3.2706,-3.1484,-3.0949,-3.0859,-3.0758,-3.0306,-3.0216,-3.0216,-3.0216,-3.0397,-3.0679,-3.0984,-3.1139,-3.1395,-3.1661,-3.1661,-3.1661,-3.1661,-3.1661,-3.1661,-3.1661,-3.1661,-3.1661,-3.1661,-3.1661,-3.1661,-3.1661,-3.1661,-3.1661,-3.1661,-3.1661,-3.1661,0.0,0.0,0.0,0.0,0.0,0.0,0.0,0.0,0.0,0.0,0.0,0.0,0.0,0.0,0.0,0.0,0.0,0.0,0.0,0.0,0.0,0.0,0.0,0.0,0.0,0.0,0.0,0.0,0.0,0.0,-3.1157,-3.153,-3.1891,-3.2383,-3.2688,-3.2935,-3.3042,-3.3323,-3.3663,0.0,-3.4318,-3.4817,-3.5544,-3.5779,-3.6263,-3.6734,-3.6922,-3.6922,-3.7015,-3.7413,-3.732,-3.7015,-3.7505,-3.7703,-3.7703,-3.7611,-3.7611,-3.7505,-3.7307,-3.7214,-3.7214,-3.7108,-3.6922,-3.6815,-3.6722,-3.6628,-3.6452,-3.6452,-3.6358,-3.6358,-3.6358,-3.6358,-3.6358,-3.6358,-3.6086,-3.5676,-3.5231,-3.423,-3.3184,-3.2444,-3.1926,-3.1395,-3.0487,-3.0668,-3.0758,-3.0306,-3.0216,-3.0216,-3.0216,-3.0216,-3.0499,-3.0972,-3.1062,-3.1241,-3.1661,-3.1661,-3.1661,-3.1661,-3.1661,-3.1661,-3.1661,-3.1661,-3.1661,-3.1661,-3.1661,-3.1661,-3.1661,-3.1661,-3.1661,-3.1661,-3.1661,-3.1661,0.0,0.0,0.0,0.0,0.0,0.0,0.0,0.0,0.0,0.0,0.0,0.0,0.0,0.0,0.0,0.0,0.0,0.0,0.0,0.0,0.0,0.0,0.0,0.0,0.0,0.0,0.0,0.0,0.0,-3.0615,-3.0893,-3.1439,-3.1829,-3.2273,-3.2466,-3.269,-3.2943,-3.3514,-3.3818,-3.387,-3.452,-3.5045,-3.5542,-3.6062,-3.6628,-3.7108,-3.7108,-3.7108,-3.7108,-3.7505,-3.7505,-3.7307,-3.7611,-3.7703,-3.7703,-3.7413,-3.7307,-3.7307,-3.7015,-3.6909,-3.6909,-3.6828,-3.664,-3.6534,-3.6534,-3.6452,-3.6358,-3.6358,-3.6358,-3.6358,-3.6358,-3.6181,-3.5991,-3.5991,-3.58,-3.5461,-3.4895,-3.3772,-3.2604,-3.1934,-3.1404,-3.0847,-3.0306,-3.0397,-3.0578,-3.0601,-3.0408,-3.0306,-3.0589,-3.0499,-3.0578,-3.105,-3.1139,-3.1318,-3.1673,-3.1661,-3.1661,-3.1661,-3.1661,-3.1661,-3.1661,-3.1661,-3.1661,-3.1661,-3.1661,-3.1661,-3.1661,-3.1661,-3.1661,-3.1661,-3.1572,-3.1484,0.0,0.0,0.0,0.0,0.0,0.0,0.0,0.0,0.0,0.0,0.0,0.0,0.0,0.0,0.0,0.0,0.0,0.0,0.0,0.0,0.0,0.0,0.0,0.0,0.0,0.0,0.0,0.0,0.0,-3.1026,-3.1116,-3.1649,-3.2001,-3.2077,-3.2239,-3.246,-3.2824,-3.3482,-3.3808,-3.3872,-3.4793,-3.5289,-3.5314,-3.6065,-3.6536,-3.6814,-3.6814,-3.6814,-3.6826,-3.7024,-3.7167,-3.7258,-3.7258,-3.7322,-3.7413,-3.7108,-3.7015,-3.7015,-3.6722,-3.6628,-3.6628,-3.6452,-3.6358,-3.6358,-3.6358,-3.6358,-3.6358,-3.6358,-3.6358,-3.6358,-3.6358,-3.5991,-3.562,-3.562,-3.5355,-3.5027,-3.456,-3.3443,-3.2312,-3.1633,-3.0788,-3.0216,-3.0306,-3.0306,-3.0408,-3.0894,-3.0601,-3.0499,-3.0984,-3.0781,-3.0859,-3.1217,-3.1306,-3.1395,-3.1661,-3.1661,-3.1661,-3.1661,-3.1661,-3.1661,-3.1661,-3.1661,-3.1661,-3.1661,-3.1661,-3.1661,-3.1661,-3.1661,-3.1661,-3.1661,-3.1484,-3.1306,0.0,0.0,0.0,0.0,0.0,0.0,0.0,0.0,0.0,0.0,0.0,0.0,0.0,0.0,0.0,0.0,0.0,0.0,0.0,0.0,0.0,0.0,0.0,0.0,0.0,0.0,0.0,0.0,-3.1448,-3.1625,-3.1813,-3.2426,-3.2785,-3.2624,-3.3202,-3.3411,-3.3328,-3.3268,-3.3305,-3.3455,-3.4295,-3.4612,-3.4362,-3.5022,-3.5494,-3.575,-3.575,-3.575,-3.575,-3.575,-3.6032,-3.6482,-3.6482,-3.6777,-3.7108,-3.6815,-3.6722,-3.6722,-3.6546,-3.6452,-3.6452,-3.6452,-3.6358,-3.6358,-3.6358,-3.6358,-3.6358,-3.6358,-3.6358,-3.6358,-3.6358,-3.5991,-3.562,-3.562,-3.4571,-3.3505,-3.2889,-3.263,-3.2113,-3.0686,-3.0262,-3.0306,-3.0487,-3.0578,-3.0679,-3.0972,-3.0984,-3.0883,-3.0984,-3.0984,-3.1062,-3.1306,-3.1306,-3.1395,-3.1661,-3.1661,-3.1661,-3.1661,-3.1661,-3.1661,-3.1661,-3.1661,-3.1661,-3.1661,-3.1661,-3.1661,-3.1661,-3.1661,-3.1661,-3.1661,-3.1661,-3.1484,0.0,0.0,0.0,0.0,0.0,0.0,0.0,0.0,0.0,0.0,0.0,0.0,0.0,0.0,0.0,0.0,0.0,0.0,0.0,0.0,0.0,0.0,0.0,0.0,0.0,0.0,0.0,0.0,-3.2152,-3.2264,-3.2351,-3.2797,-3.3142,-3.33,-3.3471,-3.3556,-3.3556,-3.3471,-3.3398,-3.3398,-3.3652,-3.3692,-3.3606,-3.3871,-3.4401,-3.5073,-3.5073,-3.5073,-3.5073,-3.5175,-3.5417,-3.5634,-3.5634,-3.5787,-3.5912,-3.5717,-3.5612,-3.5533,-3.5441,-3.5441,-3.5441,-3.5441,-3.5441,-3.5441,-3.5441,-3.5441,-3.5441,-3.5441,-3.5441,-3.5349,-3.5151,-3.4674,-3.4217,-3.3933,-3.3375,-3.2594,-3.1809,-3.1704,-3.1391,-3.0365,-3.0216,-3.0306,-3.0566,-3.0578,-3.0758,-3.1139,-3.1062,-3.1062,-3.1318,-3.1229,-3.1229,-3.1484,-3.1484,-3.1572,-3.1661,-3.1661,-3.1661,-3.1661,-3.1661,-3.1661,-3.1661,-3.1661,-3.1661,-3.1661,-3.1661,-3.1661,-3.1661,-3.1661,-3.1661,-3.1661,-3.1572,-3.1395,0.0,0.0,0.0,0.0,0.0,0.0,0.0,0.0,0.0,0.0,0.0,0.0,0.0,0.0,0.0,0.0,0.0,0.0,0.0,0.0,0.0,0.0,0.0,0.0,0.0,0.0,0.0,0.0,-3.2772,-3.2884,-3.2884,-3.3154,-3.3398,-3.3641,-3.3556,-3.3556,-3.3641,-3.3556,-3.3471,-3.3227,-3.3154,-3.3081,-3.3081,-3.3081,-3.3533,-3.4299,-3.4299,-3.4299,-3.4311,-3.4489,-3.4667,-3.4793,-3.4793,-3.4882,-3.4996,-3.4816,-3.4726,-3.4726,-3.4726,-3.4726,-3.4726,-3.4726,-3.4726,-3.4726,-3.4726,-3.4726,-3.4726,-3.4532,-3.4532,-3.4441,-3.3961,-3.3397,-3.2933,-3.2571,-3.2301,-3.1926,-3.1368,-3.0997,-3.0698,-3.0296,-3.0216,-3.0306,-3.0566,-3.0668,-3.0859,-3.1217,-3.1229,-3.1318,-3.1661,-3.1484,-3.1484,-3.1661,-3.1661,-3.1661,-3.1661,-3.1661,-3.1661,-3.1661,-3.1661,-3.1661,-3.1661,-3.1661,-3.1661,-3.1661,-3.1661,-3.1661,-3.1661,-3.1661,-3.1661,-3.1661,-3.1484,-3.1395,0.0,0.0,0.0,0.0,0.0,0.0,0.0,0.0,0.0,0.0,0.0,0.0,0.0,0.0,0.0,0.0,0.0,0.0,0.0,0.0,0.0,0.0,0.0,0.0,0.0,0.0,0.0,0.0,-3.3398,-3.3398,-3.3398,-3.3556,-3.3556,-3.3398,-3.3556,-3.3641,-3.3398,-3.324,-3.2982,-3.2723,-3.2982,-3.3081,-3.3081,-3.3081,-3.3106,-3.3156,-3.3156,-3.3156,-3.3156,-3.3156,-3.347,-3.3947,-3.3947,-3.4261,-3.4726,-3.4726,-3.4726,-3.4726,-3.4726,-3.4726,-3.4726,-3.4726,-3.4726,-3.4726,-3.4726,-3.4726,-3.4635,-3.4144,-3.4053,-3.3961,-3.3421,-3.2957,-3.2571,-3.2489,-3.1763,-3.1228,-3.1668,-3.0984,-3.025,-3.0227,-3.0216,-3.0306,-3.0566,-3.0781,-3.1062,-3.1306,-3.1484,-3.1661,-3.1661,-3.1661,-3.1661,-3.1661,-3.1661,-3.1661,-3.1661,-3.1661,-3.1661,-3.1661,-3.1661,-3.1661,-3.1661,-3.1661,-3.1661,-3.1661,-3.1661,-3.1661,-3.1661,-3.1661,-3.1661,-3.1661,-3.1661,-3.1572,0.0,0.0,0.0,0.0,0.0,0.0,0.0,0.0,0.0,0.0,0.0,0.0,0.0,0.0,0.0,0.0,0.0,0.0,0.0,0.0,0.0,0.0,0.0,0.0,0.0,0.0,0.0,0.0,0.0,-3.3398,-3.3398,-3.3313,-3.3313,-3.3398,-3.3313,-3.3326,-3.324,-3.3154,-3.3081,-3.2982,-3.3068,-3.3081,-3.3081,-3.3081,-3.3081,-3.3081,-3.3081,-3.3081,-3.3081,-3.3081,-3.3194,-3.337,-3.337,-3.3483,-3.3671,-3.3671,-3.3671,-3.3671,-3.3671,-3.3671,-3.3671,-3.3671,-3.3671,-3.3671,-3.3671,-3.3671,-3.3658,-3.3483,-3.3219,-3.2864,-3.2406,-3.1865,-3.141,-3.1124,-3.0721,-3.0503,-3.0777,-3.0433,-3.0216,-3.0216,-3.0216,-3.0216,-3.0306,-3.0691,-3.0984,-3.1062,-3.1407,-3.1661,-3.1661,-3.1661,-3.1661,-3.1661,-3.1661,-3.1661,-3.1661,-3.1661,-3.1661,-3.1661,-3.1661,-3.1661,-3.1661,-3.1661,-3.1661,-3.1661,-3.1661,-3.1661,-3.1661,-3.1661,-3.1661,-3.1661,-3.1661,-3.1661,0.0,0.0,0.0,0.0,0.0,0.0,0.0,0.0,0.0,0.0,0.0,0.0,0.0,0.0,0.0,0.0,0.0,0.0,0.0,0.0,0.0,0.0,0.0,0.0,0.0,0.0,0.0,0.0,0.0,0.0,-3.3313,-3.3154,-3.3154,-3.3313,-3.3154,-3.3081,-3.3081,-3.3081,-3.3081,-3.3081,-3.3081,-3.3081,-3.3081,-3.3081,-3.3081,-3.3081,-3.3081,-3.3081,-3.3081,-3.3081,-3.3081,-3.3081,-3.3081,-3.3081,-3.3081,-3.3081,-3.3081,-3.3081,-3.3081,-3.3081,-3.3081,-3.3081,-3.3081,-3.3081,-3.3081,-3.3081,-3.3081,-3.2909,-3.2649,-3.23,-3.1837,-3.1306,-3.0758,-3.0306,-3.0216,-3.0216,-3.0216,-3.0216,-3.0216,-3.0216,-3.0306,-3.0306,-3.0306,-3.0769,-3.1062,-3.1062,-3.1407,-3.1661,-3.1661,-3.1661,-3.1661,-3.1661,-3.1661,-3.1661,-3.1661,-3.1661,-3.1661,-3.1661,-3.1661,-3.1661,-3.1661,-3.1661,-3.1661,-3.1661,-3.1661,-3.1661,-3.1661,-3.1661,-3.1661,-3.1661,-3.1661,-3.1661,0.0,0.0,0.0,0.0,0.0,0.0,0.0,0.0,0.0,0.0,0.0,0.0,0.0,0.0,0.0,0.0,0.0,0.0,0.0,0.0,0.0,0.0,0.0,0.0,0.0,0.0,0.0,0.0,-3.3398,-3.3313,-3.3081,-3.3081,-3.3081,-3.3081,-3.3081,-3.3081,-3.3081,-3.3081,-3.3081,-3.3081,-3.3081,-3.3081,-3.3081,-3.3081,-3.3081,-3.3081,-3.3081,-3.3081,-3.3081,-3.3081,-3.3081,-3.3081,-3.3081,-3.3081,-3.3081,-3.3081,-3.3081,-3.3081,-3.3081,-3.3081,-3.3081,-3.3081,-3.3081,-3.3081,-3.3081,-3.3081,-3.2995,-3.2562,-3.2388,-3.23,-3.1761,-3.1306,-3.0769,-3.0306,-3.0216,-3.0216,-3.0216,-3.0216,-3.0216,-3.0216,-3.0397,-3.0578,-3.0578,-3.1026,-3.1306,-3.1306,-3.1484,-3.1661,-3.1661,-3.1661,-3.1661,-3.1661,-3.1661,-3.1661,-3.1661,-3.1661,-3.1661,-3.1661,-3.1661,-3.1661,-3.1661,-3.1661,-3.1661,-3.1661,-3.1661,-3.1661,-3.1661,-3.1661,-3.1661,-3.1661,-3.1661,-3.1661,-2.2628,0.0,0.0,0.0,0.0,0.0,0.0,0.0,0.0,0.0,0.0,0.0,0.0,0.0,0.0,0.0,0.0,0.0,0.0,0.0,0.0,0.0,0.0,0.0,0.0,0.0,0.0,0.0,-3.324,-3.3154,-3.3081,-3.3081,-3.3081,-3.3081,-3.3081,-3.3081,-3.3081,-3.3081,-3.3081,-3.3081,-3.3081,-3.3081,-3.3081,-3.3081,-3.3081,-3.3081,-3.3081,-3.3081,-3.3081,-3.3081,-3.3081,-3.3081,-3.3081,-3.3081,-3.3081,-3.3081,-3.3081,-3.3081,-3.3081,-3.3081,-3.3081,-3.3081,-3.3081,-3.3081,-3.3081,-3.3081,-3.3068,-3.2909,-3.2649,-3.2213,-3.1306,-3.0769,-3.0397,-3.0216,-3.0216,-3.0216,-3.0487,-3.0487,-3.0487,-3.0487,-3.0679,-3.0883,-3.0883,-3.1139,-3.1306,-3.1306,-3.1484,-3.1661,-3.1661,-3.1661,-3.1661,-3.1661,-3.1661,-3.1661,-3.1661,-3.1661,-3.1661,-3.1661,-3.1661,-3.1661,-3.1661,-3.1661,-3.1661,-3.1661,-3.1661,-3.1661,-3.1661,-3.1661,-3.1661,-3.1661,-3.1661,-3.1661,0.0,0.0,0.0,0.0,0.0,0.0,-2.7278,-2.8185,0.0,0.0,0.0,0.0,0.0,0.0,0.0,0.0,0.0,0.0,0.0,0.0,0.0,0.0,0.0,0.0,0.0,-3.324,-3.324,-3.324,-3.3154,-3.3081,-3.3081,-3.3081,-3.3081,-3.3081,-3.3081,-3.3081,-3.3081,-3.3081,-3.3081,-3.3081,-3.3081,-3.3081,-3.3081,-3.3081,-3.3081,-3.3081,-3.3081,-3.3081,-3.3081,-3.3081,-3.3081,-3.3081,-3.3081,-3.3081,-3.3081,-3.3081,-3.3081,-3.3081,-3.3081,-3.3081,-3.3081,-3.3081,-3.3081,-3.3081,-3.3081,-3.3081,-3.3081,-3.3081,-3.2736,-3.2213,-3.1128,-3.0668,-3.0487,-3.0397,-3.0397,-3.0397,-3.0679,-3.0859,-3.0859,-3.0769,-3.096,-3.1139,-3.1139,-3.1318,-3.1484,-3.1484,-3.1572,-3.1661,-3.1661,-3.1661,-3.1661,-3.1661,-3.1661,-3.1661,-3.1661,-3.1661,-3.1661,-3.1661,-3.1661,-3.1661,-3.1661,-3.1661,-3.1661,-3.1661,-3.1661,-3.1661,-3.1661,-3.1661,-3.1661,-3.1661,-3.1661,-3.1661,0.0,0.0,0.0,0.0,0.0,0.0,-2.7921,-2.8282,-2.8578,0.0,0.0,0.0,0.0,0.0,0.0,0.0,0.0,0.0,0.0,0.0,0.0,0.0,0.0,0.0,-3.2842,-3.2893,-3.2918,-3.298,-3.3043,-3.3081,-3.3081,-3.3081,-3.3081,-3.3081,-3.3081,-3.3081,-3.3081,-3.3081,-3.3081,-3.3081,-3.3081,-3.3081,-3.3081,-3.3081,-3.3081,-3.3081,-3.3081,-3.3081,-3.3081,-3.3081,-3.3081,-3.3081,-3.3081,-3.3081,-3.3081,-3.3081,-3.3081,-3.3081,-3.3081,-3.3081,-3.3081,-3.3081,-3.3081,-3.3081,-3.3081,-3.3081,-3.3081,-3.3081,-3.2649,-3.2025,-3.1128,-3.0859,-3.0847,-3.0668,-3.0578,-3.0679,-3.0972,-3.1139,-3.1229,-3.1151,-3.1229,-3.1306,-3.1306,-3.1572,-3.1661,-3.1661,-3.1661,-3.1661,-3.1661,-3.1661,-3.1661,-3.1661,-3.1661,-3.1661,-3.1661,-3.1661,-3.1661,-3.1661,-3.1661,-3.1661,-3.1661,-3.1661,-3.1661,-3.1661,-3.1661,-3.1661,-3.1661,-3.1661,-3.1661,-3.1661,-3.1661,-3.1661,0.0,0.0,0.0,0.0,0.0,0.0,-2.608,-2.6734,-2.7376,0.0,0.0,0.0,0.0,0.0,0.0,0.0,0.0,0.0,0.0,0.0,0.0,0.0,0.0,0.0,-3.1712,-3.1712,-3.1901,-3.234,-3.2817,-3.3081,-3.3081,-3.3081,-3.3081,-3.3081,-3.3081,-3.3081,-3.3081,-3.3081,-3.3081,-3.3081,-3.3081,-3.3081,-3.3081,-3.3081,-3.3081,-3.3081,-3.3081,-3.3081,-3.3081,-3.3081,-3.3081,-3.3081,-3.3081,-3.3081,-3.3081,-3.3081,-3.3081,-3.3081,-3.3081,-3.3081,-3.3081,-3.3081,-3.3081,-3.3081,-3.3081,-3.3081,-3.2995,-3.2649,-3.1849,-3.1128,-3.0949,-3.0758,-3.0668,-3.0578,-3.0769,-3.0972,-3.1229,-3.1306,-3.1395,-3.1496,-3.1584,-3.1661,-3.1661,-3.1673,-3.1661,-3.1661,-3.1661,-3.1661,-3.1661,-3.1661,-3.1661,-3.1661,-3.1661,-3.1661,-3.1661,-3.1661,-3.1661,-3.1661,-3.1661,-3.1661,-3.1661,-3.1661,-3.1661,-3.1661,-3.1661,-3.1661,-3.1661,-3.1661,-3.1661,-3.1661,-3.1661,-3.1661,0.0,0.0,0.0,-2.4432,0.0,0.0,0.0,-2.6465,-2.6901,0.0,0.0,0.0,0.0,0.0,0.0,0.0,0.0,0.0,0.0,0.0,0.0,0.0,0.0,0.0,-3.1361,-3.1386,-3.1499,-3.1788,-3.2328,-3.2641,-3.2641,-3.2918,-3.3081,-3.3081,-3.3081,-3.3081,-3.3081,-3.3081,-3.3081,-3.3081,-3.3081,-3.3081,-3.3081,-3.3081,-3.3081,-3.3081,-3.3081,-3.3081,-3.3081,-3.3081,-3.3081,-3.3081,-3.3081,-3.3081,-3.3081,-3.3081,-3.3081,-3.3081,-3.3081,-3.3081,-3.3081,-3.3081,-3.3081,-3.3081,-3.3081,-3.2909,-3.2649,-3.2201,-3.1484,-3.0859,-3.0758,-3.0668,-3.0668,-3.0847,-3.1038,-3.1229,-3.1484,-3.1484,-3.1572,-3.1661,-3.1661,-3.1661,-3.1661,-3.1661,-3.1661,-3.1661,-3.1661,-3.1661,-3.1661,-3.1661,-3.1661,-3.1661,-3.1661,-3.1661,-3.1661,-3.1661,-3.1661,-3.1661,-3.1661,-3.1661,-3.1661,-3.1661,-3.1661,-3.1661,-3.1661,-3.1661,-3.1661,-3.1661,-3.1661,-3.1661,-3.1661,-3.1661,0.0,0.0,0.0,0.0,0.0,-2.5046,0.0,0.0,0.0,-2.7293,0.0,0.0,0.0,0.0,0.0,0.0,0.0,0.0,0.0,0.0,0.0,0.0,0.0,0.0,0.0,-3.1022,-3.1122,-3.1235,-3.165,-3.1951,-3.2051,-3.2604,-3.2918,-3.2918,-3.3018,-3.3081,-3.3081,-3.3081,-3.3081,-3.3081,-3.3081,-3.3081,-3.3081,-3.3081,-3.3081,-3.3081,-3.3081,-3.3081,-3.3081,-3.3081,-3.3081,-3.3081,-3.3081,-3.3081,-3.3081,-3.3081,-3.3081,-3.3081,-3.3081,-3.3081,-3.3081,-3.3081,-3.3081,-3.3068,-3.2995,-3.2649,-3.2125,-3.1661,-3.1217,-3.0758,-3.0668,-3.0668,-3.0847,-3.1205,-3.1306,-3.1395,-3.1661,-3.1661,-3.1661,-3.1661,-3.1661,-3.1661,-3.1661,-3.1661,-3.1661,-3.1661,-3.1661,-3.1661,-3.1661,-3.1661,-3.1661,-3.1661,-3.1661,-3.1661,-3.1661,-3.1661,-3.1661,-3.1661,-3.1661,-3.1661,-3.1661,-3.1661,-3.1661,-3.1661,-3.1661,-3.1661,-3.1661,-3.1661,-3.1661,-3.1661,-3.1661,-3.1661,0.0,0.0,0.0,0.0,-2.4456,0.0,0.0,0.0,-2.5046,-2.5172,0.0,0.0,0.0,0.0,0.0,0.0,0.0,0.0,0.0,0.0,0.0,0.0,0.0,0.0,0.0,-2.9679,-3.0181,-3.067,-3.0758,-3.0997,-3.1461,-3.2014,-3.2303,-3.2303,-3.2805,-3.3081,-3.3081,-3.3081,-3.3081,-3.3081,-3.3081,-3.3081,-3.3081,-3.3081,-3.3081,-3.3081,-3.3081,-3.3081,-3.3081,-3.3081,-3.3081,-3.3081,-3.3081,-3.3081,-3.3081,-3.3081,-3.3081,-3.3081,-3.3081,-3.3081,-3.3081,-3.3081,-3.3081,-3.2995,-3.2649,-3.2113,-3.1673,-3.1128,-3.0847,-3.0668,-3.0578,-3.0937,-3.1217,-3.1306,-3.1484,-3.1661,-3.1661,-3.1661,-3.1661,-3.1661,-3.1661,-3.1661,-3.1661,-3.1661,-3.1661,-3.1661,-3.1661,-3.1661,-3.1661,-3.1661,-3.1661,-3.1661,-3.1661,-3.1661,-3.1661,-3.1661,-3.1661,-3.1661,-3.1661,-3.1661,-3.1661,-3.1661,-3.1661,-3.1661,-3.1661,-3.1661,-3.1661,-3.1661,-3.1661,-3.1661,-3.1661,-3.1661,0.0,0.0,0.0,0.0,0.0,0.0,0.0,0.0,-2.482,0.0,0.0,0.0,0.0,0.0,0.0,0.0,0.0,0.0,0.0,0.0,0.0,0.0,0.0,0.0,0.0,0.0,0.0,0.0,-3.0432,-3.0708,-3.0922,-3.1449,-3.1738,-3.1738,-3.2277,-3.2579,-3.2579,-3.2918,-3.3081,-3.3081,-3.3081,-3.3081,-3.3081,-3.3081,-3.3081,-3.3081,-3.3081,-3.3081,-3.3081,-3.3081,-3.3081,-3.3081,-3.3081,-3.3081,-3.3081,-3.3081,-3.3081,-3.3081,-3.3081,-3.3081,-3.3081,-3.3081,-3.3081,-3.2995,-3.2562,-3.2113,-3.1737,-3.1294,-3.0949,-3.0871,-3.0949,-3.1128,-3.1306,-3.1484,-3.1661,-3.1661,-3.1661,-3.1661,-3.1661,-3.1661,-3.1661,-3.1661,-3.1661,-3.1661,-3.1661,-3.1661,-3.1661,-3.1661,-3.1661,-3.1661,-3.1661,-3.1661,-3.1661,-3.1661,-3.1661,-3.1661,-3.1661,-3.1661,-3.1661,-3.1661,-3.1661,-3.1661,-3.1661,-3.1661,-3.1661,-3.1661,-3.1661,-3.1661,-3.1849,-3.2113,-3.1849,-3.2013,-2.5611,0.0,0.0,0.0,0.0,0.0,0.0,0.0,0.0,0.0,0.0,0.0,0.0,0.0,0.0,0.0,0.0,0.0,0.0,0.0,0.0,0.0,0.0,0.0,0.0,0.0,0.0,0.0,0.0,-3.0218,-3.0382,-3.0896,-3.1173,-3.1173,-3.17,-3.2051,-3.2215,-3.2629,-3.2918,-3.3081,-3.3081,-3.3081,-3.3081,-3.3081,-3.3081,-3.3081,-3.3081,-3.3081,-3.3081,-3.3081,-3.3081,-3.3081,-3.3081,-3.3081,-3.3081,-3.3081,-3.3081,-3.3081,-3.3081,-3.3081,-3.3081,-3.3081,-3.3081,-3.2995,-3.2388,-3.2101,-3.1813,-3.1294,-3.105,-3.1062,-3.1217,-3.1395,-3.1484,-3.1661,-3.1661,-3.1661,-3.1661,-3.1661,-3.1661,-3.1661,-3.1661,-3.1661,-3.1661,-3.1661,-3.1661,-3.1661,-3.1661,-3.1661,-3.1661,-3.1661,-3.1661,-3.1661,-3.1661,-3.1661,-3.1661,-3.1661,-3.1661,-3.1661,-3.1661,-3.1661,-3.1661,-3.1661,-3.1661,-3.1661,-3.1849,-3.1849,-3.1661,-3.1925,-3.2189,-3.255,-3.2113,-3.2276,0.0,0.0,0.0,-2.5096,0.0,0.0,0.0,0.0,-2.4029,0.0,0.0,0.0,0.0,0.0,0.0,0.0,0.0,0.0,0.0,0.0,0.0,0.0,0.0,0.0,0.0,0.0,0.0,0.0,0.0,0.0,-2.9792,-3.0344,-3.0645,-3.0645,-3.1148,-3.1675,-3.2202,-3.2227,-3.2516,-3.3081,-3.3081,-3.3081,-3.3081,-3.3081,-3.3081,-3.3081,-3.3081,-3.3081,-3.3081,-3.3081,-3.3081,-3.3081,-3.3081,-3.3081,-3.3081,-3.3081,-3.3081,-3.3081,-3.3081,-3.3081,-3.3081,-3.3081,-3.3081,-3.2909,-3.2013,-3.1749,-3.1572,-3.0847,-3.0781,-3.1062,-3.1217,-3.1484,-3.1661,-3.1661,-3.1661,-3.1661,-3.1661,-3.1661,-3.1661,-3.1661,-3.1661,-3.1661,-3.1661,-3.1661,-3.1661,-3.1661,-3.1661,-3.1661,-3.1661,-3.1661,-3.1661,-3.1661,-3.1661,-3.1661,-3.1661,-3.1661,-3.1661,-3.1661,-3.1661,-3.1661,-3.1661,-3.1661,-3.1661,-3.1661,-3.2125,-3.2125,-3.1661,-3.2525,-3.2957,-3.2957,-3.255,-3.2636,0.0,0.0,-2.7833,-2.6728,0.0,0.0,0.0,0.0,0.0,0.0,0.0,0.0,0.0,0.0,0.0,0.0,0.0,0.0,0.0,0.0,0.0,0.0,0.0,0.0,0.0,0.0,0.0,0.0,-2.9076,0.0,0.0,-2.9967,-3.0068,-3.0068,-3.0595,-3.1135,-3.1662,-3.2026,-3.2503,-3.3081,-3.3081,-3.3081,-3.3081,-3.3081,-3.3081,-3.3081,-3.3081,-3.3081,-3.3081,-3.3081,-3.3081,-3.3081,-3.3081,-3.3081,-3.3081,-3.3081,-3.3081,-3.3081,-3.3081,-3.3081,-3.3081,-3.3081,-3.2909,-3.2562,-3.1937,-3.1661,-3.1572,-3.105,-3.1139,-3.1496,-3.1572,-3.1661,-3.1661,-3.1661,-3.1661,-3.1661,-3.1661,-3.1661,-3.1661,-3.1661,-3.1661,-3.1661,-3.1661,-3.1661,-3.1661,-3.1661,-3.1661,-3.1661,-3.1661,-3.1661,-3.1661,-3.1661,-3.1661,-3.1661,-3.1661,-3.1661,-3.1661,-3.1661,-3.1661,-3.1661,-3.1661,-3.1661,-3.1849,-3.2125,-3.23,-3.2463,-3.2525,-3.2871,-3.3116,-3.3458,-3.33,-3.3471,-2.8448,-2.8662,0.0,-2.7795,-2.7846,0.0,-2.649,0.0,0.0,0.0,0.0,0.0,0.0,0.0,0.0,0.0,0.0,0.0,0.0,-2.4004,0.0,0.0,0.0,0.0,0.0,0.0,0.0,-2.8059,-2.8849,-2.9441,0.0,0.0,-2.9869,-2.9856,-3.0131,-3.0583,-3.111,-3.165,-3.2202,-3.2767,-3.298,-3.3081,-3.3081,-3.3081,-3.3081,-3.3081,-3.3081,-3.3081,-3.3081,-3.3081,-3.3081,-3.3081,-3.3081,-3.3081,-3.3081,-3.3081,-3.3081,-3.3081,-3.3081,-3.3081,-3.3081,-3.3081,-3.2822,-3.23,-3.1925,-3.1661,-3.152,-3.1454,-3.1461,-3.162,-3.1913,-3.1817,-3.1661,-3.1661,-3.1661,-3.1661,-3.1661,-3.1661,-3.1661,-3.1661,-3.1661,-3.1661,-3.1661,-3.1661,-3.1661,-3.1661,-3.1661,-3.1661,-3.1661,-3.1661,-3.1661,-3.1661,-3.1661,-3.1661,-3.1661,-3.1661,-3.1661,-3.1661,-3.1661,-3.1661,-3.1661,-3.1849,-3.2113,-3.2388,-3.2723,-3.2884,-3.3031,-3.3373,-3.3543,-3.3713,-3.3882,-3.4147]},{"header":{"parameterUnit":"m.s-1","parameterCategory":1,"la1":30.6,"la2":29.2853,"lo1":-89.7004,"lo2":-87.6739,"dy":0.0162,"dx":0.0183,"nx":112,"ny":82,"refTime":"2023-05-13T12:00:00:Z","depth":0,"parameterNumber":3,"parameterNumberName":"V-component_of_WINDS"},"data":[0.0,0.0,0.0,0.0,0.0,0.0,0.0,0.0,0.0,0.0,0.0,0.0,0.0,0.0,0.0,0.0,0.0,0.0,0.0,0.0,0.0,0.0,0.0,0.0,0.0,0.0,0.0,0.0,0.0,0.0,0.0,0.0,0.0,0.0,0.0,0.0,0.0,0.0,0.0,0.0,0.0,0.0,0.0,0.0,0.0,0.0,0.0,0.0,0.0,0.0,0.0,0.0,0.0,0.0,0.0,0.0,0.0,0.0,0.0,0.0,0.0,0.0,0.0,0.0,0.0,0.0,0.0,0.0,0.0,0.0,0.0,0.0,0.0,0.0,0.0,0.0,0.0,0.0,0.0,0.0,0.0,0.0,0.0,0.0,0.0,0.0,0.0,0.0,0.0,0.0,0.0,-2.3853,-2.5737,-2.6792,-2.6469,-2.6522,-2.563,-2.3356,0.0,0.0,0.0,0.0,0.0,0.0,0.0,0.0,0.0,0.0,0.0,0.0,0.0,0.0,0.0,0.0,0.0,0.0,0.0,0.0,0.0,0.0,0.0,0.0,0.0,0.0,0.0,0.0,0.0,0.0,0.0,0.0,0.0,0.0,0.0,0.0,0.0,0.0,0.0,0.0,0.0,0.0,0.0,0.0,0.0,0.0,0.0,0.0,0.0,0.0,0.0,0.0,0.0,0.0,0.0,0.0,0.0,0.0,0.0,0.0,0.0,0.0,0.0,0.0,0.0,0.0,0.0,0.0,0.0,0.0,0.0,0.0,0.0,0.0,0.0,0.0,0.0,0.0,0.0,0.0,0.0,0.0,0.0,0.0,0.0,0.0,0.0,0.0,0.0,0.0,0.0,0.0,0.0,0.0,0.0,0.0,0.0,0.0,0.0,0.0,0.0,0.0,0.0,0.0,-2.4429,-2.6015,-2.6488,-2.664,-2.6572,-2.6589,-2.5679,-2.3509,0.0,0.0,0.0,0.0,0.0,0.0,0.0,0.0,0.0,0.0,0.0,0.0,0.0,0.0,0.0,0.0,0.0,0.0,0.0,0.0,0.0,0.0,0.0,0.0,0.0,0.0,0.0,0.0,0.0,0.0,0.0,0.0,0.0,0.0,0.0,0.0,0.0,0.0,0.0,0.0,0.0,0.0,0.0,0.0,0.0,0.0,0.0,0.0,0.0,0.0,0.0,0.0,0.0,0.0,0.0,0.0,0.0,0.0,0.0,0.0,0.0,0.0,0.0,0.0,0.0,0.0,0.0,0.0,0.0,0.0,0.0,0.0,0.0,0.0,0.0,0.0,0.0,0.0,0.0,0.0,0.0,0.0,0.0,0.0,0.0,0.0,0.0,0.0,0.0,0.0,0.0,0.0,0.0,0.0,0.0,0.0,0.0,0.0,0.0,0.0,0.0,0.0,0.0,-2.3312,-2.4437,-2.6488,-2.6623,-2.6572,-2.6452,-2.6365,-2.5438,-2.332,-2.3119,0.0,0.0,0.0,0.0,0.0,0.0,0.0,0.0,0.0,0.0,0.0,0.0,0.0,0.0,0.0,0.0,0.0,0.0,0.0,0.0,0.0,0.0,0.0,0.0,0.0,0.0,0.0,0.0,0.0,0.0,0.0,0.0,0.0,0.0,0.0,0.0,0.0,0.0,0.0,0.0,0.0,0.0,0.0,0.0,0.0,0.0,0.0,0.0,0.0,0.0,0.0,0.0,0.0,0.0,0.0,0.0,0.0,0.0,0.0,0.0,0.0,0.0,0.0,0.0,0.0,0.0,0.0,0.0,0.0,0.0,0.0,0.0,0.0,0.0,0.0,0.0,0.0,0.0,0.0,0.0,0.0,0.0,0.0,0.0,0.0,0.0,0.0,0.0,0.0,0.0,0.0,0.0,0.0,0.0,0.0,0.0,0.0,0.0,0.0,0.0,0.0,0.0,-2.3734,-2.4831,-2.6522,-2.6623,-2.6537,-2.6382,-2.6279,-2.5299,-2.3183,-2.3103,0.0,0.0,0.0,0.0,0.0,0.0,0.0,0.0,0.0,0.0,0.0,0.0,0.0,0.0,0.0,0.0,0.0,0.0,0.0,0.0,0.0,0.0,0.0,0.0,0.0,0.0,0.0,0.0,0.0,0.0,0.0,0.0,0.0,0.0,0.0,0.0,0.0,0.0,0.0,0.0,0.0,0.0,0.0,0.0,0.0,0.0,0.0,0.0,0.0,0.0,0.0,0.0,0.0,0.0,0.0,0.0,0.0,0.0,0.0,0.0,0.0,0.0,0.0,0.0,0.0,0.0,0.0,0.0,0.0,0.0,0.0,0.0,0.0,0.0,0.0,0.0,0.0,0.0,0.0,0.0,0.0,0.0,0.0,0.0,0.0,0.0,0.0,0.0,0.0,0.0,0.0,0.0,0.0,0.0,0.0,0.0,0.0,0.0,0.0,0.0,0.0,0.0,-2.5609,-2.6522,-2.6674,-2.6623,-2.6589,-2.6485,-2.6537,-2.561,-2.332,-2.3347,0.0,0.0,0.0,0.0,0.0,0.0,0.0,0.0,0.0,0.0,0.0,0.0,0.0,0.0,0.0,0.0,0.0,0.0,0.0,0.0,0.0,0.0,0.0,0.0,0.0,0.0,0.0,0.0,0.0,0.0,0.0,0.0,0.0,0.0,0.0,0.0,0.0,0.0,0.0,0.0,0.0,0.0,0.0,0.0,0.0,0.0,0.0,0.0,0.0,0.0,0.0,0.0,0.0,0.0,0.0,0.0,0.0,0.0,0.0,0.0,0.0,0.0,0.0,0.0,0.0,0.0,0.0,0.0,0.0,0.0,0.0,0.0,0.0,0.0,0.0,0.0,0.0,0.0,0.0,0.0,0.0,0.0,0.0,0.0,0.0,0.0,0.0,0.0,0.0,0.0,0.0,0.0,0.0,0.0,0.0,0.0,0.0,0.0,0.0,0.0,0.0,0.0,-2.5647,-2.6877,0.0,-2.7859,-2.8218,-2.8287,-2.8374,-2.7402,-2.5026,0.0,0.0,0.0,0.0,0.0,0.0,0.0,0.0,0.0,0.0,0.0,0.0,0.0,0.0,0.0,0.0,0.0,0.0,0.0,0.0,0.0,0.0,0.0,0.0,0.0,0.0,0.0,0.0,0.0,0.0,0.0,0.0,0.0,0.0,0.0,0.0,0.0,0.0,0.0,0.0,0.0,0.0,0.0,0.0,0.0,0.0,0.0,0.0,0.0,0.0,0.0,0.0,0.0,0.0,0.0,0.0,0.0,0.0,0.0,0.0,0.0,0.0,0.0,0.0,0.0,0.0,0.0,0.0,0.0,0.0,0.0,0.0,0.0,0.0,0.0,0.0,0.0,0.0,0.0,0.0,0.0,0.0,0.0,0.0,0.0,0.0,0.0,0.0,0.0,0.0,0.0,0.0,0.0,0.0,0.0,0.0,0.0,0.0,0.0,0.0,0.0,0.0,-2.4663,-2.632,-2.7621,0.0,-2.8708,-2.9085,-2.9193,-2.9281,-2.8318,-2.5901,0.0,0.0,0.0,0.0,0.0,0.0,0.0,0.0,0.0,0.0,0.0,0.0,0.0,0.0,0.0,0.0,0.0,0.0,0.0,0.0,0.0,0.0,0.0,0.0,0.0,0.0,0.0,0.0,0.0,0.0,0.0,0.0,0.0,0.0,0.0,0.0,0.0,0.0,0.0,0.0,0.0,0.0,0.0,0.0,0.0,0.0,0.0,0.0,0.0,0.0,0.0,0.0,0.0,0.0,0.0,0.0,0.0,0.0,0.0,0.0,0.0,0.0,0.0,0.0,0.0,0.0,0.0,0.0,0.0,0.0,0.0,0.0,0.0,0.0,0.0,0.0,0.0,0.0,0.0,0.0,0.0,0.0,0.0,0.0,0.0,0.0,0.0,0.0,0.0,0.0,0.0,0.0,0.0,0.0,0.0,0.0,0.0,0.0,0.0,0.0,0.0,0.0,-2.6556,-2.8044,-2.8991,-2.8991,-2.9028,-2.8972,-2.8844,-2.8955,-2.8042,0.0,0.0,0.0,0.0,0.0,0.0,0.0,0.0,0.0,0.0,0.0,0.0,0.0,0.0,0.0,0.0,0.0,0.0,0.0,0.0,0.0,0.0,0.0,0.0,0.0,0.0,0.0,0.0,0.0,0.0,0.0,0.0,0.0,0.0,0.0,0.0,0.0,0.0,0.0,0.0,0.0,0.0,0.0,0.0,0.0,0.0,0.0,0.0,0.0,0.0,0.0,0.0,0.0,0.0,0.0,0.0,0.0,0.0,0.0,0.0,0.0,0.0,0.0,0.0,0.0,0.0,0.0,0.0,0.0,0.0,0.0,0.0,0.0,0.0,0.0,0.0,0.0,0.0,0.0,0.0,0.0,0.0,0.0,0.0,0.0,0.0,0.0,0.0,0.0,0.0,0.0,0.0,0.0,0.0,0.0,0.0,0.0,0.0,0.0,0.0,0.0,0.0,0.0,-2.6624,-2.8501,-2.9786,-2.9786,-3.0489,-3.0908,-3.0738,-3.1127,-3.0295,-2.7765,0.0,0.0,0.0,0.0,0.0,0.0,0.0,0.0,0.0,0.0,0.0,0.0,0.0,0.0,0.0,0.0,0.0,0.0,0.0,0.0,0.0,0.0,0.0,0.0,0.0,0.0,0.0,0.0,0.0,0.0,0.0,0.0,0.0,0.0,0.0,0.0,0.0,0.0,0.0,0.0,0.0,0.0,0.0,0.0,0.0,0.0,0.0,0.0,0.0,0.0,0.0,0.0,0.0,0.0,0.0,0.0,0.0,0.0,0.0,0.0,0.0,0.0,0.0,0.0,0.0,0.0,0.0,0.0,0.0,0.0,0.0,0.0,0.0,0.0,0.0,0.0,0.0,0.0,0.0,0.0,0.0,0.0,0.0,0.0,0.0,0.0,0.0,0.0,0.0,0.0,0.0,0.0,0.0,0.0,0.0,0.0,0.0,0.0,0.0,0.0,0.0,0.0,-2.7449,-2.9239,-3.0454,-3.0454,-3.1113,-3.15,-3.1402,-3.1726,-3.1065,-2.9015,0.0,0.0,0.0,0.0,0.0,0.0,0.0,0.0,0.0,0.0,0.0,0.0,0.0,0.0,0.0,0.0,0.0,0.0,0.0,0.0,0.0,0.0,0.0,0.0,0.0,0.0,0.0,0.0,0.0,0.0,0.0,0.0,0.0,0.0,0.0,0.0,0.0,0.0,0.0,0.0,0.0,0.0,0.0,0.0,0.0,0.0,0.0,0.0,0.0,0.0,0.0,0.0,0.0,0.0,0.0,0.0,0.0,0.0,0.0,0.0,0.0,0.0,0.0,0.0,0.0,0.0,0.0,0.0,0.0,0.0,0.0,0.0,0.0,0.0,0.0,0.0,0.0,0.0,0.0,0.0,0.0,0.0,0.0,0.0,0.0,0.0,0.0,0.0,0.0,0.0,0.0,0.0,0.0,0.0,0.0,0.0,0.0,0.0,0.0,0.0,0.0,0.0,-2.871,-3.0106,-3.1015,-3.1015,-3.1151,-3.123,-3.119,-3.1269,-3.0791,-2.9642,0.0,0.0,0.0,0.0,0.0,0.0,0.0,0.0,0.0,0.0,0.0,0.0,0.0,0.0,0.0,0.0,0.0,0.0,0.0,0.0,0.0,0.0,0.0,0.0,0.0,0.0,0.0,0.0,0.0,0.0,0.0,0.0,0.0,0.0,0.0,0.0,0.0,0.0,0.0,0.0,0.0,0.0,0.0,0.0,0.0,0.0,0.0,0.0,0.0,0.0,0.0,0.0,0.0,0.0,0.0,0.0,0.0,0.0,0.0,0.0,-2.3994,0.0,0.0,0.0,0.0,0.0,0.0,0.0,0.0,0.0,0.0,0.0,0.0,0.0,0.0,0.0,0.0,0.0,0.0,0.0,0.0,0.0,0.0,0.0,0.0,0.0,0.0,0.0,0.0,0.0,0.0,0.0,0.0,0.0,0.0,0.0,0.0,0.0,0.0,0.0,0.0,0.0,-2.8673,-3.0243,-3.1196,-3.1015,-3.1406,-3.1538,-3.123,-3.1634,-3.1345,-3.0065,-2.9676,0.0,0.0,0.0,0.0,0.0,0.0,0.0,0.0,0.0,0.0,0.0,0.0,0.0,0.0,0.0,0.0,0.0,0.0,0.0,0.0,0.0,0.0,0.0,0.0,0.0,0.0,0.0,0.0,0.0,0.0,0.0,0.0,0.0,0.0,0.0,0.0,0.0,0.0,0.0,0.0,0.0,0.0,0.0,0.0,0.0,0.0,0.0,0.0,0.0,0.0,0.0,0.0,0.0,0.0,0.0,0.0,0.0,0.0,0.0,0.0,-2.4303,0.0,0.0,0.0,0.0,0.0,0.0,0.0,0.0,0.0,0.0,0.0,0.0,0.0,0.0,0.0,0.0,0.0,0.0,0.0,0.0,0.0,0.0,0.0,0.0,0.0,0.0,0.0,0.0,0.0,0.0,0.0,0.0,0.0,0.0,0.0,0.0,0.0,0.0,0.0,0.0,-2.8649,-3.0128,-3.1095,-3.1015,-3.1308,-3.1423,-3.123,-3.15,-3.1367,-3.0688,-3.02,0.0,0.0,0.0,0.0,0.0,0.0,0.0,0.0,0.0,0.0,0.0,0.0,0.0,0.0,0.0,0.0,0.0,0.0,0.0,0.0,0.0,0.0,0.0,0.0,0.0,0.0,0.0,0.0,0.0,0.0,0.0,0.0,0.0,0.0,0.0,0.0,0.0,0.0,0.0,0.0,0.0,0.0,0.0,0.0,0.0,0.0,0.0,0.0,0.0,0.0,0.0,0.0,0.0,-2.7792,-2.8052,-2.7572,-2.8076,-2.8753,-2.9435,-2.7531,-2.6707,-2.6568,0.0,0.0,0.0,0.0,0.0,0.0,0.0,0.0,0.0,0.0,0.0,0.0,0.0,0.0,0.0,0.0,0.0,0.0,0.0,0.0,0.0,0.0,0.0,0.0,0.0,-2.8201,-2.8199,0.0,0.0,0.0,0.0,0.0,0.0,0.0,0.0,0.0,0.0,0.0,0.0,-2.8992,-3.0432,-3.1379,-3.1419,-3.1523,-3.1619,-3.1579,-3.1501,-3.1416,-3.1376,-3.07,-3.0073,0.0,0.0,0.0,0.0,0.0,0.0,0.0,0.0,0.0,0.0,0.0,0.0,0.0,0.0,0.0,0.0,0.0,0.0,0.0,0.0,0.0,0.0,0.0,0.0,0.0,0.0,0.0,0.0,0.0,0.0,0.0,0.0,-2.5558,-2.5544,0.0,0.0,0.0,0.0,0.0,0.0,0.0,0.0,0.0,0.0,0.0,0.0,0.0,-2.6632,-2.6152,-2.7818,-2.8924,-2.947,-3.0448,-3.1214,-3.1815,-3.187,-3.1976,-3.2097,-3.178,0.0,-2.8569,-2.7601,0.0,0.0,0.0,0.0,0.0,0.0,0.0,0.0,0.0,0.0,0.0,0.0,0.0,0.0,0.0,0.0,0.0,0.0,0.0,0.0,0.0,0.0,-2.9669,-3.0179,-3.0264,-3.0348,0.0,-2.8767,-2.68,-2.637,-2.708,0.0,0.0,0.0,0.0,0.0,0.0,0.0,-3.0403,-3.2165,-3.3177,-3.3026,-3.3202,-3.3308,-3.3119,-3.2672,-3.2338,-3.2178,-3.1444,-3.0729,-3.0049,-2.9644,0.0,0.0,0.0,0.0,0.0,0.0,0.0,0.0,0.0,0.0,0.0,0.0,0.0,0.0,0.0,0.0,0.0,0.0,0.0,0.0,0.0,0.0,0.0,0.0,0.0,0.0,0.0,0.0,0.0,-2.4771,-2.5236,-2.5411,-2.514,-2.4574,0.0,0.0,0.0,0.0,0.0,0.0,0.0,0.0,0.0,-2.8541,-2.9636,-3.0239,-3.0359,-3.1547,-3.2318,-3.2634,-3.3055,-3.3442,-3.3776,-3.3776,-3.3776,-3.3776,-3.3776,-3.316,-3.2053,-3.0369,-2.8928,-2.7716,0.0,0.0,0.0,0.0,-2.6016,-2.6094,-2.7343,-2.7769,0.0,-2.7341,0.0,0.0,0.0,0.0,0.0,0.0,0.0,0.0,0.0,0.0,-3.1312,-3.2003,-3.2212,-3.2415,-3.2779,-3.197,-3.0745,0.0,-2.9217,-2.8839,-2.759,0.0,0.0,0.0,0.0,0.0,-3.1283,-3.2471,-3.3059,-3.2614,-3.3069,-3.322,-3.2714,-3.2889,-3.2998,-3.2916,-3.2611,-3.229,-3.1985,-3.0982,-3.0012,0.0,0.0,0.0,0.0,0.0,0.0,0.0,0.0,0.0,0.0,0.0,0.0,0.0,0.0,0.0,0.0,0.0,0.0,0.0,0.0,0.0,0.0,0.0,0.0,0.0,0.0,0.0,0.0,-2.5111,-2.5737,-2.5466,-2.6224,-2.609,0.0,0.0,0.0,0.0,0.0,0.0,-2.9384,-2.9407,-3.0064,-3.1462,-3.2472,-3.3371,-3.4146,-3.4707,-3.5179,-3.5565,-3.5565,-3.5671,-3.5881,-3.5881,-3.5881,-3.5881,-3.5881,-3.5881,-3.5671,-3.3108,-3.1655,-3.0976,-3.0213,-2.9572,-2.9053,-2.8989,-2.9076,-2.9316,-2.9883,-3.0089,-3.0071,-2.9678,0.0,-2.911,-2.8442,0.0,0.0,0.0,0.0,-3.1073,-3.1803,-3.2218,-3.2613,-3.3254,-3.3414,-3.3498,-3.3663,-3.3705,-3.335,0.0,-3.1465,-3.0777,-2.9671,0.0,0.0,0.0,0.0,-3.1863,-3.234,-3.2944,-3.3121,-3.2596,-3.2933,-3.2959,-3.2387,-3.3001,-3.3381,-3.3381,-3.3364,-3.3406,-3.3406,-3.2357,-3.1527,-3.1041,0.0,0.0,0.0,0.0,0.0,0.0,0.0,0.0,0.0,0.0,0.0,0.0,0.0,0.0,0.0,0.0,0.0,0.0,0.0,0.0,0.0,0.0,0.0,0.0,0.0,0.0,0.0,0.0,0.0,-2.6263,-2.8275,0.0,0.0,0.0,0.0,-2.9314,-3.0639,-3.1755,-3.2449,-3.293,-3.3599,-3.4461,-3.453,-3.4934,-3.5688,-3.5741,-3.6496,-3.7935,-3.7935,-3.8339,-3.9076,-3.9076,-3.9076,-3.9076,-3.9076,-3.9076,-3.8848,-3.5776,-3.3652,-3.2301,-3.2179,-3.115,-2.9932,-3.1498,-3.2039,-3.2213,-3.3825,-3.4094,-3.3649,-3.311,-3.2399,-3.1841,-3.2481,-3.2367,0.0,0.0,-3.2976,-3.3564,-3.4152,-3.3847,-3.3478,-3.3922,-3.333,-3.284,-3.3539,-3.3012,-3.2683,0.0,-3.3642,-3.3213,-3.236,0.0,-3.1959,-3.1941,-3.2589,-3.3335,-3.3969,-3.4236,-3.4253,-3.4114,-3.351,-3.3091,-3.3057,-3.3211,-3.3287,-3.3287,-3.3339,-3.3406,-3.3406,-3.3339,-3.2949,-3.2239,-3.2138,0.0,0.0,0.0,0.0,0.0,0.0,0.0,0.0,0.0,0.0,0.0,0.0,0.0,0.0,0.0,0.0,0.0,0.0,0.0,0.0,0.0,0.0,0.0,0.0,0.0,0.0,0.0,0.0,-2.8803,-3.054,0.0,0.0,-3.1913,-3.307,-3.23,-3.444,-3.5742,-3.5721,-3.6618,-3.7167,-3.723,-3.7492,-3.7795,-3.8058,-3.8058,-3.8339,-3.8883,-3.8883,-3.9024,-3.9305,-3.9305,-3.9305,-3.9305,-3.9305,-3.9221,-3.8946,-3.7847,-3.7161,-3.6847,-3.6808,-3.6418,-3.5889,-3.5898,-3.5876,-3.5767,-3.5275,-3.4983,-3.4725,-3.4154,-3.3833,-3.3733,-3.3862,-3.438,-3.4931,-3.4926,-3.5658,-3.644,-3.6556,-3.6293,-3.6064,-3.6265,-3.6144,-3.5988,-3.586,-3.5891,-3.5972,-3.592,-3.4577,-3.338,-3.2925,-3.3597,-3.3829,-3.2899,-3.3805,-3.4633,-3.4856,-3.4952,-3.4767,-3.4281,-3.446,-3.4454,-3.3967,-3.4442,-3.4756,-3.4756,-3.48,-3.4844,-3.4844,-3.437,-3.3981,-3.3711,-3.3237,-3.2408,0.0,0.0,0.0,0.0,0.0,0.0,0.0,0.0,0.0,0.0,0.0,0.0,0.0,0.0,0.0,0.0,0.0,0.0,0.0,0.0,0.0,0.0,0.0,0.0,0.0,0.0,-3.0852,-3.0564,-3.2681,-3.3691,-3.2535,-3.4995,-3.6478,-3.6075,-3.7765,-3.87,-3.8436,-3.8922,-3.9113,-3.8919,-3.9147,-3.9568,-4.012,-4.0095,-4.0358,-4.0849,-4.0849,-4.0849,-4.0849,-4.0849,-4.0849,-4.0849,-4.0849,-4.0762,-4.0568,-4.0568,-4.0701,-4.0762,-3.9563,-3.9118,-3.9108,-3.8576,-3.8384,-3.8185,-3.7009,-3.6579,-3.6474,-3.5989,-3.5896,-3.5998,-3.5936,-3.6409,-3.6895,-3.672,-3.7303,-3.7818,-3.7449,-3.7434,-3.7451,-3.7451,-3.7517,-3.7533,-3.7086,-3.7319,-3.7466,-3.6816,-3.5735,-3.4857,-3.469,-3.5467,-3.5719,-3.4505,-3.5333,-3.6038,-3.5786,-3.5753,-3.5522,-3.5019,-3.5232,-3.5227,-3.474,-3.5217,-3.5577,-3.5577,-3.5577,-3.5622,-3.5622,-3.4895,-3.4489,-3.4489,-3.4015,-3.3288,-3.2307,0.0,0.0,0.0,0.0,0.0,0.0,0.0,0.0,0.0,0.0,0.0,0.0,0.0,0.0,0.0,0.0,0.0,0.0,0.0,0.0,0.0,0.0,0.0,-2.9211,-3.1256,-3.2564,-3.1554,-3.4648,-3.6426,-3.5329,-3.7618,-3.9528,-4.0364,-4.0482,-4.0491,-4.0456,-3.9846,-3.9529,-3.9629,-3.9504,-4.0207,-4.185,-4.1763,-4.2412,-4.3904,-4.3904,-4.3904,-4.3904,-4.3904,-4.3904,-4.3904,-4.3904,-4.3904,-4.3886,-4.384,-4.384,-4.3541,-4.0155,-3.892,-3.9068,-3.9343,-3.9434,-3.9464,-3.9085,-3.8981,-3.8964,-3.8639,-3.8594,-3.8639,-3.8799,-3.8453,-3.7989,-3.7895,-3.7865,-3.7658,-3.6936,-3.7137,-3.7451,-3.7352,-3.7236,-3.7119,-3.7051,-3.7051,-3.683,-3.6238,-3.7102,-3.786,-3.7713,-3.7696,-3.7509,-3.6924,-3.7337,0.0,-3.675,-3.6649,-3.6602,-3.6427,-3.5756,-3.5337,-3.5337,-3.5475,-3.5537,-3.5554,-3.5628,-3.5656,-3.5656,-3.4928,-3.4523,-3.4523,-3.4506,-3.4489,-3.4489,0.0,0.0,0.0,0.0,0.0,0.0,0.0,0.0,0.0,0.0,0.0,0.0,0.0,0.0,0.0,0.0,0.0,0.0,0.0,0.0,0.0,0.0,-3.3364,-3.2347,-3.4179,-3.594,-3.6759,-3.7821,-3.8831,-3.9779,-4.0607,-4.1063,-4.1111,-4.2427,-4.2812,-4.1875,-4.2969,-4.337,-4.2864,-4.282,-4.3076,-4.3589,-4.3589,-4.3756,-4.418,-4.418,-4.418,-4.418,-4.418,-4.4089,-4.3904,-4.3904,-4.3698,-4.3294,-4.3212,-4.313,-4.3078,-4.2631,-4.2439,-4.2323,-4.1873,-4.0874,-3.9676,-3.9016,-3.8843,-3.8755,-3.7691,-3.8023,-3.8711,-3.8242,-3.8224,-3.8452,-3.8874,-3.8889,-3.8768,-3.856,-3.8629,-3.8576,-3.8133,-3.7987,-3.7838,-3.7391,-3.76,-3.7767,-3.7163,-3.7656,-3.7998,-3.7336,-3.7203,-3.7285,-3.757,-3.7722,0.0,-3.757,-3.7537,-3.7334,-3.673,-3.6494,-3.6375,-3.6375,-3.6422,-3.6658,-3.7199,-3.6772,-3.6468,-3.6468,-3.5723,-3.5318,-3.5318,-3.4776,-3.4489,0.0,0.0,0.0,0.0,0.0,0.0,0.0,0.0,0.0,0.0,0.0,0.0,0.0,0.0,0.0,0.0,0.0,0.0,0.0,0.0,0.0,0.0,-3.4142,-3.5959,-3.6632,-3.7285,-3.8302,-3.9955,-4.0198,-4.083,-4.2316,-4.2605,-4.2853,-4.3236,-4.4177,-4.4452,-4.3707,-4.4407,-4.4657,-4.4271,-4.4226,-4.4385,-4.4839,-4.4767,-4.488,-4.5198,-4.5105,-4.5076,-4.5012,-4.5012,-4.4869,0.0,-4.4677,-4.453,-4.4213,-4.4163,-4.4078,0.0,0.0,0.0,0.0,0.0,-4.2288,-4.1272,-4.0741,-4.0645,-4.055,-3.9328,-3.9463,-4.0024,-3.9277,-3.9196,-3.9491,-3.9491,-3.9643,-3.964,-3.9069,-3.93,-3.9527,-3.8878,-3.8937,-3.8995,-3.8375,-3.8539,-3.8599,-3.798,-3.8375,0.0,-3.8084,-3.7958,-3.795,-3.797,-3.8452,-3.87,-3.8396,-3.8633,-3.865,-3.821,-3.8159,-3.8159,-3.8159,-3.7889,0.0,0.0,0.0,-3.711,-3.6789,-3.6349,0.0,0.0,0.0,-3.505,-3.5137,0.0,0.0,0.0,-3.377,-3.3634,0.0,0.0,0.0,0.0,0.0,0.0,0.0,0.0,0.0,0.0,0.0,0.0,0.0,0.0,0.0,0.0,-3.6914,-3.8564,-4.0976,-4.0314,-4.0131,-4.1771,-4.1967,-4.2493,-4.3723,-4.4022,-4.458,-4.5682,-4.564,-4.55,-4.5403,0.0,0.0,0.0,0.0,-4.4918,-4.5683,-4.5552,-4.5794,-4.6429,-4.6301,-4.6172,-4.6073,-4.6073,-4.5972,-4.5821,-4.5821,-4.5821,-4.577,-4.5718,-4.5718,-4.5528,-4.3597,-4.2963,-4.3233,-4.3467,-4.3447,-4.3294,-4.3062,0.0,0.0,-4.1987,-4.1753,-4.1737,-4.0951,-4.0704,-4.0512,-3.9902,-4.0084,-4.0204,-3.8916,-3.9393,-4.0055,-3.9439,-3.9688,-3.9918,-3.9439,-3.9314,-3.914,-3.8623,-3.898,-3.9393,-3.933,-3.9363,-3.9222,-3.856,-3.9511,-4.0087,-3.9445,-3.9851,-4.0172,-4.0087,0.0,0.0,-3.9952,-3.9377,-3.9039,-3.9106,-3.843,-3.7686,-3.6941,-3.6907,-3.6632,-3.6089,-3.6072,-3.6117,-3.6232,-3.638,-3.638,-3.6241,-3.4753,-3.4562,0.0,0.0,0.0,0.0,0.0,0.0,0.0,0.0,0.0,0.0,0.0,0.0,0.0,0.0,0.0,-3.4977,-3.7702,-4.0291,-4.1933,-4.225,-4.2629,-4.3454,-4.3315,-4.3911,-4.5825,-4.5423,-4.5184,-4.5532,-4.6036,-4.6037,-4.5428,-4.6141,0.0,-4.6194,-4.6194,-4.6265,-4.6407,-4.6377,-4.6495,-4.6731,0.0,0.0,-4.6495,-4.6495,-4.6235,-4.5786,-4.6038,-4.5854,-4.5476,-4.5353,-4.523,-4.5106,-4.4903,-4.4475,-4.3907,-4.3872,-4.3409,-4.2757,-4.2286,-4.2445,-4.2654,-4.1488,-4.1399,-4.1643,-4.1058,-4.0399,0.0,-4.0399,-4.01,-3.9626,-3.9487,-3.9549,-3.9408,-3.8803,-3.8738,-3.8803,-3.8673,-3.8688,-3.8623,-3.8508,-3.8623,-3.8688,-3.8688,-3.9951,-4.0895,-4.0729,-4.1355,-4.1813,-4.1677,-4.1271,-4.0747,-4.0138,-3.9546,-3.9208,-3.9208,-3.9073,-3.9242,-3.9834,-3.9191,-3.8464,-3.7719,-3.7686,-3.7665,-3.7636,-3.7636,-3.7729,-3.7837,-3.794,-3.795,-3.7916,-3.6492,-3.6216,0.0,0.0,0.0,0.0,0.0,0.0,0.0,0.0,0.0,0.0,0.0,-3.0989,0.0,0.0,-3.6523,-3.7492,-3.9536,-4.1511,-4.2972,-4.3462,-4.3914,-4.4526,-4.4563,-4.5004,-4.6194,-4.5997,-4.5838,-4.6092,-4.6549,-4.6672,-4.6355,-4.673,-4.6898,-4.6778,-4.6795,-4.6795,-4.6795,-4.6731,-4.6731,-4.6795,-4.659,-4.6429,-4.6284,-4.6284,-4.6038,-4.5615,-4.5752,-4.5667,-4.5371,-4.5318,-4.5194,-4.5123,-4.523,-4.4953,-4.4431,-4.4431,-4.3888,-4.3076,-4.2796,-4.2739,-4.2591,-4.1606,-4.1468,-4.1634,-4.0927,-4.069,-4.0674,-4.0674,-4.0626,-4.0546,-4.0206,-4.0025,-3.9893,-3.9575,-3.9524,-3.9524,-3.9524,-3.9524,-3.9524,-3.9524,-3.9761,-3.9878,-3.9575,-4.0864,-4.1586,-4.0496,-4.0869,-4.1286,-4.1286,-4.0972,-4.0608,-4.0244,-3.988,-3.9516,-3.9169,-3.8858,-3.8808,-3.9156,-3.9137,-3.8992,-3.8656,-3.8939,-3.9013,-3.8794,-3.8794,-3.867,-3.8431,-3.8504,-3.8487,-3.847,-3.7801,-3.7646,0.0,0.0,0.0,0.0,0.0,0.0,0.0,0.0,-2.9161,-3.0835,-3.2239,-3.3539,-3.461,-3.6508,-3.8538,-4.0315,-4.1279,-4.2326,-4.3888,-4.4242,-4.4652,-4.5341,-4.5533,-4.5805,-4.6308,-4.6295,-4.6372,-4.6699,-4.6863,-4.6989,-4.7169,-4.6916,-4.6842,-4.6952,-4.6888,-4.6888,-4.6842,-4.6749,-4.6684,-4.6731,-4.6542,-4.6332,-4.6038,-4.5988,-4.5752,-4.5423,-4.5423,-4.5423,-4.5423,-4.5423,-4.5318,-4.5247,-4.5247,-4.5086,-4.4886,-4.4978,-4.4429,-4.3571,-4.3571,-4.3333,-4.2909,-4.2029,-4.1836,-4.1852,-4.0972,-4.1091,-4.1409,-4.0715,-4.1039,-4.1409,-4.0715,-4.0524,-4.0524,-4.0524,-4.0524,-4.0524,-4.0524,-4.0524,-4.0524,-4.0524,-4.0972,-4.1142,-4.0578,-4.1409,-4.1566,-4.0072,-4.0318,-4.076,-4.076,-4.0571,-4.049,-4.049,-4.0361,-4.0054,-3.9531,-3.9023,-3.8634,-3.8489,-3.8952,-3.9214,-3.9226,-3.9679,-3.9833,-3.9546,-3.9546,-3.9333,-3.8872,-3.8872,-3.8826,-3.8733,-3.8733,-3.8757,-2.266,-2.3985,0.0,-2.7097,-2.8095,-2.9414,0.0,0.0,-3.2391,-3.4556,-3.5673,-3.6547,-3.7356,-3.8562,-3.9898,-4.1253,-4.1817,-4.2688,-4.453,-4.4764,-4.511,-4.6123,-4.59,-4.6119,-4.7493,-4.6874,-4.6513,-4.6845,-4.6525,-4.6398,-4.6666,-4.6637,-4.6684,-4.6842,-4.659,-4.6381,-4.6284,-4.6284,-4.6332,-4.6429,-4.6186,-4.6087,-4.6186,-4.5938,-4.5649,-4.5423,-4.5423,-4.5423,-4.5423,-4.5423,-4.5371,-4.5371,-4.5371,-4.53,-4.5123,-4.5032,-4.4558,-4.3956,-4.3956,-4.3898,-4.3722,-4.2909,-4.2661,-4.2537,-4.1641,-4.1024,-4.0646,-4.073,-4.073,-4.0646,-4.073,-4.0662,-4.0524,-4.0524,-4.0524,-4.0524,-4.0524,-4.0524,-4.0524,-4.0524,-4.0593,-4.0593,-4.0524,-4.0646,-4.0842,-4.1188,-4.1853,-4.2278,-4.2278,-4.1682,-4.1294,-4.1294,-4.0667,-4.0248,-4.0167,-4.0086,-3.9839,-3.9208,-3.9217,-3.9056,-3.8645,-3.8684,-3.9016,-3.975,-3.975,-3.98,-3.9849,-3.9849,-3.9615,-3.9116,-3.9116,-3.9311,-2.6286,0.0,0.0,0.0,-3.0683,-3.1884,-3.3119,-3.3829,-3.4742,-3.6569,-3.755,-3.8255,-3.8828,-4.032,-4.1544,0.0,-4.2875,-4.3934,-4.4513,-4.4733,-4.5182,-4.624,-4.5914,-4.6005,-4.708,-4.6346,-4.5819,-4.5903,-4.5887,-4.5938,-4.6137,-4.6186,-4.6284,-4.6447,-4.6332,-4.6332,-4.6429,-4.6429,-4.6495,-4.6637,-4.6429,-4.6235,-4.6087,-4.5887,-4.5649,-4.5423,-4.5423,-4.5423,-4.5423,-4.5423,-4.5423,-4.5423,-4.5423,-4.5371,-4.53,-4.5194,-4.4652,-4.3939,-4.3555,-4.3136,-4.2707,-4.1997,-4.1835,-4.1769,-4.139,-4.1003,-4.0662,-4.0799,-4.0662,-4.0524,-4.0593,-4.0524,-4.0524,-4.0524,-4.0524,-4.0524,-4.0524,-4.0524,-4.0524,-4.0524,-4.0524,-4.0524,-4.0524,-4.0524,-4.0593,-4.0904,-4.1158,-4.1343,-4.1343,-4.1091,-4.0852,-4.0852,-4.0224,-3.9816,-3.9816,-3.9802,-3.9684,-3.9457,-4.0079,-4.0466,-4.0321,-4.0667,-4.1059,-4.1494,-4.1121,-4.0832,-4.0543,-4.0474,-4.016,-3.9622,-3.9939,-4.0178,-2.8266,0.0,0.0,-3.1529,-3.3085,-3.4387,-3.459,-3.5487,-3.662,-3.7939,-3.8633,-3.9205,-3.9983,-4.1276,0.0,-4.2573,-4.3657,-4.4538,-4.4763,-4.4816,-4.5159,-4.6067,-4.5819,-4.5768,-4.6358,-4.5852,-4.5441,-4.5283,-4.5477,-4.5735,-4.5887,-4.6087,-4.6186,-4.6284,-4.6235,-4.6235,-4.6381,-4.661,-4.6764,-4.6878,-4.6945,-4.6835,-4.6584,-4.6378,-4.6239,-4.6061,-4.6061,-4.5941,-4.5751,-4.5751,-4.563,-4.5423,-4.5423,-4.5247,-4.5052,-4.5177,-4.4635,-4.3806,-4.3257,-4.2629,-4.1965,-4.1272,-4.1153,-4.1288,-4.1034,-4.0882,-4.0799,-4.073,-4.0662,-4.0593,-4.0524,-4.0524,-4.0524,-4.0524,-4.0524,-4.0524,-4.0524,-4.0524,-4.0524,-4.0524,-4.0524,-4.0524,-4.0524,-4.0524,-4.0524,-4.0524,-4.0524,-4.0524,-4.0524,-4.0524,-4.0524,-4.0524,-4.0093,-3.9801,-3.9801,-3.9773,-3.9706,-3.9581,-4.0405,-4.0847,-4.0869,-4.1302,-4.1638,-4.1913,-4.1499,-4.1054,-4.0586,-4.0586,-4.0236,-3.968,-4.0081,-4.0248,0.0,0.0,-3.0632,-3.2797,-3.503,-3.6874,-3.7601,-3.7804,-3.8058,-3.8802,-3.8971,-3.9428,-4.0865,-4.1222,-4.1903,-4.399,-4.3818,-4.3983,-4.5545,-4.5319,-4.5213,-4.5868,-4.5632,-4.5494,0.0,-4.5751,-4.5684,-4.5424,-4.5632,-4.5887,-4.6186,-4.6429,-4.659,-4.659,-4.6332,-4.6087,-4.5837,-4.6603,-4.7004,-4.7004,-4.77,-4.8066,-4.8012,-4.7741,-4.7648,-4.7648,-4.7648,-4.7234,-4.6562,-4.6562,-4.6113,-4.5423,-4.5423,-4.4927,-4.4305,-4.4927,-4.4468,-4.3512,-4.335,-4.2863,-4.2126,-4.1107,-4.1241,-4.1607,-4.0783,-4.0662,-4.073,-4.0593,-4.0662,-4.073,-4.0524,-4.0524,-4.0524,-4.0524,-4.0524,-4.0524,-4.0524,-4.0524,-4.0524,-4.0524,-4.0524,-4.0524,-4.0524,-4.0524,-4.0524,-4.0524,-4.0524,-4.0524,-4.0524,-4.0524,-4.0524,-4.0524,-4.0509,-4.0493,-4.0493,-4.0478,-4.0254,-3.9792,-3.9612,-3.9435,-3.9091,-3.8963,-3.9282,-3.9966,-3.995,-3.9934,-3.9934,-3.9934,-3.9642,-3.9029,-3.9044,-3.906,0.0,0.0,-3.344,-3.5199,-3.6603,-3.7719,-3.8464,-3.8633,-3.8836,-3.9563,-3.9326,-3.914,-3.9648,-4.0813,-4.1833,-4.2194,-4.363,-4.4797,-4.5089,-4.5086,-4.5123,-4.5407,-4.5389,0.0,0.0,0.0,0.0,-4.5032,-4.5177,-4.5336,-4.5546,-4.5701,-4.6064,-4.6586,-4.65,-4.6743,-4.7335,-4.7613,-4.7752,-4.7858,-4.7906,-4.7919,-4.7827,-4.7717,-4.7717,-4.7717,-4.7717,-4.7524,-4.7189,-4.7189,-4.6962,-4.6576,-4.6576,-4.6447,-4.6187,-4.5882,-4.5,-4.3838,-4.33,-4.2645,-4.1965,-4.1272,-4.1153,-4.1272,-4.0966,-4.0882,-4.0799,-4.073,-4.0662,-4.0593,-4.0524,-4.0524,-4.0524,-4.0524,-4.0524,-4.0524,-4.0524,-4.0524,-4.0524,-4.0524,-4.0524,-4.0524,-4.0524,-4.0524,-4.0524,-4.0524,-4.0524,-4.0524,-4.0524,-4.0524,-4.0524,-4.0524,-4.0524,-4.0524,-4.0524,-4.1343,-4.1724,-4.163,-4.2366,-4.2828,-4.2716,-4.2657,-4.2522,-4.231,-4.2045,-4.1639,-4.116,-4.1188,-4.1067,-4.0871,-4.0896,-4.0781,-3.216,-3.3676,-3.4996,-3.706,-3.7939,-3.8481,-3.9208,-3.9377,-3.9512,-3.9986,-3.9292,-3.8768,-3.9342,-4.0487,-4.1235,-4.1002,-4.2826,-4.4283,-4.4192,-4.4228,-4.4523,-4.5178,-4.5371,0.0,0.0,0.0,0.0,-4.4886,-4.5032,-4.5177,-4.5336,-4.577,-4.6273,-4.674,-4.7017,-4.7116,-4.7107,-4.7713,-4.8183,-4.8515,-4.8622,-4.8584,-4.8528,-4.8528,-4.8528,-4.8528,-4.8471,-4.8203,-4.7906,-4.7849,-4.7414,-4.6835,-4.6835,-4.6447,-4.5929,-4.5744,-4.4754,-4.3489,-4.3072,-4.235,-4.1525,-4.107,-4.0898,-4.0898,-4.0898,-4.0882,-4.0799,-4.073,-4.0662,-4.0593,-4.0524,-4.0524,-4.0524,-4.0524,-4.0524,-4.0524,-4.0524,-4.0524,-4.0524,-4.0524,-4.0524,-4.0455,-4.0331,-4.0176,-4.0176,-4.0331,-4.0331,-4.0331,-4.0455,-4.0524,-4.0524,-4.0524,-4.0524,-4.0524,-4.0524,-4.1276,-4.1836,-4.1901,-4.2661,-4.3185,-4.3246,-4.3185,-4.2925,-4.2458,-4.2145,-4.1811,-4.1326,-4.1357,-4.1357,-4.1342,-4.1336,-4.1292,-3.3964,-3.4624,-3.5419,-3.8278,-3.9022,-3.9225,-3.9968,-4.0121,-4.0054,-3.9986,-3.8836,-3.8292,0.0,0.0,-4.0154,-4.0368,-4.1682,-4.2756,-4.3049,-4.3048,-4.3615,0.0,0.0,0.0,0.0,0.0,0.0,-4.5032,0.0,-4.5459,-4.565,-4.6621,-4.7177,-4.7091,-4.7751,-4.7245,-4.5496,-4.7005,-4.8206,-4.8883,-4.959,-4.9935,-4.9935,-4.9935,-4.9935,-4.9935,-4.9725,-4.9238,-4.8603,-4.8504,-4.7556,-4.6185,-4.6185,-4.5275,-4.405,-4.4639,-4.3913,-4.2685,-4.2795,-4.1983,-4.0839,-4.0701,-4.0632,-4.0632,-4.0632,-4.0754,-4.0777,-4.0586,-4.0693,-4.073,-4.0524,-4.0524,-4.0524,-4.0524,-4.0524,-4.0524,-4.0524,-4.0455,-4.0455,-4.0455,-4.0455,-4.0316,-3.9996,-3.9681,-3.9523,-3.9925,-3.9996,-4.0137,-4.0455,-4.0524,-4.0524,-4.0524,-4.0524,-4.0524,-4.0524,-4.0524,-4.0662,-4.0783,-4.0715,-4.0715,-4.0851,-4.0715,-4.0593,-4.0524,-4.0593,-4.0593,-4.0524,-4.0593,-4.0593,-4.0593,-4.0593,-4.0593,-3.4986,-3.6569,-3.8072,-3.8916,-3.951,-3.9901,-4.0204,-4.0188,-3.9766,-3.8684,-3.775,-3.6944,0.0,0.0,0.0,-3.9421,-4.2107,0.0,-4.4468,-4.4557,0.0,0.0,0.0,-4.5371,-4.5371,-4.5371,0.0,0.0,-4.5247,-4.5541,-4.6322,-4.6583,-4.7259,-4.8311,-4.8049,-4.792,-4.796,-4.7914,-4.8199,-4.8883,-4.9084,-4.9161,-4.9161,-4.9161,-4.9161,-4.9161,-4.8589,-4.8709,-4.9197,-4.8663,-4.8015,-4.745,-4.745,-4.6865,-4.5987,-4.5569,-4.4914,-4.4118,-4.3588,-4.2819,-4.215,-4.2078,-4.2078,-4.2078,-4.2078,-4.1724,-4.1395,-4.1324,-4.094,-4.0593,-4.0524,-4.0524,-4.0524,-4.0524,-4.0524,-4.0524,-4.0524,-4.0331,-4.0137,-4.0137,-3.9895,-3.9666,-3.9595,-3.9451,-3.9451,-3.9523,-3.9523,-3.9809,-4.0385,-4.0524,-4.0524,-4.0524,-4.0524,-4.0524,-4.0524,-4.0956,-4.1276,-4.1343,-4.1771,-4.2013,-4.2094,-4.2029,-4.1771,-4.1276,-4.1409,-4.1409,-4.1276,-4.1409,-4.1656,-4.1949,-4.1656,-4.1409,-3.6287,-3.7835,-3.9171,-3.9493,-3.9883,-4.0018,-3.9374,-3.9172,-3.8635,-3.7259,-3.6028,0.0,0.0,0.0,0.0,0.0,0.0,0.0,-4.411,-4.4215,-4.4561,0.0,-4.5423,0.0,-4.5423,-4.5423,-4.5423,0.0,-4.53,-4.5644,-4.6562,-4.6924,-4.7503,-4.8333,-4.8303,-4.8214,-4.7982,-4.7227,-4.7227,-4.7982,-4.8319,-4.8446,-4.8446,-4.8446,-4.8446,-4.8446,0.0,-4.8063,-4.8526,-4.8015,-4.7489,-4.6932,-4.6932,-4.6448,-4.5769,-4.5348,-4.5039,-4.471,-4.4226,-4.3846,-4.3519,-4.2802,-4.2602,-4.2602,-4.2602,-4.234,-4.2048,-4.2048,-4.1755,-4.137,-4.1078,-4.1001,-4.0924,-4.0601,-4.0401,-4.0261,-4.0261,-3.998,-3.9768,-3.9768,-3.9523,-3.9364,-3.9364,-3.9364,-3.9451,-3.961,-3.9523,-3.9666,-4.0385,-4.0231,-4.0021,-4.0021,-4.0176,-4.0261,-4.0261,-4.0768,-4.1091,-4.1091,-4.1393,-4.1641,-4.1641,-4.1641,-4.1459,-4.1091,-4.1158,-4.1158,-4.1091,-4.1158,-4.1343,-4.1656,-4.1343,-4.1158,-3.7581,-3.8659,-3.9506,-4.0018,-4.0238,-3.9865,-3.8292,-3.7776,-3.727,-3.5735,0.0,-3.3414,-3.4294,0.0,-3.7466,-3.7398,0.0,-4.2877,-4.322,-4.3424,-4.3958,-4.5268,-4.5423,-4.5423,-4.5423,-4.5423,-4.5423,-4.5423,-4.5404,-4.5746,-4.6574,-4.7331,-4.7694,-4.7676,-4.8298,-4.7982,-4.6689,-4.5938,-4.5922,-4.6811,-4.7422,-4.7754,-4.7754,-4.7754,-4.7754,-4.7754,-4.7473,0.0,-4.729,-4.7085,-4.648,-4.5697,-4.5697,-4.529,-4.4572,-4.4572,-4.4723,-4.4799,-4.4648,-4.4723,-4.4613,-4.3322,-4.2879,-4.2879,-4.2879,-4.2802,-4.274,-4.274,-4.2679,-4.2479,-4.1878,-4.1663,-4.1447,-4.0816,-4.0338,-4.0066,-4.0066,-3.9753,-3.9451,-3.9436,-3.9364,-3.9364,-3.9364,-3.9364,-3.9523,-3.9783,-3.961,-3.958,-4.0161,-3.9809,-3.9523,-3.9508,-3.9839,-3.9996,-4.0066,-4.0261,-4.0455,-4.0524,-4.0524,-4.0524,-4.0524,-4.0524,-4.0524,-4.0524,-4.0524,-4.0524,-4.0524,-4.0524,-4.0524,-4.0524,-4.0524,-4.0524,-3.8069,-3.9191,-4.0314,-4.0402,-4.0387,-3.9865,-3.8258,-3.7807,0.0,0.0,0.0,-3.2883,-3.1871,-3.3651,0.0,-3.7694,0.0,0.0,0.0,0.0,-4.513,0.0,0.0,0.0,0.0,0.0,0.0,0.0,0.0,-4.5818,-4.6547,-4.7327,-4.7508,-4.6992,-4.7071,-4.6759,-4.5992,-4.5809,-4.6134,-4.6811,-4.6949,-4.7017,-4.7017,-4.7017,-4.7017,-4.6949,-4.6388,0.0,-4.7239,-4.6673,-4.6143,-4.5697,-4.5697,-4.529,-4.4572,-4.4572,-4.4648,-4.4663,-4.4572,-4.4648,-4.4617,-4.431,-4.4233,-4.4233,-4.4233,-4.3848,-4.3402,-4.3402,-4.3017,-4.2586,-4.2463,-4.2017,-4.1571,-4.1447,-4.0885,-4.0385,-4.0385,-4.0121,-3.9768,-3.9451,-3.9364,-3.9364,-3.9364,-3.9364,-3.9292,-3.9017,-3.922,-3.9307,-3.9147,-3.9538,-3.998,-4.0246,-4.0121,-4.0137,-4.0401,-4.0191,-4.0191,-4.0455,-4.0524,-4.0524,-4.0524,-4.0524,-4.0524,-4.0524,-4.0524,-4.0524,-4.0524,-4.0524,-4.0524,-4.0524,-4.0524,-4.0524,-3.8167,-3.9371,-4.0583,-4.0436,-4.0387,-3.9693,-3.7054,0.0,0.0,0.0,0.0,-3.0784,-3.0561,0.0,0.0,0.0,0.0,0.0,0.0,0.0,0.0,0.0,0.0,0.0,0.0,0.0,0.0,0.0,0.0,-4.5881,-4.6558,-4.7041,-4.7111,-4.6811,-4.6442,-4.6136,-4.5807,-4.5807,-4.5936,-4.6317,-4.6317,-4.6317,-4.6317,-4.6317,-4.6317,-4.6246,-4.5864,0.0,-4.6182,-4.5713,-4.5437,-4.5142,-4.5142,-4.4933,-4.4572,-4.4572,-4.4648,-4.4723,-4.4723,-4.4814,-4.4889,-4.4814,-4.4723,-4.4723,-4.4648,-4.4432,-4.4245,-4.417,-4.3864,-4.3556,-4.3202,-4.2863,-4.254,-4.2202,-4.127,-4.0304,-3.9742,-3.9307,-3.9031,-3.8782,-3.8929,-3.9075,-3.9075,-3.9451,-3.961,-3.9466,-3.961,-3.9681,-3.9666,-3.9839,-3.998,-3.995,-3.998,-4.0066,-4.0191,-4.0261,-4.0331,-4.0455,-4.0524,-4.0524,-4.0524,-4.0524,-4.0524,-4.0524,-4.0524,-4.0524,-4.0524,-4.0524,-4.0524,-4.0524,-4.0524,-4.0524,-3.8174,-3.9251,-4.0214,-4.012,-4.0221,-3.9323,-3.5393,-3.4347,0.0,0.0,0.0,-2.8706,0.0,0.0,0.0,0.0,0.0,0.0,0.0,0.0,0.0,0.0,0.0,0.0,0.0,0.0,0.0,0.0,0.0,0.0,-4.6625,-4.6584,-4.6566,-4.6566,-4.6048,-4.5807,-4.5807,-4.5807,-4.5807,-4.5807,-4.5807,-4.5807,-4.5807,-4.5807,-4.5807,-4.5807,-4.5662,0.0,0.0,-4.5114,-4.4889,-4.4739,-4.4739,-4.4739,-4.4739,-4.4739,-4.4814,-4.4964,-4.4874,-4.4964,-4.5129,-4.4889,-4.4874,-4.4874,-4.4648,-4.4723,-4.4799,-4.4648,-4.4572,-4.4449,-4.3925,-4.3679,-4.3402,-4.2594,-4.1379,-4.0129,-3.9313,-3.8737,-3.8501,-3.8501,-3.8708,-3.8929,-3.8929,-3.9466,-3.9839,-3.9768,-3.9854,-4.0066,-4.0246,-4.0191,-3.998,-3.9666,-3.9839,-3.9996,-4.0066,-4.0261,-4.0401,-4.0539,-4.0524,-4.0524,-4.0524,-4.0524,-4.0524,-4.0524,-4.0524,-4.0524,-4.0524,-4.0524,-4.0524,-4.0524,-4.0524,-4.0524,-3.7957,-3.8649,-3.8824,-3.9256,-3.9629,-3.8589,-3.3725,0.0,0.0,-2.8582,-2.7835,-2.7835,-2.7916,0.0,0.0,0.0,0.0,0.0,0.0,0.0,0.0,0.0,0.0,0.0,0.0,0.0,0.0,0.0,0.0,0.0,-4.6705,-4.6253,-4.5864,-4.5864,-4.5807,-4.5807,-4.5807,-4.5807,-4.5807,-4.5807,-4.5807,-4.5807,-4.5807,-4.5807,-4.5807,-4.5807,-4.5807,0.0,0.0,-4.5442,-4.5368,-4.5129,-4.5129,-4.5129,-4.5129,-4.5129,-4.5145,-4.5129,-4.4964,-4.4874,-4.4874,-4.4723,-4.4723,-4.4874,-4.4648,-4.4572,-4.4648,-4.4572,-4.4572,-4.4572,-4.4495,-4.4033,-4.3313,-4.2254,-4.1128,-4.0248,-4.0188,-3.971,-3.9292,-3.9292,-3.9292,-3.9364,-3.9364,-3.9379,-3.9307,-3.8943,-3.9553,-3.9854,-3.9523,-4.0021,-4.0455,-4.0385,-4.0137,-4.0137,-4.047,-4.0207,-4.0207,-4.0455,-4.0524,-4.0524,-4.0524,-4.0524,-4.0524,-4.0524,-4.0524,-4.0524,-4.0524,-4.0524,-4.0524,-4.0524,-4.0524,-4.0524,-3.6348,-3.7233,-3.7887,-3.8363,-3.7786,-3.6452,-3.4104,0.0,0.0,-2.8017,-2.7032,-2.6646,-2.6662,0.0,0.0,0.0,0.0,0.0,0.0,0.0,0.0,0.0,0.0,0.0,0.0,0.0,0.0,0.0,0.0,0.0,-4.6175,-4.5936,-4.5807,-4.5807,-4.5807,-4.5807,-4.5807,-4.5807,-4.5807,-4.5807,-4.5807,-4.5807,-4.5807,-4.5807,-4.5807,-4.5807,-4.5662,0.0,0.0,-4.5368,-4.5294,-4.522,-4.522,-4.522,-4.522,-4.522,-4.522,-4.522,-4.5129,-4.5055,-4.5055,-4.4889,-4.4799,-4.4874,-4.4648,-4.4648,-4.4723,-4.4648,-4.4435,-4.4205,-4.4205,-4.3837,-4.3227,-4.2333,-4.1652,-4.0929,-4.0158,-3.9653,-3.9134,-3.8797,-3.8708,-3.8708,-3.8708,-3.8855,-3.9002,-3.8855,-3.9394,-3.9768,-3.961,-4.0036,-4.0401,-4.0401,-4.0331,-4.0331,-4.0455,-4.0401,-4.0331,-4.0455,-4.0524,-4.0524,-4.0524,-4.0524,-4.0524,-4.0524,-4.0524,-4.0524,-4.0524,-4.0524,-4.0524,-4.0524,-4.0524,-4.0524,-3.4906,-3.5861,-3.6635,-3.715,-3.6024,-3.4526,0.0,0.0,-2.893,-2.7164,-2.6225,-2.5691,-2.5529,-2.6262,0.0,0.0,0.0,-3.373,0.0,0.0,0.0,0.0,0.0,0.0,0.0,0.0,0.0,0.0,0.0,0.0,0.0,-4.5807,-4.5807,-4.5807,-4.5807,-4.5807,-4.5807,-4.5807,-4.5807,-4.5807,-4.5807,-4.5807,-4.5807,-4.5807,-4.5807,-4.5807,-4.5662,0.0,0.0,-4.5442,-4.5368,-4.5368,-4.5368,-4.5368,-4.5368,-4.5368,-4.5368,-4.5368,-4.522,-4.522,-4.5145,-4.4889,-4.4799,-4.4799,-4.4648,-4.4723,-4.4723,-4.4511,-4.4127,-4.3817,-4.3817,-4.3503,-4.2971,-4.251,-4.1927,-4.1234,-4.0162,-3.9551,-3.9,-3.8333,-3.8202,-3.8202,-3.8202,-3.8427,-3.8634,-3.8634,-3.9162,-3.9466,-3.9466,-3.9824,-4.0121,-4.0207,-4.0261,-4.0401,-4.0455,-4.0524,-4.0524,-4.0524,-4.0524,-4.0524,-4.0524,-4.0524,-4.0524,-4.0524,-4.0524,-4.0524,-4.0524,-4.0524,-4.0524,-4.0524,-4.0524,-4.0524,-3.3892,-3.459,-3.4904,-3.5588,-3.4743,-3.3163,0.0,0.0,-2.759,-2.5705,-2.5318,-2.5102,-2.4441,-2.5567,-2.6554,-2.6423,-2.9358,0.0,0.0,0.0,0.0,0.0,0.0,0.0,0.0,0.0,0.0,0.0,0.0,0.0,0.0,-4.5807,-4.5807,-4.5807,-4.5807,-4.5807,-4.5807,-4.5807,-4.5807,-4.5807,-4.5807,-4.5807,-4.5807,-4.5807,-4.5807,0.0,0.0,0.0,0.0,-4.5807,-4.5807,-4.5807,-4.5807,-4.5807,-4.5807,-4.5807,-4.5807,-4.5735,-4.5368,-4.522,-4.5145,-4.4739,-4.4572,-4.4572,-4.4572,-4.4572,-4.4511,-4.4127,-4.366,-4.3329,-4.3329,-4.301,-4.2688,-4.2688,-4.188,-4.0916,-4.0234,-3.9625,-3.9,-3.8333,-3.8202,-3.8202,-3.8202,-3.8202,-3.8202,-3.8202,-3.8723,-3.9017,-3.8855,-3.9307,-3.9768,-3.9996,-3.9996,-4.0137,-4.0455,-4.0524,-4.0524,-4.0524,-4.0524,-4.0524,-4.0524,-4.0524,-4.0524,-4.0524,-4.0524,-4.0524,-4.0524,-4.0524,-4.0524,-4.0524,-4.0524,-4.0524,-2.9831,-3.0793,-3.1435,-3.2195,-3.1065,-2.988,-3.0425,0.0,-2.6505,-2.6145,-2.5641,-2.5127,-2.4608,-2.5408,-2.6382,-2.6995,-2.9245,0.0,0.0,0.0,0.0,0.0,0.0,0.0,0.0,0.0,0.0,0.0,0.0,0.0,0.0,-4.5807,-4.5807,-4.5807,-4.5807,-4.5807,-4.5807,-4.5807,-4.5807,-4.5807,-4.5807,-4.5807,-4.5807,-4.5807,-4.5807,0.0,0.0,0.0,0.0,-4.5807,-4.5807,-4.5807,-4.5807,-4.5807,-4.5807,-4.5807,-4.5735,-4.5589,-4.5294,-4.5129,-4.4964,-4.4663,-4.4572,-4.4587,-4.4281,-4.4205,-4.405,-4.3329,-4.301,-4.2864,-4.2555,-4.2407,-4.2325,-4.2325,-4.2,-4.1599,-4.0931,-4.0263,-3.9625,-3.9,-3.8507,-3.8202,-3.8202,-3.8202,-3.8202,-3.8202,-3.8501,-3.8664,-3.859,-3.9031,-3.9322,-3.9409,-3.9768,-4.0137,-4.0455,-4.0524,-4.0524,-4.0524,-4.0524,-4.0524,-4.0524,-4.0524,-4.0524,-4.0524,-4.0524,-4.0524,-4.0524,-4.0524,-4.0524,-4.0524,-4.0524,-4.0524,0.0,-2.8907,-2.9785,-3.0468,-2.9273,0.0,0.0,0.0,-2.6313,-2.6505,-2.603,-2.5511,-2.5274,-2.5788,-2.6565,-2.7426,-2.9417,0.0,0.0,0.0,0.0,0.0,0.0,0.0,0.0,0.0,0.0,0.0,0.0,0.0,0.0,-4.5807,-4.5807,-4.5807,-4.5807,-4.5807,-4.5807,-4.5807,-4.5807,-4.5807,-4.5807,-4.5807,-4.5807,-4.5807,-4.5807,0.0,0.0,0.0,0.0,-4.5807,-4.5807,-4.5807,-4.5807,-4.5807,-4.5807,-4.5735,-4.5589,-4.5442,-4.5204,-4.4964,-4.4874,-4.4511,-4.4358,-4.4358,-4.4065,-4.3738,-4.3423,-4.301,-4.2703,-4.2392,-4.2175,-4.2092,-4.2092,-4.2092,-4.2092,-4.1918,-4.1236,-4.0568,-3.9915,-3.932,-3.8667,-3.8202,-3.8202,-3.8202,-3.8202,-3.8202,-3.8366,-3.8441,-3.8366,-3.8664,-3.8885,-3.8943,-3.9466,-3.991,-4.0261,-4.047,-4.0524,-4.0524,-4.0524,-4.0524,-4.0524,-4.0524,-4.0524,-4.0524,-4.0524,-4.0524,-4.0524,-4.0524,-4.0524,-4.0524,-4.0524,-4.0524,0.0,0.0,0.0,0.0,0.0,0.0,0.0,0.0,0.0,-2.6796,-2.6471,-2.6214,-2.6245,-2.6592,-2.7063,-2.7811,-2.9847,0.0,0.0,0.0,0.0,0.0,0.0,0.0,0.0,0.0,0.0,0.0,0.0,0.0,0.0,-4.5807,-4.5807,-4.5807,-4.5807,-4.5807,-4.5807,-4.5807,-4.5807,-4.5807,-4.5807,-4.5807,-4.5807,-4.5807,-4.5807,0.0,0.0,0.0,0.0,-4.5807,-4.5807,-4.5807,-4.5807,-4.5807,-4.5735,-4.5515,-4.5426,-4.5368,-4.4949,-4.4799,-4.4723,-4.4205,-4.3988,-4.3988,-4.405,-4.3409,-4.2769,-4.317,-4.2718,-4.2092,-4.2092,-4.2092,-4.2092,-4.2092,-4.2092,-4.1932,-4.1308,-4.0612,-3.9929,-3.9363,-3.8696,-3.8202,-3.8202,-3.8202,-3.8202,-3.8202,-3.8366,-3.8441,-3.8202,-3.8366,-3.8575,-3.8797,-3.9147,-3.9523,-3.9996,-4.0331,-4.0524,-4.0524,-4.0524,-4.0524,-4.0524,-4.0524,-4.0524,-4.0524,-4.0524,-4.0524,-4.0524,-4.0524,-4.0524,-4.0524,-4.0524,-4.0524,-2.5498,0.0,-2.6693,-2.7504,-2.7331,0.0,0.0,0.0,0.0,0.0,0.0,-2.6933,-2.6948,-2.7612,-2.8372,-2.9055,0.0,0.0,0.0,0.0,0.0,0.0,0.0,0.0,0.0,0.0,0.0,0.0,0.0,0.0,0.0,-4.5807,-4.5807,-4.5807,-4.5807,-4.5807,-4.5807,-4.5807,-4.5807,-4.5807,-4.5807,-4.5807,-4.5807,-4.5807,-4.5807,0.0,0.0,0.0,-4.5807,-4.5807,-4.5807,-4.5807,-4.5807,-4.5807,-4.5735,-4.5157,-4.4933,-4.4739,-4.4097,-4.4035,-4.4205,-4.4435,-4.4281,-4.4065,-4.4358,-4.3879,-4.309,-4.293,-4.2474,-4.2092,-4.2092,-4.2092,-4.2092,-4.2092,-4.2092,-4.2049,-4.1903,-4.0931,-4.006,-3.9915,-3.8971,-3.8202,-3.8202,-3.8202,-3.8202,-3.8202,-3.8202,-3.8277,-3.8202,-3.8202,-3.8427,-3.8782,-3.9147,-3.9523,-3.9996,-4.0331,-4.0524,-4.0524,-4.0524,-4.0524,-4.0524,-4.0524,-4.0524,-4.0524,-4.0524,-4.0524,-4.0524,-4.0524,-4.0524,-4.0524,-4.0524,-4.0524,-2.5151,-2.5615,-2.5811,-2.6567,-2.6684,-2.6726,0.0,0.0,0.0,0.0,0.0,0.0,-2.8242,0.0,0.0,0.0,0.0,0.0,0.0,0.0,0.0,0.0,0.0,0.0,0.0,0.0,0.0,0.0,0.0,0.0,0.0,-4.5807,-4.5807,-4.5807,-4.5807,-4.5807,-4.5807,-4.5807,-4.5807,-4.5807,-4.5807,-4.5807,-4.5807,-4.5807,-4.5807,0.0,0.0,0.0,-4.5807,-4.5807,-4.5807,-4.5807,-4.5807,-4.5735,-4.5573,-4.4933,-4.4632,-4.4435,-4.3957,-4.3895,-4.4065,-4.4281,-4.405,-4.3738,-4.3957,-4.3566,-4.309,-4.3265,-4.2864,-4.2392,-4.2392,-4.2242,-4.2092,-4.2092,-4.2092,-4.2092,-4.2092,-4.1047,-4.0104,-4.0104,-3.9073,-3.8202,-3.8202,-3.8202,-3.8202,-3.8202,-3.8202,-3.8202,-3.8202,-3.8202,-3.8352,-3.8782,-3.9147,-3.9523,-3.9996,-4.0331,-4.0524,-4.0524,-4.0524,-4.0524,-4.0524,-4.0524,-4.0524,-4.0524,-4.0524,-4.0524,-4.0524,-4.0524,-4.0524,-4.0524,-4.0524,-4.0524,-2.5437,-2.5886,-2.6081,-2.6602,-2.6711,-2.6714,0.0,0.0,0.0,0.0,0.0,0.0,0.0,0.0,0.0,0.0,0.0,0.0,0.0,0.0,0.0,0.0,0.0,0.0,0.0,0.0,0.0,0.0,0.0,0.0,0.0,-4.5807,-4.5807,-4.5807,-4.5807,-4.5807,-4.5807,-4.5807,-4.5807,-4.5807,-4.5807,-4.5807,-4.5807,-4.5807,-4.5807,-4.5807,0.0,0.0,-4.5807,-4.5807,-4.5807,-4.5807,-4.575,-4.5662,-4.5426,-4.4739,-4.4343,-4.4281,-4.3972,-4.3895,-4.3895,-4.3895,-4.366,-4.3409,-4.3329,-4.309,-4.293,-4.366,-4.3265,-4.2622,-4.2622,-4.2325,-4.2092,-4.2092,-4.2092,-4.2092,-4.2092,-4.1047,-4.0104,-4.0104,-3.9073,-3.8202,-3.8202,-3.8202,-3.8202,-3.8202,-3.8202,-3.8202,-3.8277,-3.8277,-3.8501,-3.8943,-3.9307,-3.9681,-4.0066,-4.0331,-4.0524,-4.0524,-4.0524,-4.0524,-4.0524,-4.0524,-4.0524,-4.0524,-4.0524,-4.0524,-4.0524,-4.0524,-4.0524,-4.0524,-4.0524,-4.0524,-2.6363,-2.7182,-2.7588,-2.7495,-2.7252,-2.7187,0.0,0.0,0.0,0.0,0.0,0.0,0.0,0.0,0.0,0.0,0.0,0.0,0.0,0.0,0.0,0.0,0.0,0.0,0.0,0.0,0.0,0.0,0.0,0.0,0.0,-4.5807,-4.5807,-4.5807,-4.5807,-4.5807,-4.5807,-4.5807,-4.5807,-4.5807,-4.5807,-4.5807,-4.5807,-4.5807,-4.5807,-4.5807,0.0,-4.5807,-4.5807,-4.5807,-4.5807,-4.5807,-4.5589,-4.5515,-4.5352,-4.4174,-4.3957,-4.4205,-4.366,-4.3423,-4.3423,-4.3423,-4.366,-4.3817,-4.3409,-4.325,-4.3265,-4.3329,-4.2784,-4.2175,-4.2175,-4.2175,-4.2092,-4.2092,-4.2092,-4.2092,-4.2092,-4.1047,-4.0104,-4.0104,-3.9073,-3.8202,-3.8202,-3.8202,-3.8202,-3.8202,-3.8202,-3.8352,-3.8634,-3.8708,-3.9017,-3.9711,-3.9854,-4.0066,-4.0401,-4.0455,-4.0524,-4.0524,-4.0524,-4.0524,-4.0524,-4.0524,-4.0524,-4.0524,-4.0524,-4.0524,-4.0524,-4.0524,-4.0524,-4.0524,-4.0524,-4.0524,-2.6758,-2.7248,-2.7783,-2.8865,-2.9011,0.0,0.0,0.0,0.0,0.0,0.0,0.0,0.0,0.0,0.0,0.0,0.0,0.0,0.0,0.0,0.0,0.0,0.0,0.0,0.0,0.0,0.0,0.0,0.0,0.0,0.0,0.0,-4.5807,-4.5807,-4.5807,-4.5807,-4.5807,-4.5807,-4.5807,-4.5807,-4.5807,-4.5807,-4.5807,-4.5807,-4.5807,-4.5807,0.0,-4.5662,-4.5662,-4.5515,-4.5352,-4.5188,-4.5294,-4.5129,-4.4739,-4.3801,-4.3409,-4.3409,-4.309,-4.309,-4.325,-4.301,-4.309,-4.3185,-4.2799,-4.2637,-4.2637,-4.2637,-4.2555,-4.2392,-4.2392,-4.2242,-4.2092,-4.2092,-4.2092,-4.2092,-4.2092,-4.1047,-4.0104,-4.0104,-3.9073,-3.8202,-3.8202,-3.8202,-3.8202,-3.8202,-3.8202,-3.8352,-3.8708,-3.8782,-3.909,-3.9925,-4.0011,-4.0137,-4.0455,-4.0524,-4.0524,-4.0524,-4.0524,-4.0524,-4.0524,-4.0524,-4.0524,-4.0524,-4.0524,-4.0524,-4.0524,-4.0524,-4.0524,-4.0524,-4.0524,-4.0524,-2.7122,-2.7481,-2.8146,-3.0001,0.0,0.0,0.0,0.0,0.0,0.0,0.0,0.0,0.0,0.0,0.0,0.0,0.0,0.0,0.0,0.0,0.0,0.0,0.0,0.0,0.0,0.0,0.0,0.0,0.0,0.0,0.0,0.0,-4.5807,-4.5807,-4.5807,-4.5807,-4.5807,-4.5807,-4.5807,-4.5807,-4.5807,-4.5807,-4.5807,-4.5807,-4.5807,-4.5735,-4.5589,-4.5442,-4.5442,-4.5129,-4.4905,-4.4739,-4.4814,-4.4435,-4.3879,-4.3566,-4.3105,-4.2541,-4.2688,-4.293,-4.309,-4.2703,-4.2607,-4.2607,-4.2242,-4.2092,-4.2092,-4.2092,-4.231,-4.2541,-4.2541,-4.231,-4.2092,-4.2092,-4.2175,-4.2175,-4.2092,-4.1128,-4.0197,-4.0182,-3.9073,-3.8202,-3.8352,-3.8352,-3.8427,-3.8427,-3.8501,-3.8649,-3.9017,-3.909,-3.9322,-4.0066,-4.0137,-4.0191,-4.0455,-4.0524,-4.0524,-4.0524,-4.0524,-4.0524,-4.0524,-4.0524,-4.0524,-4.0524,-4.0524,-4.0524,-4.0524,-4.0524,-4.0524,-4.0524,-4.0524,-4.0524,-2.7762,-2.8682,-2.9627,-3.0538,0.0,0.0,0.0,0.0,0.0,0.0,0.0,0.0,0.0,0.0,0.0,0.0,0.0,0.0,0.0,0.0,0.0,0.0,0.0,0.0,0.0,0.0,0.0,0.0,0.0,0.0,0.0,0.0,0.0,-4.5807,-4.5807,-4.5807,-4.5807,-4.5807,-4.5807,-4.5807,-4.5807,-4.5807,-4.5807,-4.5807,-4.5662,-4.5515,-4.5515,-4.5368,-4.522,-4.4814,-4.4814,-4.5055,-4.4097,-4.3314,-4.293,-4.366,-4.3185,-4.2175,-4.2541,-4.2688,-4.2703,-4.2242,-4.2392,-4.2607,-4.2242,-4.2092,-4.2092,-4.2092,-4.2092,-4.2175,-4.2175,-4.2092,-4.2092,-4.2092,-4.2242,-4.2325,-4.2175,-4.1237,-4.0461,-4.0354,-3.9226,-3.8352,-3.8708,-3.8943,-3.9031,-3.9031,-3.9322,-3.9696,-3.9854,-3.9925,-4.0051,-4.0385,-4.0455,-4.0455,-4.0524,-4.0524,-4.0524,-4.0524,-4.0524,-4.0524,-4.0524,-4.0524,-4.0524,-4.0524,-4.0524,-4.0524,-4.0524,-4.0524,-4.0524,-4.0524,-4.0524,-4.0524,-2.8076,-2.879,-2.9743,-3.1318,0.0,0.0,0.0,0.0,0.0,0.0,0.0,0.0,0.0,0.0,0.0,0.0,0.0,0.0,0.0,0.0,0.0,0.0,0.0,0.0,0.0,0.0,0.0,0.0,0.0,0.0,0.0,0.0,0.0,-4.5807,-4.5807,-4.5807,-4.5807,-4.5807,-4.5807,-4.5807,-4.5807,-4.5807,-4.5823,-4.5662,-4.5589,-4.5515,-4.5278,-4.5114,-4.4964,-4.4435,-4.4281,-4.4358,-4.3723,-4.325,-4.309,-4.317,-4.2864,-4.2474,-4.2392,-4.2325,-4.2325,-4.2175,-4.2325,-4.2474,-4.231,-4.2392,-4.2459,-4.2459,-4.2459,-4.2392,-4.2175,-4.2175,-4.2325,-4.2325,-4.2474,-4.2541,-4.2474,-4.1527,-4.0694,-4.068,-3.9545,-3.8708,-3.9075,-3.9235,-3.9364,-3.9565,-3.9707,-3.9935,-4.0301,-4.0161,-4.0246,-4.0662,-4.0593,-4.0524,-4.0524,-4.0524,-4.0524,-4.0524,-4.0524,-4.0524,-4.0524,-4.0524,-4.0524,-4.0524,-4.0524,-4.0524,-4.0524,-4.0524,-4.0524,-4.0524,-4.0524,-4.0524,-2.8507,-2.9196,-3.0231,0.0,0.0,0.0,0.0,0.0,0.0,0.0,0.0,0.0,0.0,0.0,0.0,0.0,0.0,0.0,0.0,0.0,0.0,0.0,0.0,0.0,0.0,0.0,0.0,0.0,0.0,0.0,0.0,0.0,0.0,-4.5807,-4.5807,-4.5807,-4.5807,-4.5807,-4.5807,-4.5807,-4.5807,-4.5735,-4.5662,-4.5515,-4.5368,-4.5278,-4.5039,-4.4874,-4.4723,-4.4205,-4.3895,-4.3738,-4.3581,-4.3329,-4.309,-4.2769,-4.2622,-4.2474,-4.2175,-4.2092,-4.2092,-4.2092,-4.2175,-4.2325,-4.2392,-4.2474,-4.2622,-4.2688,-4.2688,-4.2622,-4.2392,-4.2392,-4.2459,-4.2459,-4.2622,-4.2769,-4.2688,-4.1765,-4.0926,-4.0926,-3.9771,-3.8929,-3.9523,-3.9595,-3.9778,-4.013,-4.0255,-4.0409,-4.0646,-4.0578,-4.0593,-4.0799,-4.0593,-4.0524,-4.0524,-4.0524,-4.0524,-4.0524,-4.0524,-4.0524,-4.0524,-4.0524,-4.0524,-4.0524,-4.0524,-4.0524,-4.0524,-4.0524,-4.0524,-4.0524,-4.0524,-4.0524,-2.9048,-3.001,0.0,0.0,0.0,0.0,0.0,0.0,0.0,0.0,0.0,0.0,0.0,0.0,0.0,0.0,0.0,0.0,0.0,0.0,0.0,0.0,0.0,0.0,0.0,0.0,0.0,0.0,0.0,0.0,0.0,0.0,-4.5807,-4.5807,-4.5807,-4.5807,-4.5807,-4.5807,-4.5807,-4.5807,-4.5807,-4.5662,-4.5515,-4.5294,-4.5055,-4.4874,-4.4874,-4.4799,-4.4572,-4.4127,-4.3738,-4.3329,-4.3817,-4.3503,-4.2688,-4.2703,-4.2474,-4.2092,-4.2092,-4.2092,-4.2092,-4.2092,-4.2092,-4.2175,-4.2325,-4.2392,-4.2474,-4.2622,-4.2688,-4.2688,-4.2688,-4.2688,-4.2688,-4.2688,-4.2835,-4.2915,-4.2769,-4.1844,-4.1095,-4.1095,-3.9846,-3.909,-3.9854,-4.0106,-4.0355,-4.073,-4.1122,-4.1256,-4.1102,-4.1117,-4.1034,-4.0799,-4.0593,-4.0524,-4.0524,-4.0524,-4.0524,-4.0524,-4.0524,-4.0524,-4.0524,-4.0524,-4.0524,-4.0524,-4.0524,-4.0524,-4.0524,-4.0524,-4.0524,-4.0524,-4.0524,-4.0524,-2.8492,-2.9924,0.0,0.0,0.0,0.0,0.0,0.0,0.0,0.0,0.0,0.0,0.0,0.0,0.0,0.0,0.0,0.0,0.0,0.0,0.0,0.0,0.0,0.0,0.0,0.0,0.0,0.0,0.0,0.0,0.0,-4.5049,-4.527,-4.5792,-4.5807,-4.5807,-4.5807,-4.5662,-4.5589,-4.5589,-4.5278,-4.5262,-4.5515,-4.5294,-4.5055,-4.4874,-4.4435,-4.4205,-4.4127,-4.366,-4.325,-4.285,-4.301,-4.293,-4.2703,-4.2392,-4.2392,-4.2459,-4.2175,-4.2092,-4.2092,-4.2092,-4.2325,-4.2541,-4.2622,-4.2784,-4.3025,-4.309,-4.309,-4.309,-4.309,-4.309,-4.309,-4.2915,-4.3076,-4.317,-4.317,-4.2157,-4.1384,-4.1581,-4.0366,-3.9538,-4.0593,-4.0593,-4.0646,-4.1256,-4.1456,-4.1456,-4.1272,-4.1272,-4.1138,-4.0799,-4.073,-4.0662,-4.0524,-4.0524,-4.0524,-4.0524,-4.0524,-4.0524,-4.0524,-4.0524,-4.0524,-4.0524,-4.0524,-4.0524,-4.0524,-4.0524,-4.0524,-4.0524,-4.0524,-4.0524,-2.9543,0.0,0.0,0.0,0.0,0.0,0.0,0.0,0.0,0.0,0.0,0.0,0.0,0.0,0.0,0.0,0.0,0.0,0.0,0.0,0.0,0.0,0.0,0.0,0.0,0.0,0.0,0.0,0.0,0.0,0.0,-4.4322,-4.4527,-4.497,-4.4986,-4.5112,-4.5365,-4.5076,-4.507,-4.5352,-4.4874,-4.4723,-4.4874,-4.4754,-4.4678,-4.4511,-4.3972,-4.3738,-4.3738,-4.3423,-4.317,-4.293,-4.2769,-4.2688,-4.2607,-4.2242,-4.2242,-4.2474,-4.2242,-4.2242,-4.2242,-4.2325,-4.2459,-4.2688,-4.2754,-4.2996,-4.317,-4.325,-4.3329,-4.3329,-4.3329,-4.3329,-4.325,-4.3155,-4.325,-4.3329,-4.3329,-4.2374,-4.1656,-4.1864,-4.0804,-4.0106,-4.0919,-4.0935,-4.0919,-4.1522,-4.1588,-4.1588,-4.1456,-4.1323,-4.1189,-4.095,-4.0867,-4.073,-4.0524,-4.0524,-4.0524,-4.0524,-4.0524,-4.0524,-4.0524,-4.0524,-4.0524,-4.0524,-4.0524,-4.0524,-4.0524,-4.0524,-4.0524,-4.0524,-4.0524,-4.0524,0.0,0.0,0.0,0.0,0.0,0.0,0.0,0.0,0.0,0.0,0.0,0.0,0.0,0.0,0.0,0.0,0.0,0.0,0.0,0.0,0.0,0.0,0.0,0.0,0.0,0.0,0.0,0.0,0.0,0.0,0.0,-4.3558,-4.3573,-4.3636,-4.3652,-4.3866,-4.4465,-4.4106,-4.4289,-4.4911,-4.4281,-4.3929,-4.3758,-4.3927,-4.3895,-4.3817,-4.3409,-4.325,-4.325,-4.3185,-4.317,-4.317,-4.2769,-4.2622,-4.2622,-4.2242,-4.2092,-4.2175,-4.2325,-4.2392,-4.2474,-4.2622,-4.2688,-4.2769,-4.29,-4.2996,-4.3076,-4.325,-4.3329,-4.3329,-4.3329,-4.3329,-4.3329,-4.3329,-4.3329,-4.3314,-4.3254,-4.2545,-4.1908,-4.1936,-4.1117,-4.0662,-4.107,-4.1138,-4.1189,-4.1522,-4.1588,-4.1588,-4.1588,-4.1456,-4.1272,-4.1117,-4.095,-4.073,-4.0524,-4.0524,-4.0524,-4.0524,-4.0524,-4.0524,-4.0524,-4.0524,-4.0524,-4.0524,-4.0524,-4.0524,-4.0524,-4.0524,-4.0524,-4.0524,-4.0524,-4.0524,0.0,0.0,0.0,0.0,0.0,0.0,0.0,0.0,0.0,0.0,0.0,0.0,0.0,0.0,0.0,0.0,0.0,0.0,0.0,0.0,0.0,0.0,0.0,0.0,0.0,0.0,0.0,0.0,0.0,0.0,-4.2884,-4.2611,-4.2707,-4.3169,-4.2987,-4.2922,-4.3061,-4.2844,-4.2702,0.0,-4.2379,-4.2425,-4.2737,-4.3404,-4.3409,-4.301,-4.285,-4.285,-4.2769,-4.2474,-4.2555,-4.2769,-4.2392,-4.2242,-4.2242,-4.2325,-4.2325,-4.2392,-4.2541,-4.2622,-4.2622,-4.2688,-4.285,-4.2915,-4.2996,-4.3076,-4.325,-4.325,-4.3329,-4.3329,-4.3329,-4.3329,-4.3329,-4.3329,-4.3581,-4.3665,-4.3121,-4.265,-4.2283,-4.2092,-4.1233,-4.073,-4.139,-4.1256,-4.1189,-4.1522,-4.1588,-4.1588,-4.1588,-4.1588,-4.1406,-4.1102,-4.1034,-4.0898,-4.0524,-4.0524,-4.0524,-4.0524,-4.0524,-4.0524,-4.0524,-4.0524,-4.0524,-4.0524,-4.0524,-4.0524,-4.0524,-4.0524,-4.0524,-4.0524,-4.0524,-4.0524,0.0,0.0,0.0,0.0,0.0,0.0,0.0,0.0,0.0,0.0,0.0,0.0,0.0,0.0,0.0,0.0,0.0,0.0,0.0,0.0,0.0,0.0,0.0,0.0,0.0,0.0,0.0,0.0,0.0,-4.1563,-4.194,-4.1532,-4.1481,-4.1681,-4.1555,-4.1653,-4.1976,-4.1571,-4.1576,-4.2012,-4.1505,-4.1396,-4.1614,-4.2787,-4.3076,-4.2688,-4.2688,-4.2688,-4.2688,-4.2392,-4.2392,-4.2541,-4.2325,-4.2242,-4.2242,-4.2474,-4.2541,-4.2541,-4.2769,-4.2835,-4.2835,-4.293,-4.309,-4.3155,-4.3155,-4.325,-4.3329,-4.3329,-4.3329,-4.3329,-4.3329,-4.3503,-4.366,-4.366,-4.3817,-4.379,-4.3092,-4.284,-4.2683,-4.2186,-4.1485,-4.1122,-4.1522,-4.1456,-4.1323,-4.1355,-4.1472,-4.1522,-4.1339,-4.1406,-4.1323,-4.1018,-4.095,-4.0814,-4.0539,-4.0524,-4.0524,-4.0524,-4.0524,-4.0524,-4.0524,-4.0524,-4.0524,-4.0524,-4.0524,-4.0524,-4.0524,-4.0524,-4.0524,-4.0524,-4.0593,-4.0662,0.0,0.0,0.0,0.0,0.0,0.0,0.0,0.0,0.0,0.0,0.0,0.0,0.0,0.0,0.0,0.0,0.0,0.0,0.0,0.0,0.0,0.0,0.0,0.0,0.0,0.0,0.0,0.0,0.0,-4.0987,-4.0919,-4.0509,-4.0231,-4.0146,-3.999,-4.0264,-4.0898,-4.0437,-4.0649,-4.1457,-4.0918,-4.0595,-4.0625,-4.2041,-4.2589,-4.2349,-4.2349,-4.2349,-4.2364,-4.2217,-4.2195,-4.2298,-4.2298,-4.2371,-4.2474,-4.2688,-4.2769,-4.2769,-4.2996,-4.3076,-4.3076,-4.325,-4.3329,-4.3329,-4.3329,-4.3329,-4.3329,-4.3329,-4.3329,-4.3329,-4.3329,-4.366,-4.3988,-4.3988,-4.4051,-4.3838,-4.3061,-4.2998,-4.288,-4.2169,-4.1799,-4.1588,-4.1522,-4.1522,-4.1472,-4.1185,-4.1355,-4.1406,-4.1117,-4.1221,-4.1138,-4.0867,-4.0799,-4.073,-4.0524,-4.0524,-4.0524,-4.0524,-4.0524,-4.0524,-4.0524,-4.0524,-4.0524,-4.0524,-4.0524,-4.0524,-4.0524,-4.0524,-4.0524,-4.0524,-4.0662,-4.0799,0.0,0.0,0.0,0.0,0.0,0.0,0.0,0.0,0.0,0.0,0.0,0.0,0.0,0.0,0.0,0.0,0.0,0.0,0.0,0.0,0.0,0.0,0.0,0.0,0.0,0.0,0.0,0.0,-4.0615,-4.0478,-4.0355,-3.9864,-3.9595,-3.9753,-3.922,-3.9119,-3.9369,-3.9471,-3.9516,-3.9518,-3.9802,-3.9993,-4.0233,-4.1005,-4.1192,-4.0945,-4.0945,-4.0945,-4.0945,-4.0945,-4.1268,-4.1783,-4.1783,-4.2122,-4.2688,-4.2915,-4.2996,-4.2996,-4.317,-4.325,-4.325,-4.325,-4.3329,-4.3329,-4.3329,-4.3329,-4.3329,-4.3329,-4.3329,-4.3329,-4.3329,-4.366,-4.3988,-4.3988,-4.405,-4.3862,-4.3251,-4.3105,-4.281,-4.185,-4.1652,-4.1522,-4.139,-4.1323,-4.1272,-4.1102,-4.1117,-4.1169,-4.1117,-4.1117,-4.1034,-4.0799,-4.0799,-4.073,-4.0524,-4.0524,-4.0524,-4.0524,-4.0524,-4.0524,-4.0524,-4.0524,-4.0524,-4.0524,-4.0524,-4.0524,-4.0524,-4.0524,-4.0524,-4.0524,-4.0524,-4.0662,0.0,0.0,0.0,0.0,0.0,0.0,0.0,0.0,0.0,0.0,0.0,0.0,0.0,0.0,0.0,0.0,0.0,0.0,0.0,0.0,0.0,0.0,0.0,0.0,0.0,0.0,0.0,0.0,-4.006,-4.0021,-3.995,-3.961,-3.9322,-3.9162,-3.9017,-3.8943,-3.8943,-3.9017,-3.9104,-3.9104,-3.9401,-3.9624,-3.9697,-4.001,-4.0457,-4.1065,-4.1065,-4.1065,-4.1065,-4.1003,-4.1104,-4.1355,-4.1355,-4.1533,-4.1863,-4.2004,-4.2067,-4.216,-4.2237,-4.2237,-4.2237,-4.2237,-4.2237,-4.2237,-4.2237,-4.2237,-4.2237,-4.2237,-4.2237,-4.2314,-4.2453,-4.2819,-4.321,-4.3433,-4.3495,-4.345,-4.2987,-4.2846,-4.2616,-4.1794,-4.1588,-4.1522,-4.1307,-4.1323,-4.1189,-4.095,-4.1034,-4.1034,-4.0814,-4.0882,-4.0882,-4.0662,-4.0662,-4.0593,-4.0524,-4.0524,-4.0524,-4.0524,-4.0524,-4.0524,-4.0524,-4.0524,-4.0524,-4.0524,-4.0524,-4.0524,-4.0524,-4.0524,-4.0524,-4.0524,-4.0593,-4.073,0.0,0.0,0.0,0.0,0.0,0.0,0.0,0.0,0.0,0.0,0.0,0.0,0.0,0.0,0.0,0.0,0.0,0.0,0.0,0.0,0.0,0.0,0.0,0.0,0.0,0.0,0.0,0.0,-3.958,-3.9538,-3.9538,-3.9337,-3.9104,-3.887,-3.8943,-3.8943,-3.887,-3.8943,-3.9017,-3.925,-3.9337,-3.9424,-3.9424,-3.9424,-3.9963,-4.0876,-4.0876,-4.0876,-4.0891,-4.074,-4.0769,-4.0918,-4.0918,-4.1022,-4.1156,-4.1308,-4.1384,-4.1384,-4.1384,-4.1384,-4.1384,-4.1384,-4.1384,-4.1384,-4.1384,-4.1384,-4.1384,-4.152,-4.152,-4.1596,-4.1938,-4.2364,-4.2726,-4.3027,-4.306,-4.2949,-4.2585,-4.2469,-4.2252,-4.1699,-4.1588,-4.1522,-4.1307,-4.1256,-4.1138,-4.0867,-4.0882,-4.0814,-4.0524,-4.0662,-4.0662,-4.0524,-4.0524,-4.0524,-4.0524,-4.0524,-4.0524,-4.0524,-4.0524,-4.0524,-4.0524,-4.0524,-4.0524,-4.0524,-4.0524,-4.0524,-4.0524,-4.0524,-4.0524,-4.0524,-4.0662,-4.073,0.0,0.0,0.0,0.0,0.0,0.0,0.0,0.0,0.0,0.0,0.0,0.0,0.0,0.0,0.0,0.0,0.0,0.0,0.0,0.0,0.0,0.0,0.0,0.0,0.0,0.0,0.0,0.0,-3.9104,-3.9104,-3.9104,-3.8943,-3.8943,-3.9104,-3.8943,-3.887,-3.9104,-3.9265,-3.9481,-3.9696,-3.9481,-3.9424,-3.9424,-3.9424,-3.9454,-3.9514,-3.9514,-3.9514,-3.9514,-3.9514,-3.9888,-4.0457,-4.0457,-4.0831,-4.1384,-4.1384,-4.1384,-4.1384,-4.1384,-4.1384,-4.1384,-4.1384,-4.1384,-4.1384,-4.1384,-4.1384,-4.146,-4.179,-4.1864,-4.1938,-4.2395,-4.2757,-4.3027,-4.3114,-4.2925,-4.259,-4.2216,-4.1873,-4.1636,-4.1604,-4.1588,-4.1522,-4.1307,-4.1221,-4.1034,-4.0799,-4.0662,-4.0524,-4.0524,-4.0524,-4.0524,-4.0524,-4.0524,-4.0524,-4.0524,-4.0524,-4.0524,-4.0524,-4.0524,-4.0524,-4.0524,-4.0524,-4.0524,-4.0524,-4.0524,-4.0524,-4.0524,-4.0524,-4.0524,-4.0524,-4.0524,-4.0593,0.0,0.0,0.0,0.0,0.0,0.0,0.0,0.0,0.0,0.0,0.0,0.0,0.0,0.0,0.0,0.0,0.0,0.0,0.0,0.0,0.0,0.0,0.0,0.0,0.0,0.0,0.0,0.0,0.0,-3.9104,-3.9104,-3.9177,-3.9177,-3.9104,-3.9177,-3.9192,-3.9265,-3.9337,-3.9424,-3.9481,-3.9409,-3.9424,-3.9424,-3.9424,-3.9424,-3.9424,-3.9424,-3.9424,-3.9424,-3.9424,-3.9559,-3.9768,-3.9768,-3.9903,-4.0127,-4.0127,-4.0127,-4.0127,-4.0127,-4.0127,-4.0127,-4.0127,-4.0127,-4.0127,-4.0127,-4.0127,-4.0113,-4.0259,-4.0477,-4.0766,-4.1106,-4.1527,-4.1872,-4.2061,-4.209,-4.1983,-4.1783,-4.1696,-4.1588,-4.1588,-4.1588,-4.1588,-4.1522,-4.1288,-4.1117,-4.1034,-4.0746,-4.0524,-4.0524,-4.0524,-4.0524,-4.0524,-4.0524,-4.0524,-4.0524,-4.0524,-4.0524,-4.0524,-4.0524,-4.0524,-4.0524,-4.0524,-4.0524,-4.0524,-4.0524,-4.0524,-4.0524,-4.0524,-4.0524,-4.0524,-4.0524,-4.0524,0.0,0.0,0.0,0.0,0.0,0.0,0.0,0.0,0.0,0.0,0.0,0.0,0.0,0.0,0.0,0.0,0.0,0.0,0.0,0.0,0.0,0.0,0.0,0.0,0.0,0.0,0.0,0.0,0.0,0.0,-3.9177,-3.9337,-3.9337,-3.9177,-3.9337,-3.9424,-3.9424,-3.9424,-3.9424,-3.9424,-3.9424,-3.9424,-3.9424,-3.9424,-3.9424,-3.9424,-3.9424,-3.9424,-3.9424,-3.9424,-3.9424,-3.9424,-3.9424,-3.9424,-3.9424,-3.9424,-3.9424,-3.9424,-3.9424,-3.9424,-3.9424,-3.9424,-3.9424,-3.9424,-3.9424,-3.9424,-3.9424,-3.9568,-3.9783,-4.0066,-4.0385,-4.0799,-4.1189,-4.1522,-4.1588,-4.1588,-4.1588,-4.1588,-4.1588,-4.1588,-4.1522,-4.1522,-4.1522,-4.1205,-4.1034,-4.1034,-4.0746,-4.0524,-4.0524,-4.0524,-4.0524,-4.0524,-4.0524,-4.0524,-4.0524,-4.0524,-4.0524,-4.0524,-4.0524,-4.0524,-4.0524,-4.0524,-4.0524,-4.0524,-4.0524,-4.0524,-4.0524,-4.0524,-4.0524,-4.0524,-4.0524,-4.0524,0.0,0.0,0.0,0.0,0.0,0.0,0.0,0.0,0.0,0.0,0.0,0.0,0.0,0.0,0.0,0.0,0.0,0.0,0.0,0.0,0.0,0.0,0.0,0.0,0.0,0.0,0.0,0.0,-3.9104,-3.9177,-3.9424,-3.9424,-3.9424,-3.9424,-3.9424,-3.9424,-3.9424,-3.9424,-3.9424,-3.9424,-3.9424,-3.9424,-3.9424,-3.9424,-3.9424,-3.9424,-3.9424,-3.9424,-3.9424,-3.9424,-3.9424,-3.9424,-3.9424,-3.9424,-3.9424,-3.9424,-3.9424,-3.9424,-3.9424,-3.9424,-3.9424,-3.9424,-3.9424,-3.9424,-3.9424,-3.9424,-3.9496,-3.9854,-3.9996,-4.0066,-4.047,-4.0799,-4.1205,-4.1522,-4.1588,-4.1588,-4.1588,-4.1588,-4.1588,-4.1588,-4.1456,-4.1323,-4.1323,-4.0987,-4.0799,-4.0799,-4.0662,-4.0524,-4.0524,-4.0524,-4.0524,-4.0524,-4.0524,-4.0524,-4.0524,-4.0524,-4.0524,-4.0524,-4.0524,-4.0524,-4.0524,-4.0524,-4.0524,-4.0524,-4.0524,-4.0524,-4.0524,-4.0524,-4.0524,-4.0524,-4.0524,-4.0524,-2.7819,0.0,0.0,0.0,0.0,0.0,0.0,0.0,0.0,0.0,0.0,0.0,0.0,0.0,0.0,0.0,0.0,0.0,0.0,0.0,0.0,0.0,0.0,0.0,0.0,0.0,0.0,0.0,-3.9265,-3.9337,-3.9424,-3.9424,-3.9424,-3.9424,-3.9424,-3.9424,-3.9424,-3.9424,-3.9424,-3.9424,-3.9424,-3.9424,-3.9424,-3.9424,-3.9424,-3.9424,-3.9424,-3.9424,-3.9424,-3.9424,-3.9424,-3.9424,-3.9424,-3.9424,-3.9424,-3.9424,-3.9424,-3.9424,-3.9424,-3.9424,-3.9424,-3.9424,-3.9424,-3.9424,-3.9424,-3.9424,-3.9409,-3.9568,-3.9783,-4.0137,-4.0799,-4.1205,-4.1456,-4.1588,-4.1588,-4.1588,-4.139,-4.139,-4.139,-4.139,-4.1272,-4.1169,-4.1169,-4.095,-4.0799,-4.0799,-4.0662,-4.0524,-4.0524,-4.0524,-4.0524,-4.0524,-4.0524,-4.0524,-4.0524,-4.0524,-4.0524,-4.0524,-4.0524,-4.0524,-4.0524,-4.0524,-4.0524,-4.0524,-4.0524,-4.0524,-4.0524,-4.0524,-4.0524,-4.0524,-4.0524,-4.0524,0.0,0.0,0.0,0.0,0.0,0.0,-3.1797,-3.3,0.0,0.0,0.0,0.0,0.0,0.0,0.0,0.0,0.0,0.0,0.0,0.0,0.0,0.0,0.0,0.0,0.0,-3.9265,-3.9265,-3.9265,-3.9337,-3.9424,-3.9424,-3.9424,-3.9424,-3.9424,-3.9424,-3.9424,-3.9424,-3.9424,-3.9424,-3.9424,-3.9424,-3.9424,-3.9424,-3.9424,-3.9424,-3.9424,-3.9424,-3.9424,-3.9424,-3.9424,-3.9424,-3.9424,-3.9424,-3.9424,-3.9424,-3.9424,-3.9424,-3.9424,-3.9424,-3.9424,-3.9424,-3.9424,-3.9424,-3.9424,-3.9424,-3.9424,-3.9424,-3.9424,-3.9711,-4.0137,-4.0935,-4.1256,-4.139,-4.1456,-4.1456,-4.1456,-4.1272,-4.1138,-4.1138,-4.1205,-4.1086,-4.095,-4.095,-4.0814,-4.0662,-4.0662,-4.0593,-4.0524,-4.0524,-4.0524,-4.0524,-4.0524,-4.0524,-4.0524,-4.0524,-4.0524,-4.0524,-4.0524,-4.0524,-4.0524,-4.0524,-4.0524,-4.0524,-4.0524,-4.0524,-4.0524,-4.0524,-4.0524,-4.0524,-4.0524,-4.0524,-4.0524,0.0,0.0,0.0,0.0,0.0,0.0,-3.2404,-3.2968,-3.3461,0.0,0.0,0.0,0.0,0.0,0.0,0.0,0.0,0.0,0.0,0.0,0.0,0.0,0.0,0.0,-3.914,-3.92,-3.923,-3.9305,-3.9379,-3.9424,-3.9424,-3.9424,-3.9424,-3.9424,-3.9424,-3.9424,-3.9424,-3.9424,-3.9424,-3.9424,-3.9424,-3.9424,-3.9424,-3.9424,-3.9424,-3.9424,-3.9424,-3.9424,-3.9424,-3.9424,-3.9424,-3.9424,-3.9424,-3.9424,-3.9424,-3.9424,-3.9424,-3.9424,-3.9424,-3.9424,-3.9424,-3.9424,-3.9424,-3.9424,-3.9424,-3.9424,-3.9424,-3.9424,-3.9783,-4.0261,-4.0935,-4.1138,-4.1122,-4.1256,-4.1323,-4.1272,-4.1102,-4.095,-4.0882,-4.0966,-4.0882,-4.0799,-4.0799,-4.0593,-4.0524,-4.0524,-4.0524,-4.0524,-4.0524,-4.0524,-4.0524,-4.0524,-4.0524,-4.0524,-4.0524,-4.0524,-4.0524,-4.0524,-4.0524,-4.0524,-4.0524,-4.0524,-4.0524,-4.0524,-4.0524,-4.0524,-4.0524,-4.0524,-4.0524,-4.0524,-4.0524,-4.0524,0.0,0.0,0.0,0.0,0.0,0.0,-3.0944,-3.2002,-3.2916,0.0,0.0,0.0,0.0,0.0,0.0,0.0,0.0,0.0,0.0,0.0,0.0,0.0,0.0,0.0,-3.7793,-3.7793,-3.8018,-3.8542,-3.911,-3.9424,-3.9424,-3.9424,-3.9424,-3.9424,-3.9424,-3.9424,-3.9424,-3.9424,-3.9424,-3.9424,-3.9424,-3.9424,-3.9424,-3.9424,-3.9424,-3.9424,-3.9424,-3.9424,-3.9424,-3.9424,-3.9424,-3.9424,-3.9424,-3.9424,-3.9424,-3.9424,-3.9424,-3.9424,-3.9424,-3.9424,-3.9424,-3.9424,-3.9424,-3.9424,-3.9424,-3.9424,-3.9496,-3.9783,-4.0401,-4.0935,-4.107,-4.1189,-4.1256,-4.1323,-4.1205,-4.1102,-4.0882,-4.0799,-4.073,-4.0677,-4.0608,-4.0524,-4.0524,-4.0539,-4.0524,-4.0524,-4.0524,-4.0524,-4.0524,-4.0524,-4.0524,-4.0524,-4.0524,-4.0524,-4.0524,-4.0524,-4.0524,-4.0524,-4.0524,-4.0524,-4.0524,-4.0524,-4.0524,-4.0524,-4.0524,-4.0524,-4.0524,-4.0524,-4.0524,-4.0524,-4.0524,-4.0524,0.0,0.0,0.0,-2.886,0.0,0.0,0.0,-3.1539,-3.2345,0.0,0.0,0.0,0.0,0.0,0.0,0.0,0.0,0.0,0.0,0.0,0.0,0.0,0.0,0.0,-3.7375,-3.7404,-3.7539,-3.7883,-3.8527,-3.8901,-3.8901,-3.923,-3.9424,-3.9424,-3.9424,-3.9424,-3.9424,-3.9424,-3.9424,-3.9424,-3.9424,-3.9424,-3.9424,-3.9424,-3.9424,-3.9424,-3.9424,-3.9424,-3.9424,-3.9424,-3.9424,-3.9424,-3.9424,-3.9424,-3.9424,-3.9424,-3.9424,-3.9424,-3.9424,-3.9424,-3.9424,-3.9424,-3.9424,-3.9424,-3.9424,-3.9568,-3.9783,-4.0121,-4.0662,-4.1138,-4.1189,-4.1256,-4.1256,-4.1122,-4.1003,-4.0882,-4.0662,-4.0662,-4.0593,-4.0524,-4.0524,-4.0524,-4.0524,-4.0524,-4.0524,-4.0524,-4.0524,-4.0524,-4.0524,-4.0524,-4.0524,-4.0524,-4.0524,-4.0524,-4.0524,-4.0524,-4.0524,-4.0524,-4.0524,-4.0524,-4.0524,-4.0524,-4.0524,-4.0524,-4.0524,-4.0524,-4.0524,-4.0524,-4.0524,-4.0524,-4.0524,-4.0524,0.0,0.0,0.0,0.0,0.0,-2.9849,0.0,0.0,0.0,-3.2527,0.0,0.0,0.0,0.0,0.0,0.0,0.0,0.0,0.0,0.0,0.0,0.0,0.0,0.0,0.0,-3.6971,-3.709,-3.7225,-3.7719,-3.8078,-3.8197,-3.8856,-3.923,-3.923,-3.9349,-3.9424,-3.9424,-3.9424,-3.9424,-3.9424,-3.9424,-3.9424,-3.9424,-3.9424,-3.9424,-3.9424,-3.9424,-3.9424,-3.9424,-3.9424,-3.9424,-3.9424,-3.9424,-3.9424,-3.9424,-3.9424,-3.9424,-3.9424,-3.9424,-3.9424,-3.9424,-3.9424,-3.9424,-3.9409,-3.9496,-3.9783,-4.0207,-4.0524,-4.0867,-4.1189,-4.1256,-4.1256,-4.1122,-4.0851,-4.0799,-4.073,-4.0524,-4.0524,-4.0524,-4.0524,-4.0524,-4.0524,-4.0524,-4.0524,-4.0524,-4.0524,-4.0524,-4.0524,-4.0524,-4.0524,-4.0524,-4.0524,-4.0524,-4.0524,-4.0524,-4.0524,-4.0524,-4.0524,-4.0524,-4.0524,-4.0524,-4.0524,-4.0524,-4.0524,-4.0524,-4.0524,-4.0524,-4.0524,-4.0524,-4.0524,-4.0524,-4.0524,0.0,0.0,0.0,0.0,-2.9146,0.0,0.0,0.0,-2.9849,-2.9998,0.0,0.0,0.0,0.0,0.0,0.0,0.0,0.0,0.0,0.0,0.0,0.0,0.0,0.0,0.0,-3.537,-3.5968,-3.6552,-3.6656,-3.6941,-3.7494,-3.8153,-3.8497,-3.8497,-3.9095,-3.9424,-3.9424,-3.9424,-3.9424,-3.9424,-3.9424,-3.9424,-3.9424,-3.9424,-3.9424,-3.9424,-3.9424,-3.9424,-3.9424,-3.9424,-3.9424,-3.9424,-3.9424,-3.9424,-3.9424,-3.9424,-3.9424,-3.9424,-3.9424,-3.9424,-3.9424,-3.9424,-3.9424,-3.9496,-3.9783,-4.0191,-4.0539,-4.0935,-4.1122,-4.1256,-4.1323,-4.1055,-4.0867,-4.0799,-4.0662,-4.0524,-4.0524,-4.0524,-4.0524,-4.0524,-4.0524,-4.0524,-4.0524,-4.0524,-4.0524,-4.0524,-4.0524,-4.0524,-4.0524,-4.0524,-4.0524,-4.0524,-4.0524,-4.0524,-4.0524,-4.0524,-4.0524,-4.0524,-4.0524,-4.0524,-4.0524,-4.0524,-4.0524,-4.0524,-4.0524,-4.0524,-4.0524,-4.0524,-4.0524,-4.0524,-4.0524,-4.0524,0.0,0.0,0.0,0.0,0.0,0.0,0.0,0.0,-2.9579,0.0,0.0,0.0,0.0,0.0,0.0,0.0,0.0,0.0,0.0,0.0,0.0,0.0,0.0,0.0,0.0,0.0,0.0,0.0,-3.6267,-3.6596,-3.6851,-3.7479,-3.7823,-3.7823,-3.8467,-3.8826,-3.8826,-3.923,-3.9424,-3.9424,-3.9424,-3.9424,-3.9424,-3.9424,-3.9424,-3.9424,-3.9424,-3.9424,-3.9424,-3.9424,-3.9424,-3.9424,-3.9424,-3.9424,-3.9424,-3.9424,-3.9424,-3.9424,-3.9424,-3.9424,-3.9424,-3.9424,-3.9424,-3.9496,-3.9854,-4.0191,-4.0439,-4.0783,-4.107,-4.1153,-4.107,-4.0935,-4.0799,-4.0662,-4.0524,-4.0524,-4.0524,-4.0524,-4.0524,-4.0524,-4.0524,-4.0524,-4.0524,-4.0524,-4.0524,-4.0524,-4.0524,-4.0524,-4.0524,-4.0524,-4.0524,-4.0524,-4.0524,-4.0524,-4.0524,-4.0524,-4.0524,-4.0524,-4.0524,-4.0524,-4.0524,-4.0524,-4.0524,-4.0524,-4.0524,-4.0524,-4.0524,-4.0524,-4.0401,-4.0191,-4.0401,-4.0246,-3.0522,0.0,0.0,0.0,0.0,0.0,0.0,0.0,0.0,0.0,0.0,0.0,0.0,0.0,0.0,0.0,0.0,0.0,0.0,0.0,0.0,0.0,0.0,0.0,0.0,0.0,0.0,0.0,0.0,-3.6013,-3.6207,-3.6821,-3.715,-3.715,-3.7778,-3.8197,-3.8392,-3.8886,-3.923,-3.9424,-3.9424,-3.9424,-3.9424,-3.9424,-3.9424,-3.9424,-3.9424,-3.9424,-3.9424,-3.9424,-3.9424,-3.9424,-3.9424,-3.9424,-3.9424,-3.9424,-3.9424,-3.9424,-3.9424,-3.9424,-3.9424,-3.9424,-3.9424,-3.9496,-3.9996,-4.0176,-4.0355,-4.0783,-4.1018,-4.1034,-4.0867,-4.073,-4.0662,-4.0524,-4.0524,-4.0524,-4.0524,-4.0524,-4.0524,-4.0524,-4.0524,-4.0524,-4.0524,-4.0524,-4.0524,-4.0524,-4.0524,-4.0524,-4.0524,-4.0524,-4.0524,-4.0524,-4.0524,-4.0524,-4.0524,-4.0524,-4.0524,-4.0524,-4.0524,-4.0524,-4.0524,-4.0524,-4.0524,-4.0524,-4.0401,-4.0401,-4.0524,-4.0316,-4.0106,-3.9839,-4.0191,-4.0036,0.0,0.0,0.0,-2.9909,0.0,0.0,0.0,0.0,-2.8637,0.0,0.0,0.0,0.0,0.0,0.0,0.0,0.0,0.0,0.0,0.0,0.0,0.0,0.0,0.0,0.0,0.0,0.0,0.0,0.0,0.0,-3.5504,-3.6163,-3.6522,-3.6522,-3.712,-3.7749,-3.8377,-3.8407,-3.8751,-3.9424,-3.9424,-3.9424,-3.9424,-3.9424,-3.9424,-3.9424,-3.9424,-3.9424,-3.9424,-3.9424,-3.9424,-3.9424,-3.9424,-3.9424,-3.9424,-3.9424,-3.9424,-3.9424,-3.9424,-3.9424,-3.9424,-3.9424,-3.9424,-3.9568,-4.0246,-4.0455,-4.0593,-4.1122,-4.1221,-4.1034,-4.0867,-4.0662,-4.0524,-4.0524,-4.0524,-4.0524,-4.0524,-4.0524,-4.0524,-4.0524,-4.0524,-4.0524,-4.0524,-4.0524,-4.0524,-4.0524,-4.0524,-4.0524,-4.0524,-4.0524,-4.0524,-4.0524,-4.0524,-4.0524,-4.0524,-4.0524,-4.0524,-4.0524,-4.0524,-4.0524,-4.0524,-4.0524,-4.0524,-4.0524,-4.0207,-4.0207,-4.0524,-3.9809,-3.9451,-3.9451,-3.9839,-3.9768,0.0,0.0,-3.317,-3.1854,0.0,0.0,0.0,0.0,0.0,0.0,0.0,0.0,0.0,0.0,0.0,0.0,0.0,0.0,0.0,0.0,0.0,0.0,0.0,0.0,0.0,0.0,0.0,0.0,-3.4651,0.0,0.0,-3.5714,-3.5833,-3.5833,-3.6462,-3.7105,-3.7734,-3.8167,-3.8736,-3.9424,-3.9424,-3.9424,-3.9424,-3.9424,-3.9424,-3.9424,-3.9424,-3.9424,-3.9424,-3.9424,-3.9424,-3.9424,-3.9424,-3.9424,-3.9424,-3.9424,-3.9424,-3.9424,-3.9424,-3.9424,-3.9424,-3.9424,-3.9568,-3.9854,-4.0331,-4.0524,-4.0593,-4.1018,-4.095,-4.0677,-4.0593,-4.0524,-4.0524,-4.0524,-4.0524,-4.0524,-4.0524,-4.0524,-4.0524,-4.0524,-4.0524,-4.0524,-4.0524,-4.0524,-4.0524,-4.0524,-4.0524,-4.0524,-4.0524,-4.0524,-4.0524,-4.0524,-4.0524,-4.0524,-4.0524,-4.0524,-4.0524,-4.0524,-4.0524,-4.0524,-4.0524,-4.0524,-4.0401,-4.0207,-4.0066,-3.991,-3.9809,-3.9523,-3.9292,-3.9002,-3.9162,-3.9017,-3.3903,-3.4158,0.0,-3.3125,-3.3185,0.0,-3.1569,0.0,0.0,0.0,0.0,0.0,0.0,0.0,0.0,0.0,0.0,0.0,0.0,-2.8607,0.0,0.0,0.0,0.0,0.0,0.0,0.0,-3.344,-3.423,-3.4931,0.0,0.0,-3.5439,-3.5424,-3.5908,-3.6447,-3.7075,-3.7719,-3.8377,-3.905,-3.9305,-3.9424,-3.9424,-3.9424,-3.9424,-3.9424,-3.9424,-3.9424,-3.9424,-3.9424,-3.9424,-3.9424,-3.9424,-3.9424,-3.9424,-3.9424,-3.9424,-3.9424,-3.9424,-3.9424,-3.9424,-3.9424,-3.964,-4.0066,-4.0316,-4.0524,-4.0708,-4.1177,-4.1,-4.0655,-4.0847,-4.0724,-4.0524,-4.0524,-4.0524,-4.0524,-4.0524,-4.0524,-4.0524,-4.0524,-4.0524,-4.0524,-4.0524,-4.0524,-4.0524,-4.0524,-4.0524,-4.0524,-4.0524,-4.0524,-4.0524,-4.0524,-4.0524,-4.0524,-4.0524,-4.0524,-4.0524,-4.0524,-4.0524,-4.0524,-4.0524,-4.0401,-4.0191,-3.9996,-3.9696,-3.9538,-3.9364,-3.9075,-3.8929,-3.8782,-3.8634,-3.8427]}]]